[[{"header":{"parameterUnit":"m.s-1","parameterCategory":1,"la1":30.6,"la2":28.766,"lo1":-90.7593,"lo2":-88.6598,"dy":0.0162,"dx":0.0183,"nx":116,"ny":114,"refTime":"2024-02-17T18:00:00:Z","depth":0,"parameterNumber":2,"parameterNumberName":"U-component_of_WINDS"},"data":[0.0,0.0,0.0,0.0,0.0,0.0,0.0,0.0,0.0,0.0,0.0,0.0,0.0,0.0,0.0,0.0,0.0,0.0,0.0,0.0,0.0,0.0,0.0,0.0,0.0,0.0,0.0,0.0,0.0,0.0,0.0,0.0,0.0,0.0,0.0,0.0,0.0,0.0,0.0,0.0,0.0,0.0,0.0,0.0,0.0,0.0,0.0,0.0,0.0,0.0,0.0,0.0,0.0,0.0,0.0,0.0,0.0,0.0,0.0,0.0,0.0,0.0,0.0,0.0,0.0,0.0,0.0,0.0,0.0,0.0,0.0,0.0,0.0,0.0,0.0,0.0,0.0,0.0,0.0,0.0,0.0,0.0,0.0,0.0,0.0,0.0,0.0,0.0,0.0,0.0,0.0,0.0,0.0,0.0,0.0,0.0,0.0,0.0,0.0,0.0,0.0,0.0,0.0,0.0,0.0,0.0,0.0,0.0,0.0,0.0,0.0,0.0,0.0,0.0,0.0,0.0,0.0,0.0,0.0,0.0,0.0,0.0,0.0,0.0,0.0,0.0,0.0,0.0,0.0,0.0,0.0,0.0,0.0,0.0,0.0,0.0,0.0,0.0,0.0,0.0,0.0,0.0,0.0,0.0,0.0,0.0,0.0,0.0,0.0,0.0,0.0,0.0,0.0,0.0,0.0,0.0,0.0,0.0,0.0,0.0,0.0,0.0,0.0,0.0,0.0,0.0,0.0,0.0,0.0,0.0,0.0,0.0,0.0,0.0,0.0,0.0,0.0,0.0,0.0,0.0,0.0,0.0,0.0,0.0,0.0,0.0,0.0,0.0,0.0,0.0,0.0,0.0,0.0,0.0,0.0,0.0,0.0,0.0,0.0,0.0,0.0,0.0,0.0,0.0,0.0,0.0,0.0,0.0,0.0,0.0,0.0,0.0,0.0,0.0,0.0,0.0,0.0,0.0,0.0,0.0,0.0,0.0,0.0,0.0,0.0,0.0,0.0,0.0,0.0,0.0,0.0,0.0,0.0,0.0,0.0,0.0,0.0,0.0,0.0,0.0,0.0,0.0,0.0,0.0,0.0,0.0,0.0,0.0,0.0,0.0,0.0,0.0,0.0,0.0,0.0,0.0,0.0,0.0,0.0,0.0,0.0,0.0,0.0,0.0,0.0,0.0,0.0,0.0,0.0,0.0,0.0,0.0,0.0,0.0,0.0,0.0,0.0,0.0,0.0,0.0,0.0,0.0,0.0,0.0,0.0,0.0,0.0,0.0,0.0,0.0,0.0,0.0,0.0,0.0,0.0,0.0,0.0,0.0,0.0,0.0,0.0,0.0,0.0,0.0,0.0,0.0,0.0,0.0,0.0,0.0,0.0,0.0,0.0,0.0,0.0,0.0,0.0,0.0,0.0,0.0,0.0,0.0,0.0,0.0,0.0,0.0,0.0,0.0,0.0,0.0,0.0,0.0,0.0,0.0,0.0,0.0,0.0,0.0,0.0,0.0,0.0,0.0,0.0,0.0,0.0,0.0,0.0,0.0,0.0,0.0,0.0,0.0,0.0,0.0,0.0,0.0,0.0,0.0,0.0,0.0,0.0,0.0,0.0,0.0,0.0,0.0,0.0,0.0,0.0,0.0,0.0,0.0,0.0,0.0,0.0,0.0,0.0,0.0,0.0,0.0,0.0,0.0,0.0,0.0,0.0,0.0,0.0,0.0,0.0,0.0,0.0,0.0,0.0,0.0,0.0,0.0,0.0,0.0,0.0,0.0,0.0,0.0,0.0,0.0,0.0,0.0,0.0,0.0,0.0,0.0,0.0,0.0,0.0,0.0,0.0,0.0,0.0,0.0,0.0,0.0,0.0,0.0,0.0,0.0,0.0,0.0,0.0,0.0,0.0,0.0,0.0,0.0,0.0,0.0,0.0,0.0,0.0,0.0,0.0,0.0,0.0,0.0,0.0,0.0,0.0,0.0,0.0,0.0,0.0,0.0,0.0,0.0,0.0,0.0,0.0,0.0,0.0,0.0,0.0,0.0,0.0,0.0,0.0,0.0,0.0,0.0,0.0,0.0,0.0,0.0,0.0,0.0,0.0,0.0,0.0,0.0,0.0,0.0,0.0,0.0,0.0,0.0,0.0,0.0,0.0,0.0,0.0,0.0,0.0,0.0,0.0,0.0,0.0,0.0,0.0,0.0,0.0,0.0,0.0,0.0,0.0,0.0,0.0,0.0,0.0,0.0,0.0,0.0,0.0,0.0,0.0,0.0,0.0,0.0,0.0,0.0,0.0,0.0,0.0,0.0,0.0,0.0,0.0,0.0,0.0,0.0,0.0,0.0,0.0,0.0,0.0,0.0,0.0,0.0,0.0,0.0,0.0,0.0,0.0,0.0,0.0,0.0,0.0,0.0,0.0,0.0,0.0,0.0,0.0,0.0,0.0,0.0,0.0,0.0,0.0,0.0,0.0,0.0,0.0,0.0,0.0,0.0,0.0,0.0,0.0,0.0,0.0,0.0,0.0,0.0,0.0,0.0,0.0,0.0,0.0,0.0,0.0,0.0,0.0,0.0,0.0,0.0,0.0,0.0,0.0,0.0,0.0,0.0,0.0,0.0,0.0,0.0,0.0,0.0,0.0,0.0,0.0,0.0,0.0,0.0,0.0,0.0,0.0,0.0,0.0,0.0,0.0,0.0,0.0,0.0,0.0,0.0,0.0,0.0,0.0,0.0,0.0,0.0,0.0,0.0,0.0,0.0,0.0,0.0,0.0,0.0,0.0,0.0,0.0,0.0,0.0,0.0,0.0,0.0,0.0,0.0,0.0,0.0,0.0,0.0,0.0,0.0,0.0,0.0,0.0,0.0,0.0,0.0,0.0,0.0,0.0,0.0,0.0,0.0,0.0,0.0,0.0,0.0,0.0,0.0,0.0,0.0,0.0,0.0,0.0,0.0,0.0,0.0,0.0,0.0,0.0,0.0,0.0,0.0,0.0,0.0,0.0,0.0,0.0,0.0,0.0,0.0,0.0,0.0,0.0,0.0,0.0,0.0,0.0,0.0,0.0,0.0,0.0,0.0,0.0,0.0,0.0,0.0,0.0,0.0,0.0,0.0,0.0,0.0,0.0,0.0,0.0,0.0,0.0,0.0,0.0,0.0,0.0,0.0,0.0,0.0,0.0,0.0,0.0,0.0,0.0,0.0,0.0,0.0,0.0,0.0,0.0,0.0,0.0,0.0,0.0,0.0,0.0,0.0,0.0,0.0,0.0,0.0,0.0,0.0,0.0,0.0,0.0,0.0,0.0,0.0,0.0,0.0,0.0,0.0,0.0,0.0,0.0,0.0,0.0,0.0,0.0,0.0,0.0,0.0,0.0,0.0,0.0,0.0,0.0,0.0,0.0,0.0,0.0,0.0,0.0,0.0,0.0,0.0,0.0,0.0,0.0,0.0,0.0,0.0,0.0,0.0,0.0,0.0,0.0,0.0,0.0,0.0,0.0,0.0,0.0,0.0,0.0,0.0,0.0,0.0,0.0,0.0,0.0,0.0,0.0,0.0,0.0,0.0,0.0,0.0,0.0,0.0,0.0,0.0,0.0,0.0,0.0,0.0,0.0,0.0,0.0,0.0,0.0,0.0,0.0,0.0,0.0,0.0,0.0,0.0,0.0,0.0,0.0,0.0,0.0,0.0,0.0,0.0,0.0,0.0,0.0,0.0,0.0,0.0,0.0,0.0,0.0,0.0,0.0,0.0,0.0,0.0,0.0,0.0,0.0,0.0,0.0,0.0,0.0,0.0,0.0,0.0,0.0,0.0,0.0,0.0,0.0,0.0,0.0,0.0,0.0,0.0,0.0,0.0,0.0,0.0,0.0,0.0,0.0,0.0,0.0,0.0,0.0,0.0,0.0,0.0,0.0,0.0,0.0,0.0,0.0,0.0,0.0,0.0,0.0,0.0,0.0,0.0,0.0,0.0,0.0,0.0,0.0,0.0,0.0,0.0,0.0,0.0,0.0,0.0,0.0,0.0,0.0,0.0,0.0,0.0,0.0,0.0,0.0,0.0,0.0,0.0,0.0,0.0,0.0,0.0,0.0,0.0,0.0,0.0,0.0,0.0,0.0,0.0,0.0,0.0,0.0,0.0,0.0,0.0,0.0,0.0,0.0,0.0,0.0,0.0,0.0,0.0,0.0,0.0,0.0,0.0,0.0,0.0,0.0,0.0,0.0,0.0,0.0,0.0,0.0,0.0,0.0,0.0,0.0,0.0,0.0,0.0,0.0,0.0,0.0,0.0,0.0,0.0,0.0,0.0,0.0,0.0,0.0,0.0,0.0,0.0,0.0,0.0,0.0,0.0,0.0,0.0,0.0,0.0,0.0,0.0,0.0,0.0,0.0,0.0,0.0,0.0,0.0,0.0,0.0,0.0,0.0,0.0,0.0,0.0,0.0,0.0,0.0,0.0,0.0,0.0,0.0,0.0,0.0,0.0,0.0,0.0,0.0,0.0,0.0,0.0,0.0,0.0,0.0,0.0,0.0,0.0,0.0,0.0,0.0,0.0,0.0,0.0,0.0,0.0,0.0,0.0,0.0,0.0,0.0,0.0,0.0,0.0,0.0,0.0,0.0,0.0,0.0,0.0,0.0,0.0,0.0,0.0,0.0,0.0,0.0,0.0,0.0,0.0,0.0,0.0,0.0,0.0,0.0,0.0,0.0,0.0,0.0,0.0,0.0,0.0,0.0,0.0,0.0,0.0,0.0,0.0,0.0,0.0,0.0,0.0,0.0,0.0,0.0,0.0,0.0,0.0,0.0,0.0,0.0,0.0,0.0,0.0,0.0,0.0,0.0,0.0,0.0,0.0,0.0,0.0,0.0,0.0,0.0,0.0,0.0,0.0,0.0,0.0,0.0,0.0,0.0,0.0,0.0,0.0,0.0,0.0,0.0,0.0,0.0,0.0,0.0,0.0,0.0,0.0,0.0,0.0,0.0,0.0,0.0,0.0,0.0,0.0,0.0,0.0,0.0,0.0,0.0,0.0,0.0,0.0,0.0,0.0,0.0,0.0,0.0,0.0,0.0,0.0,0.0,0.0,0.0,0.0,0.0,0.0,0.0,0.0,0.0,0.0,0.0,0.0,0.0,0.0,0.0,0.0,0.0,0.0,0.0,0.0,0.0,0.0,0.0,0.0,0.0,0.0,0.0,0.0,0.0,0.0,0.0,0.0,0.0,0.0,0.0,0.0,0.0,0.0,0.0,0.0,0.0,0.0,0.0,0.0,0.0,0.0,0.0,0.0,0.0,0.0,0.0,0.0,0.0,0.0,0.0,0.0,0.0,0.0,0.0,0.0,0.0,0.0,0.0,0.0,0.0,0.0,0.0,0.0,0.0,0.0,0.0,0.0,0.0,0.0,0.0,0.0,0.0,0.0,0.0,0.0,0.0,0.0,0.0,0.0,0.0,0.0,0.0,0.0,0.0,0.0,0.0,0.0,0.0,0.0,0.0,0.0,0.0,0.0,0.0,0.0,0.0,0.0,0.0,0.0,0.0,0.0,0.0,0.0,0.0,0.0,0.0,0.0,0.0,0.0,0.0,0.0,0.0,0.0,0.0,0.0,0.0,0.0,0.0,0.0,0.0,0.0,0.0,0.0,0.0,0.0,0.0,0.0,0.0,0.0,0.0,0.0,0.0,0.0,0.0,0.0,0.0,0.0,0.0,0.0,0.0,0.0,0.0,0.0,0.0,0.0,0.0,0.0,0.0,0.0,0.0,0.0,0.0,0.0,0.0,0.0,0.0,0.0,0.0,0.0,0.0,0.0,0.0,0.0,0.0,0.0,0.0,0.0,0.0,0.0,0.0,0.0,0.0,0.0,0.0,0.0,0.0,0.0,0.0,0.0,0.0,0.0,0.0,0.0,0.0,0.0,0.0,0.0,0.0,0.0,0.0,0.0,0.0,0.0,0.0,0.0,0.0,0.0,0.0,0.0,0.0,0.0,0.0,0.0,0.0,0.0,0.0,0.0,0.0,0.0,0.0,0.0,0.0,0.0,0.0,0.0,0.0,0.0,0.0,0.0,0.0,0.0,0.0,0.0,0.0,0.0,0.0,0.0,0.0,0.0,1.106,0.0,0.0,0.0,0.0,0.0,0.0,0.0,0.0,0.0,0.0,0.0,0.0,0.0,0.0,0.0,0.0,0.0,0.0,0.0,0.0,0.0,0.0,0.0,0.0,0.0,0.0,0.0,0.0,0.0,0.0,0.0,0.0,0.0,0.0,0.0,-0.6183,-0.5522,-0.5011,-0.4616,-0.4215,-0.4016,-0.402,-0.3734,-0.3215,-0.2546,0.0,0.0,0.0,0.0,0.0,0.0,0.0,0.0,0.0,0.0,0.0,0.0,0.0,0.0,0.0,0.0,0.0,0.0,0.0,0.0,0.0,0.0,0.0,0.0,0.0,0.0,0.0,0.0,0.0,0.0,0.0,0.0,0.0,0.0,0.0,0.0,0.0,0.0,0.0,0.0,0.0,0.0,0.0,0.0,0.0,0.0,0.0,0.0,0.0,0.0,0.0,0.0,0.0,0.0,0.0,0.0,0.0,0.0,0.0,0.0,0.0,0.0,0.0,0.0,0.0,0.0,0.0,0.0,0.0,0.0,0.0,1.267,0.0,0.0,0.0,0.0,0.0,0.0,0.0,0.0,0.0,0.0,0.0,0.0,0.0,0.0,0.0,0.0,0.0,0.0,0.0,0.0,0.0,0.0,0.0,-1.0681,-1.0211,-0.9461,-0.9078,-0.8612,-0.7945,-0.7656,-0.7333,-0.6996,-0.6863,-0.6499,-0.5842,-0.5467,-0.4985,-0.4307,-0.413,-0.4172,-0.4426,-0.3866,-0.3207,-0.2531,-0.2386,0.0,0.0,0.0,0.0,0.0,0.0,0.0,0.0,0.0,0.0,0.0,0.0,0.0,0.0,0.0,0.0,0.0,0.0,0.0,0.0,0.0,0.0,0.0,0.0,0.0,0.0,0.0,0.0,0.0,0.0,0.0,0.0,0.0,0.0,0.0,0.0,0.0,0.0,0.0,0.0,0.0,0.0,0.0,0.0,0.0,0.0,0.0,0.0,0.0,0.0,0.0,0.0,0.0,0.0,0.0,0.0,0.0,0.0,0.0,0.0,0.0,0.0,0.0,0.0,0.0,1.2662,1.2794,1.3052,1.3425,1.3628,1.366,1.3549,0.0,0.0,0.0,0.0,0.0,0.0,0.0,0.0,0.0,0.0,0.0,0.0,0.0,0.0,0.0,0.0,0.0,0.0,0.0,0.0,0.0,0.0,-1.0632,-1.0211,-0.9461,-0.9078,-0.8612,-0.7945,-0.7656,-0.7312,-0.6833,-0.6811,-0.6529,-0.589,-0.5491,-0.5151,-0.482,-0.4378,-0.4352,-0.464,-0.3988,-0.3462,-0.2984,-0.2645,0.0,0.0,0.0,0.0,0.0,0.0,0.0,0.0,0.0,0.0,0.0,0.0,0.0,0.0,0.0,0.0,0.0,0.0,0.0,0.0,0.0,0.0,0.0,0.0,0.0,0.0,0.0,0.0,0.0,0.0,0.0,0.0,0.0,0.0,0.0,0.0,0.0,0.0,0.0,0.0,0.0,0.0,0.0,0.9783,1.0205,0.0,0.0,0.0,0.0,0.0,0.0,0.0,0.0,0.0,0.0,0.0,0.0,0.0,0.0,1.1831,1.2368,1.2675,1.275,1.3578,1.3864,1.3651,1.4342,1.4647,1.4687,1.5111,0.0,1.464,1.3915,0.0,0.0,0.0,0.0,0.0,0.0,0.0,0.0,0.0,0.0,0.0,0.0,0.0,0.0,0.0,0.0,0.0,0.0,0.0,0.0,0.0,-1.0632,-1.0211,-0.9619,-0.958,-0.9163,-0.8244,-0.8114,-0.7648,-0.6668,-0.656,-0.6153,-0.5428,-0.534,-0.5242,-0.5139,-0.4886,-0.49,-0.5195,-0.4412,-0.4154,-0.4335,-0.3482,-0.3136,-0.3103,-0.1854,0.0,0.0,0.0,0.0,0.0,0.0,0.0,0.0,0.0,0.0,0.0,0.0,0.0,0.0,0.0,0.0,0.0,0.0,0.0,0.0,0.0,0.0,0.0,0.0,0.0,0.0,0.0,0.0,0.0,0.0,0.0,0.0,0.0,0.0,0.0,0.0,0.0,0.0,0.0,1.0,1.0312,1.0495,1.0814,1.0945,0.0,0.0,0.0,0.0,0.0,0.0,0.0,0.0,0.0,1.2073,1.2238,1.2498,1.2855,1.3496,1.3715,1.3536,1.4012,1.4177,1.4105,1.4433,1.4686,1.4873,1.5269,1.5329,1.5092,1.4653,1.4552,1.4642,0.0,0.0,0.0,0.0,0.0,0.0,0.0,0.0,0.0,0.0,0.0,0.0,0.0,0.0,0.0,0.0,0.0,0.0,-1.143,-1.1077,-1.0714,-1.0452,-1.0355,-0.9857,-0.8746,-0.8472,-0.7784,-0.6546,-0.6399,-0.5928,-0.5087,-0.5261,-0.5481,-0.5669,-0.5446,-0.5437,-0.5746,-0.4837,-0.4672,-0.5112,-0.4158,-0.3587,-0.3249,-0.2344,-0.1989,0.0,0.0,0.0,0.0,0.0,0.0,0.0,0.0,0.0,0.0,0.0,0.0,0.0,0.0,0.0,0.0,0.0,0.0,0.0,0.0,0.0,0.0,0.0,0.0,0.0,0.0,0.0,0.0,0.0,0.0,0.0,0.0,0.0,0.0,0.0,0.0,0.0,0.0,1.0467,1.0649,1.0725,1.1036,1.1115,0.0,0.0,0.0,0.0,0.0,0.0,1.2018,1.2082,1.2299,1.2697,1.296,1.3288,1.3754,1.4398,1.45,1.4156,1.442,1.4483,1.43,1.4574,1.4763,1.4949,1.5269,1.5418,1.5404,1.5146,1.5049,1.5041,1.4736,1.4601,0.0,1.4911,1.5109,1.5218,0.0,0.0,0.0,0.0,0.0,0.0,0.0,0.0,0.0,0.0,0.0,-1.1756,-1.243,-1.2233,-1.2104,-1.2328,-1.1453,-1.0464,-0.9495,-0.8491,-0.7499,-0.6551,-0.6421,-0.6044,-0.5309,-0.5475,-0.5948,-0.6744,-0.5942,-0.5788,-0.6172,-0.5148,-0.4629,-0.4505,-0.4262,-0.4245,-0.431,-0.289,-0.2201,-0.2033,0.0,0.0,0.0,0.0,0.0,0.0,0.0,0.0,0.0,0.0,0.0,0.0,0.0,0.0,0.0,0.0,0.0,0.0,0.0,0.0,0.0,0.0,0.0,0.0,0.0,0.0,0.0,0.0,0.0,0.0,0.0,0.0,0.0,0.0,0.0,0.0,0.0,0.0,0.0,1.0843,1.0625,0.0,0.0,0.0,0.0,1.0723,1.1425,1.185,1.1811,1.2413,1.2779,1.2803,1.365,1.4241,1.4472,1.499,1.5051,1.4598,1.523,1.5109,1.4332,1.5284,1.5551,1.5285,1.5639,1.577,1.5725,1.5149,1.4947,1.5038,1.5323,1.5098,1.4724,1.5612,1.5548,1.5048,0.0,0.0,0.0,0.0,0.0,0.0,0.0,0.0,-1.2332,-1.2226,-1.2477,-1.2653,-1.2609,-1.2968,-1.3064,-1.2789,-1.2472,-1.1549,-0.9928,-0.9391,-0.8503,-0.7149,-0.6594,-0.6161,-0.5825,-0.6556,-0.7075,-0.7315,-0.6663,-0.6457,-0.6542,-0.5366,-0.4546,-0.4053,-0.3887,-0.3724,-0.349,-0.3255,-0.3133,-0.2958,-0.194,-0.0642,0.0,0.0,0.0,0.0,0.0,0.0,0.0,0.0,0.0,0.0,0.0,0.0,0.0,0.0,0.0,0.0,0.0,0.0,0.0,0.0,0.0,0.0,0.0,0.0,0.0,0.0,0.0,0.0,0.0,0.0,0.0,0.0,0.0,0.0,0.0,0.0,0.0,1.1344,1.1227,0.0,0.0,1.1052,1.0993,1.1372,1.2113,1.2484,1.233,1.3484,1.4001,1.3652,1.4638,1.5181,1.5272,1.5883,1.5732,1.4864,1.5898,1.5716,1.4543,1.6048,1.6524,1.6217,1.677,1.7026,1.6982,1.6323,1.5872,1.5621,1.5982,1.6009,1.5896,1.645,1.6604,1.6538,0.0,0.0,0.0,0.0,0.0,0.0,0.0,0.0,-1.2246,-1.2164,-1.2712,-1.3121,-1.3144,-1.3638,-1.3898,-1.3748,-1.3021,-1.1904,-1.0366,-0.9552,-0.8565,-0.7254,-0.6824,-0.6607,-0.6585,-0.7518,-0.7996,-0.7921,-0.7249,-0.688,-0.688,-0.5662,-0.4839,-0.4368,-0.3963,-0.3595,-0.3389,-0.3268,-0.3377,-0.352,-0.2796,-0.1472,0.0193,0.0,0.0,0.0,0.0,0.0,0.0,0.0,0.0,0.0,0.0,0.0,0.0,0.0,0.0,0.0,0.0,0.0,0.0,0.0,0.0,0.0,0.0,0.0,0.0,0.0,0.0,0.0,0.0,0.0,0.0,0.0,0.0,0.0,0.0,0.0,1.1623,1.1819,1.1705,1.1692,1.1972,1.1439,1.1416,1.2121,1.2441,1.2796,1.3142,1.3988,1.4399,1.4374,1.5216,1.5815,1.5964,1.6401,1.6228,1.5447,1.6356,1.6186,1.5103,1.6644,1.7217,1.7022,1.7503,1.7697,1.7652,1.7219,1.6817,1.6533,1.6691,1.6846,1.7013,1.7571,1.7814,1.7919,0.0,0.0,0.0,0.0,0.0,0.0,0.0,-1.2597,-1.2185,-1.2112,-1.2481,-1.3104,-1.4078,-1.4285,-1.4665,-1.5351,-1.3146,-1.1468,-1.0857,-0.8923,-0.7529,-0.6859,-0.7188,-0.7462,-0.7533,-0.827,-0.8664,-0.8652,-0.7628,-0.7163,-0.7114,-0.5952,-0.5518,-0.5513,-0.4558,-0.4051,-0.3961,-0.2949,-0.2934,-0.3513,-0.3544,-0.2146,0.0151,0.0,0.0,0.0,0.0,0.0,0.0,0.0,0.0,0.0,0.0,0.0,0.0,0.0,0.0,0.0,0.0,0.0,0.0,0.0,0.0,0.0,0.0,0.0,0.0,0.0,0.0,0.0,0.0,0.0,0.0,0.0,0.0,0.0,1.1399,1.143,1.1644,1.2234,1.1923,1.1815,1.2214,1.1806,1.1945,1.2889,1.2484,1.2834,1.4229,1.3869,1.3985,1.4877,1.5429,1.599,1.6467,1.6415,1.6344,1.6289,1.6656,1.6564,1.6074,1.7151,1.7659,1.764,1.7724,1.7757,1.7757,1.776,1.776,1.7717,1.744,1.754,1.7955,1.8952,1.9095,1.8949,0.0,0.0,0.0,0.0,0.0,0.0,0.0,-1.2711,-1.2372,-1.2195,-1.3207,-1.3991,-1.4187,-1.521,-1.5746,-1.541,-1.3732,-1.2155,-1.0871,-0.9291,-0.8213,-0.7839,-0.8956,-0.9363,-0.8741,-0.9521,-0.9706,-0.9153,-0.8498,-0.7897,-0.7522,-0.6642,-0.5797,-0.4876,-0.4034,-0.3048,-0.1937,-0.1688,-0.171,-0.1904,-0.2159,-0.1376,0.0108,0.0,0.0,0.0,0.0,0.0,0.0,0.0,0.0,0.0,0.0,0.0,0.0,0.0,0.0,0.0,0.0,0.0,0.0,0.0,0.0,0.0,0.0,0.0,0.0,0.0,0.0,0.0,0.0,0.0,0.0,0.0,0.0,1.1236,1.1399,1.2045,1.2552,1.273,1.2627,1.2729,1.3248,1.2853,1.2946,1.3852,1.4146,1.4389,1.4722,1.5318,1.5608,1.548,1.6007,1.6368,1.6494,1.6331,1.6271,1.6397,1.7098,1.715,1.663,1.8177,1.8702,1.8357,1.8867,1.9096,1.9141,1.8882,1.8768,1.8659,1.8161,1.82,1.8598,1.9102,1.9398,1.9554,0.0,0.0,0.0,0.0,0.0,0.0,0.0,-1.2748,-1.2416,-1.2262,-1.3454,-1.4278,-1.4214,-1.5146,-1.552,-1.4822,-1.2986,-1.1391,-1.0205,-0.9135,-0.8667,0.0,0.0,-1.0343,-0.9987,-1.0408,-1.0343,-0.9844,-0.9265,-0.8654,-0.7955,-0.7264,-0.6376,-0.5298,-0.4087,-0.3015,-0.2171,-0.147,-0.1236,-0.1292,-0.1407,-0.0966,-0.0118,0.0884,0.1831,0.2692,0.3018,0.3519,0.4085,0.4761,0.0,0.0,0.0,0.0,0.0,0.0,0.0,0.0,0.0,0.0,0.0,0.0,0.0,0.0,0.0,0.0,0.0,0.0,0.0,0.0,0.0,0.0,0.0,0.0,1.1509,1.1704,1.179,1.2321,1.2762,1.3001,1.3041,1.3242,1.3729,1.3586,1.3796,1.4696,1.4809,1.5069,1.5514,1.5874,1.6048,1.6045,1.6358,1.6607,1.6778,1.6395,1.6428,1.6869,1.7362,1.7525,1.744,1.8775,1.917,0.0,1.9375,1.9611,1.9675,1.9623,1.959,0.0,0.0,0.0,0.0,0.0,2.0257,2.0705,0.0,0.0,0.0,0.0,0.0,0.0,0.0,-1.2767,-1.24,-1.2327,-1.3356,-1.4092,-1.4024,-1.44,-1.4452,-1.383,-1.1586,-0.9877,-0.9173,-0.8853,0.0,-1.0054,-1.0497,-1.0865,-1.1119,-1.1059,-1.0762,-1.0371,-0.9863,-0.9146,-0.8321,-0.7673,-0.6985,-0.6264,-0.4509,-0.3755,-0.3665,-0.202,-0.1341,-0.1285,-0.1127,-0.0871,-0.0516,0.0242,0.0768,0.1293,0.2102,0.2858,0.3574,0.4288,0.0,0.0,0.0,0.0,0.0,0.0,0.0,0.0,0.0,0.0,0.0,0.0,0.0,0.0,0.0,0.0,0.0,0.0,0.0,0.0,0.0,0.0,0.0,0.0,1.1953,1.2401,1.2451,1.2497,1.2729,1.3215,1.3351,1.355,1.4015,1.4143,1.454,1.5396,1.4967,1.5196,0.0,0.0,0.0,0.0,0.0,1.6693,1.7115,1.6557,1.6689,1.7534,1.7553,1.7839,1.8317,1.898,1.9302,1.9302,1.9501,1.9611,1.9683,2.0085,2.0265,2.018,1.9311,1.9138,1.9479,2.0532,2.1321,0.0,0.0,0.0,0.0,0.0,0.0,0.0,0.0,-1.2911,-1.2575,-1.2403,-1.3063,-1.3367,-1.2893,-1.3518,-1.3758,-1.3205,-1.1257,-0.9638,-0.8705,-0.9457,-1.0325,-1.1168,-1.1878,-1.2225,-1.2132,-1.1992,-1.1344,-1.0047,-0.9806,-0.908,-0.7815,-0.7668,-0.7253,-0.6513,-0.5399,-0.4491,-0.375,-0.2716,-0.1863,-0.1322,-0.1203,-0.1068,-0.0864,0.0125,0.0549,0.0729,0.1294,0.2034,0.2715,0.3258,0.444,0.5751,0.6103,0.0,0.0,0.0,0.0,0.0,0.0,0.0,0.0,0.0,0.0,0.0,0.0,0.0,0.0,0.0,0.0,0.0,0.0,0.0,0.0,1.2093,1.2204,1.239,1.2897,1.3212,1.3507,1.3826,1.3856,1.4209,1.5081,1.5178,1.5429,1.5985,1.5942,1.5979,1.6231,1.6219,0.0,1.6436,1.6479,1.6552,1.6637,1.6731,1.7099,1.7731,0.0,0.0,1.8927,1.908,1.9176,1.9302,1.9339,1.9581,2.0045,2.0395,2.0544,2.0613,2.0744,2.0842,2.0935,2.1444,2.1694,2.184,0.0,0.0,0.0,0.0,0.0,0.0,0.0,-1.3,-1.2652,-1.251,-1.2887,-1.2885,-1.2184,-1.2533,-1.2428,-1.1443,-0.9982,-0.9023,-0.8898,-0.9975,-1.1159,-1.2443,-1.2507,-1.2687,-1.298,-1.2301,-1.1574,-1.0808,-1.0432,-0.9683,-0.8608,-0.8234,-0.7614,-0.671,-0.5696,-0.4996,-0.43,-0.3056,-0.2276,-0.1881,-0.1376,-0.1185,-0.1066,-0.053,-0.0322,-0.0192,0.0842,0.1586,0.2161,0.288,0.3898,0.4941,0.5492,0.6212,0.6946,0.0,0.0,0.0,0.0,0.0,0.0,0.0,0.0,0.0,0.0,0.0,0.0,0.0,0.0,1.0857,0.0,0.0,1.2086,1.2565,1.2596,1.2684,1.2949,1.3162,1.3382,1.3752,1.4258,1.4731,1.5244,1.5513,1.5748,1.5969,1.6013,1.6013,1.61,1.6175,1.6219,1.6318,1.6392,1.6436,1.6436,1.6857,1.7304,1.7787,1.8166,1.8611,1.9101,1.9101,1.9139,1.9176,1.9265,1.9435,1.9762,2.0361,2.0862,2.1267,2.1469,2.1327,2.1049,2.1589,2.1797,2.1877,0.0,0.0,0.0,0.0,0.0,0.0,0.0,-1.3053,-1.2671,-1.2575,-1.2683,-1.2409,-1.1481,-1.1439,-1.0891,-0.9415,-0.8744,-0.8711,0.0,-1.0507,-1.1888,-1.356,-1.2982,-1.29,-1.3664,-1.2424,-1.1664,-1.152,-1.1083,-1.0357,-0.9448,-0.8761,-0.7927,-0.6942,-0.6112,-0.55,-0.5037,-0.3565,-0.2853,-0.2601,-0.1703,-0.1302,-0.1287,-0.1196,-0.1159,-0.0941,0.0247,0.1073,0.1651,0.2435,0.3347,0.4233,0.4835,0.5445,0.6076,0.6518,0.6646,0.0,0.0,0.0,0.0,0.0,0.0,0.0,0.0,0.0,0.8947,0.8965,0.9741,1.0615,1.0983,1.1762,1.2471,1.2822,1.2978,1.3027,1.2929,1.3065,1.3296,1.3705,1.4455,1.5017,1.5108,1.5513,1.5792,1.5792,1.5792,1.5836,1.5957,1.5988,1.6044,1.6144,1.6275,1.6362,1.6392,1.6892,1.7352,1.7787,1.8266,1.8707,1.9101,1.9101,1.9101,1.9101,1.9325,1.9398,1.9472,2.0311,2.1071,2.1691,2.1751,2.1433,2.0998,2.1566,2.1797,2.1897,0.0,0.0,0.0,0.0,0.0,0.0,0.0,0.0,-1.2654,-1.2537,-1.232,-1.1686,-1.042,-1.0288,-0.9638,-0.7991,-0.8643,0.0,-0.9789,-1.1167,-1.26,-1.3989,-1.353,-1.349,-1.396,-1.2813,-1.1883,-1.1143,-1.1099,-1.0282,-0.8775,-0.8699,-0.8169,-0.7188,-0.7171,-0.6676,-0.5722,-0.4859,-0.4026,-0.3226,-0.2257,-0.1752,-0.1556,-0.1476,-0.1282,-0.1039,-0.085,-0.0,0.1092,0.1142,0.245,0.4064,0.4457,0.521,0.6108,0.6577,0.0,0.6482,0.6781,0.7319,0.7885,0.8514,0.8702,0.8798,0.0,0.0,0.9651,0.8885,1.0389,1.1643,1.0946,1.1909,1.2822,1.2871,1.3248,1.3392,1.2978,1.3621,1.4165,1.4212,1.4305,1.4582,1.5062,1.5513,1.5792,1.5792,1.5792,1.5792,1.5836,1.5957,1.6001,1.6044,1.6144,1.6275,1.6392,1.6723,1.7173,1.7787,1.8147,1.8592,1.9101,1.9101,1.9101,1.9139,1.9551,1.9752,1.9823,2.0632,2.1055,2.1197,2.157,2.1688,2.1681,2.1764,2.1797,2.1897,0.0,0.0,0.0,0.0,0.0,0.0,0.0,0.0,0.0,-1.2517,-1.2108,-1.139,-1.0328,-0.9204,-0.8073,-0.6872,-0.7538,0.0,-0.9498,-1.0997,-1.2614,-1.438,-1.3865,-1.3815,-1.4308,-1.3027,-1.215,-1.1781,-1.1489,-1.0724,-0.9576,-0.9232,-0.8502,-0.748,-0.6975,-0.6433,-0.5864,-0.4509,-0.3643,-0.3243,-0.2354,-0.1908,-0.1687,-0.1627,-0.1478,-0.1262,-0.0701,0.0123,0.0,0.0,0.2223,0.3404,0.4066,0.461,0.5101,0.5703,0.6027,0.0,0.7161,0.752,0.0,0.0,0.8898,0.9119,0.9012,0.9392,0.969,0.9305,1.049,1.1458,1.1103,1.2055,1.2881,0.0,1.3065,1.3113,1.2929,1.3478,1.3884,1.3884,1.4408,1.496,1.5468,1.5703,1.5792,1.5792,1.5792,1.5792,1.5792,1.5836,1.5869,1.5869,1.6001,1.6088,1.6175,1.6582,1.7089,1.7639,1.8068,1.8553,1.9055,1.9078,1.9101,1.9101,1.931,1.9551,1.9823,2.0158,2.0616,2.1134,2.1291,2.1524,2.1797,2.1797,2.2062,2.2543,0.0,0.0,0.0,0.0,0.0,0.0,0.0,0.0,0.0,0.0,-1.1972,-1.1198,-1.0115,-0.8515,-0.7232,-0.6514,0.0,0.0,0.0,-1.0709,-1.2389,-1.4296,-1.3718,-1.364,-1.445,-1.297,-1.2225,-1.2305,-1.1986,-1.123,-1.0087,-0.9756,-0.8953,-0.7631,-0.7022,-0.649,-0.6028,-0.4527,-0.3739,-0.3355,-0.2507,-0.2035,-0.1866,-0.1793,-0.1617,-0.138,-0.0674,0.0118,0.0,0.0,0.1991,0.2817,0.3692,0.4105,0.4394,0.5145,0.5625,0.6189,0.7217,0.0,0.0,0.8497,0.9031,0.9304,0.9018,0.93,0.9562,0.9562,1.0438,1.1158,1.12,1.2116,0.0,1.2881,1.2968,1.3017,1.2929,1.3392,1.3752,1.38,1.4455,1.5096,1.5748,1.5792,1.5792,1.5792,1.5792,1.5792,1.5792,1.5792,1.5792,1.5792,1.5869,1.5957,1.5988,1.6337,1.6837,1.7516,1.7908,1.8397,1.8993,1.9078,1.9101,1.9101,1.9101,1.931,1.9624,1.9732,2.0158,2.0797,2.1215,2.1599,2.1944,2.228,2.2609,2.3023,0.0,0.0,0.0,0.0,0.0,0.0,0.0,0.0,0.0,0.0,0.0,0.0,0.0,-0.842,-0.7669,0.0,0.0,0.0,0.0,-1.0456,-1.1855,-1.3476,-1.2957,-1.3044,-1.4016,-1.265,-1.2024,-1.2305,-1.2599,-1.1746,-0.9911,-1.0143,-0.9286,-0.7508,-0.7687,-0.7288,-0.6516,-0.5687,-0.4856,-0.4008,-0.2878,-0.229,-0.1956,-0.1871,-0.1622,-0.1301,-0.1181,0.0,0.0,0.0767,0.1514,0.257,0.3365,0.3857,0.0,0.5217,0.569,0.6064,0.0,0.0,0.7639,0.8493,0.898,0.9211,0.9197,0.9309,0.9413,0.9413,1.0293,1.1116,1.1209,1.2017,1.2735,1.2881,1.319,1.3276,1.2978,1.3621,1.4222,1.4258,1.4305,1.472,0.0,1.5792,1.5792,1.5792,1.5792,1.5792,1.5792,1.5792,1.5792,1.5792,1.5792,1.5869,1.5988,1.5869,1.638,1.7516,1.753,1.8054,1.8993,1.9078,1.9101,1.9101,1.9101,1.9101,1.9139,1.953,1.9747,1.999,2.1489,2.2115,2.2328,2.349,2.3487,2.3106,0.0,0.0,0.0,0.0,0.0,0.0,0.0,0.0,0.0,0.0,0.0,0.0,0.0,0.0,0.0,0.0,0.0,0.0,0.0,-0.9469,-1.076,-1.1788,-1.1918,-1.227,-1.2964,-1.1909,-1.143,-1.1724,-1.1571,-1.0867,-0.9755,-0.9601,-0.8881,-0.7837,-0.7245,-0.6555,-0.5764,-0.4777,-0.3784,-0.2971,-0.2501,-0.2225,-0.2072,-0.1934,-0.1751,-0.1536,0.0,0.0,0.0,0.059,0.1357,0.2459,0.3143,0.0,0.3718,0.4759,0.5187,0.5609,0.0,0.0,0.7436,0.8488,0.8933,0.9061,0.9061,0.9159,0.9263,0.9263,0.9802,1.0286,1.0475,1.127,1.1921,1.2168,1.2541,1.2813,1.2774,1.3286,1.3705,1.3847,1.4398,0.0,0.0,0.0,0.0,1.5792,1.5792,1.5792,1.5792,1.5792,1.5792,1.5792,1.5792,1.5836,1.5869,1.5836,1.6132,1.685,1.7558,1.8305,1.8993,1.9078,1.9101,1.9116,1.9566,1.9769,1.9798,2.0348,2.0768,2.1152,2.1978,2.2469,2.29,2.4144,2.4446,2.4298,0.0,0.0,0.0,0.0,0.0,0.0,0.0,0.0,0.0,0.0,0.0,0.0,0.0,0.0,0.0,0.0,0.0,0.0,0.0,0.0,-0.9503,-1.0313,-1.0364,-1.0688,-1.1332,-1.0533,-1.0133,-1.0292,-1.0221,-0.9678,-0.8803,-0.8679,-0.8225,-0.7367,-0.659,-0.577,-0.4951,-0.4031,-0.3095,-0.2285,-0.2206,-0.2078,-0.1925,-0.1824,-0.1726,0.0,0.0,0.0,0.0434,0.0657,0.1456,0.2501,0.3033,0.3462,0.3904,0.4589,0.4983,0.5468,0.6773,0.7085,0.7354,0.8533,0.8857,0.891,0.891,0.9008,0.9079,0.9027,0.9335,0.9729,1.0025,1.0694,1.1424,1.1818,1.2215,1.248,1.2676,1.3045,1.342,1.3563,1.4176,0.0,0.0,0.0,0.0,1.5748,1.5792,1.5792,1.5792,1.5792,1.5792,1.5792,1.5792,1.5792,1.5792,1.5792,1.6088,1.6637,1.7626,1.8355,1.8827,1.9272,1.9333,1.9145,2.0045,2.0306,2.0146,2.0741,2.1193,2.1555,2.244,2.2952,2.3349,2.4775,2.5302,2.5318,0.0,0.0,0.0,0.0,0.0,0.0,0.0,0.0,0.0,0.0,0.0,0.0,0.0,0.0,0.0,0.0,0.0,0.0,0.0,0.0,0.0,-0.9059,-0.8423,-0.8456,-0.9223,-0.8651,-0.8311,-0.8265,-0.8627,-0.8241,-0.7082,-0.7501,-0.7187,-0.6298,-0.5709,-0.5059,-0.428,-0.3598,-0.2814,-0.2103,-0.192,-0.1804,-0.1695,-0.1634,0.0,0.0,0.0,0.0,0.0,0.0,0.0,0.0,0.0,0.3976,0.482,0.482,0.5072,0.5622,0.6761,0.7085,0.7354,0.8533,0.8752,0.8752,0.8804,0.8896,0.8906,0.8625,0.8969,0.9379,0.0,0.0,1.1161,1.1771,1.2109,1.2382,1.2627,1.2939,1.3266,0.0,0.0,0.0,0.0,0.0,0.0,1.5748,0.0,1.5792,1.5792,1.5792,1.5792,1.5792,1.5792,1.5792,1.5792,1.5792,1.612,1.6837,1.7666,1.8238,1.8567,1.9598,1.9725,1.9217,2.0465,2.0683,2.0248,2.0843,2.109,2.1272,2.2827,2.3499,2.3709,2.5334,2.5957,2.6026,0.0,0.0,0.0,0.0,0.0,0.0,0.0,0.0,0.0,0.0,0.0,0.0,0.0,0.0,0.0,0.0,0.0,0.0,0.0,0.0,0.0,0.0,0.0,0.0,0.0,0.0,0.0,-0.764,-0.6963,-0.6551,-0.6352,-0.5973,-0.5599,-0.5212,-0.5096,-0.4448,-0.3444,-0.3209,-0.2672,-0.1858,0.0,-0.1706,-0.1632,0.0,0.0,0.0,0.0,0.0,0.0,0.0,0.0,0.0,0.0,0.4427,0.4904,0.5011,0.5483,0.6159,0.6918,0.7085,0.7354,0.8533,0.8474,0.8256,0.8699,0.8689,0.8514,0.8491,0.8249,0.8335,0.0,0.0,0.0,1.1434,1.1916,0.0,1.2382,1.2471,0.0,0.0,0.0,1.4129,1.4408,1.5051,0.0,0.0,1.5792,1.5792,1.5792,1.5792,1.5792,1.5792,1.5792,1.5792,1.5792,1.5792,1.6262,1.7102,1.7476,1.804,1.8745,1.9161,1.9537,1.9885,2.0654,2.1191,2.1554,2.2193,2.2395,2.244,2.2712,2.3361,2.4157,2.4591,2.5224,2.597,0.0,0.0,0.0,0.0,0.0,0.0,0.0,0.0,0.0,0.0,0.0,0.0,0.0,0.0,0.0,0.0,0.0,0.0,0.0,0.0,0.0,0.0,0.0,0.0,0.0,0.0,0.0,0.0,0.0,0.0,-0.5038,-0.476,-0.4509,-0.4321,-0.4115,-0.3542,-0.2797,-0.2531,0.0,0.0,0.0,0.0,0.0,0.0,0.0,0.0,0.0,0.0,0.0,0.0,0.0,0.3738,0.4446,0.4789,0.5024,0.508,0.0,0.6317,0.6923,0.7295,0.767,0.8586,0.8533,0.8336,0.8592,0.849,0.8346,0.8078,0.7755,0.0,0.0,0.0,0.0,0.0,0.0,0.0,1.2274,1.2274,1.2332,0.0,1.3276,0.0,1.4176,1.496,1.557,0.0,0.0,1.5792,1.5792,1.5792,1.5792,1.5792,1.5792,1.5792,1.5792,1.5792,1.6219,1.7018,1.7353,1.7921,1.8669,1.9291,1.958,1.9725,0.0,2.1481,2.1627,2.2511,2.2888,2.2949,2.3233,2.3743,2.4338,2.4761,2.5285,2.5828,0.0,0.0,0.0,0.0,0.0,0.0,0.0,0.0,0.0,0.0,0.0,0.0,0.0,0.0,0.0,0.0,0.0,0.0,0.0,0.0,0.0,0.0,0.0,0.0,0.0,0.0,0.0,0.0,0.0,0.0,0.0,0.0,0.0,0.0,0.0,0.0,0.0,0.0,0.0,0.0,0.0,0.0,0.0,0.0,0.0,0.0,0.0,0.0,0.0,0.0,0.3426,0.4168,0.49,0.5117,0.5117,0.5117,0.5699,0.6426,0.6972,0.7503,0.8037,0.8639,0.8725,0.8573,0.843,0.836,0.8151,0.7621,0.0,0.0,0.8302,0.0,0.9905,1.0831,0.0,1.207,1.2274,1.2274,1.2323,1.2421,1.3035,1.3647,1.4129,1.4777,1.5379,1.5792,1.5792,1.5792,1.5792,1.5792,1.5792,1.5792,1.5792,1.5792,1.5792,1.5881,1.6219,1.6879,1.7353,1.7921,1.8567,1.9627,1.9827,1.9449,0.0,0.0,2.1336,2.2424,2.2888,2.2978,2.3776,2.4184,2.441,2.5195,2.5582,2.5738,0.0,0.0,0.0,0.0,0.0,0.0,0.0,0.0,0.0,0.0,0.0,0.0,0.0,0.0,0.0,0.0,0.0,0.0,0.0,0.0,0.0,0.0,0.0,0.0,0.0,0.0,0.0,0.0,0.0,0.0,0.0,0.0,0.0,0.0,0.0,0.0,0.0,0.0,0.0,0.0,0.0,0.0,0.0,0.0,0.0,0.0,0.0,0.0,0.0,0.0,0.3411,0.4236,0.5034,0.5194,0.5136,0.5249,0.6081,0.6972,0.7085,0.7503,0.8037,0.8639,0.8248,0.7853,0.8283,0.8031,0.0,0.0,0.0,0.7913,0.8746,0.928,0.0,1.1223,0.0,0.0,0.0,0.0,1.2126,0.0,0.0,0.0,0.0,0.0,0.0,0.0,0.0,0.0,1.5792,1.5792,1.5792,1.5792,1.5792,1.5792,1.5792,1.6175,1.6637,1.7144,1.772,1.8277,1.876,1.9666,2.0306,2.0712,0.0,0.0,2.2569,2.2801,2.2888,2.2875,2.2897,2.3477,2.4323,2.4369,2.4943,2.5738,0.0,0.0,0.0,0.0,0.0,0.0,0.0,0.0,0.0,0.0,0.0,0.0,0.0,0.0,0.0,0.0,0.0,0.0,0.0,0.0,0.0,0.0,0.0,0.0,0.0,0.0,0.0,0.0,0.0,0.0,0.0,0.0,0.0,0.0,0.0,0.0,0.0,0.0,0.0,0.0,0.0,0.0,0.0,0.0,0.0,0.0,0.0,0.0,0.0,0.0,0.3456,0.4398,0.4996,0.5221,0.5293,0.5673,0.6376,0.7139,0.745,0.7937,0.8421,0.8752,0.8482,0.8146,0.8161,0.0,0.0,0.0,0.0,0.79,0.8538,0.0,0.0,0.0,0.0,0.0,0.0,0.0,0.0,0.0,0.0,0.0,0.0,0.0,0.0,0.0,0.0,0.0,0.0,1.5792,1.5924,1.62,1.5936,1.5792,1.5792,1.6262,1.6808,1.738,1.8208,1.8939,1.9483,2.0237,2.0727,2.1032,0.0,0.0,2.2483,2.2757,2.2888,2.2904,2.3079,2.3606,2.4297,2.4461,2.4997,2.5696,0.0,0.0,0.0,0.0,0.0,0.0,0.0,0.0,-1.3127,-1.3375,-1.3059,-1.2455,-1.1588,-1.0609,0.0,0.0,0.0,0.0,0.0,0.0,0.0,0.0,0.0,0.0,0.0,0.0,0.0,0.0,0.0,0.0,0.0,0.0,0.0,0.0,0.0,0.0,0.0,0.0,0.0,0.0,0.0,0.0,0.0,0.0,0.0,0.0,0.0,0.0,0.0,0.0,0.3482,0.4455,0.4827,0.5088,0.5296,0.5972,0.6577,0.7175,0.7753,0.8362,0.8804,0.8804,0.8711,0.8497,0.7988,0.7782,0.0,0.0,0.7516,0.7972,0.8357,0.0,0.0,0.0,0.0,0.0,0.0,0.0,0.0,0.0,0.0,0.0,0.0,0.0,0.0,0.0,0.0,0.0,0.0,1.6068,1.626,1.6572,1.6176,1.5912,1.5792,1.6262,1.6837,1.7476,1.8577,1.9443,2.0063,2.0872,2.1206,2.1249,0.0,0.0,0.0,2.2685,2.2888,2.2933,2.3436,2.3909,2.4343,2.4759,2.5208,2.5616,0.0,0.0,0.0,0.0,0.0,0.0,0.0,0.0,-1.3458,-1.4256,-1.3249,-1.2448,-1.2471,-1.1461,0.0,0.0,0.0,0.0,0.0,0.0,0.0,0.0,0.0,0.0,0.0,0.0,0.0,0.0,0.0,0.0,0.0,0.0,0.0,0.0,0.0,0.0,0.0,0.0,0.0,0.0,0.0,0.0,0.0,0.0,0.0,0.0,0.0,0.0,0.0,0.0,0.0,0.4084,0.4443,0.4666,0.4985,0.5724,0.0,0.0,0.77,0.8362,0.8804,0.8804,0.8404,0.7948,0.7895,0.0,0.0,0.7572,0.7979,0.8398,0.8854,0.9341,0.0,0.0,0.0,0.0,0.0,0.0,0.0,0.0,0.0,0.0,0.0,0.0,0.0,0.0,0.0,0.0,0.0,1.7015,1.7075,1.6596,1.6536,1.6284,1.5792,1.6262,1.6795,1.7312,1.8536,1.9388,1.9969,2.1294,2.1902,2.1931,0.0,0.0,0.0,2.2873,2.2888,2.2933,2.3436,2.3909,2.4343,2.4759,2.5208,2.5616,0.0,0.0,0.0,0.0,0.0,0.0,0.0,0.0,-1.3004,-1.348,-1.3317,-1.2914,-1.2268,-1.1629,0.0,0.0,0.0,0.0,0.0,0.0,0.0,0.0,0.0,0.0,0.0,0.0,0.0,0.0,0.0,0.0,0.0,0.0,0.0,0.0,0.0,0.0,0.0,0.0,0.0,0.0,0.0,0.0,0.0,0.0,0.0,0.0,0.0,0.0,0.0,0.0,0.0,0.0,0.4337,0.443,0.0,0.0,0.6505,0.6996,0.7934,0.8508,0.8764,0.8591,0.837,0.8103,0.7736,0.0,0.0,0.7265,0.7814,0.8357,0.8529,0.9185,0.9769,0.0,0.0,0.0,0.0,0.0,0.0,0.0,0.0,0.0,0.0,0.0,0.0,0.0,0.0,0.0,0.0,0.0,1.7171,1.6642,1.6584,1.6332,1.5804,1.6262,1.6795,1.7449,1.8974,1.9992,2.0614,2.1932,2.2511,0.0,0.0,0.0,0.0,2.2888,2.2888,2.2947,2.3112,2.348,2.3952,2.4369,2.4855,2.5355,0.0,0.0,0.0,0.0,0.0,0.0,-1.3496,-1.2992,-1.2702,-1.3109,-1.3192,-1.2968,-1.2241,-1.1487,-1.0647,-0.9658,0.0,0.0,0.0,0.0,0.0,0.0,0.0,0.0,0.0,0.0,0.0,0.0,0.0,0.0,0.0,0.0,0.0,0.0,0.0,0.0,0.0,0.0,0.0,0.0,0.0,0.0,0.0,0.0,0.0,0.0,0.0,0.0,0.0,0.0,0.0,0.0,0.0,0.0,0.0,0.0,0.6428,0.6839,0.8067,0.8457,0.8517,0.8447,0.8286,0.8044,0.0,0.0,0.0,0.7482,0.7979,0.848,0.8765,0.9337,0.9793,0.0,0.0,0.0,0.0,0.0,0.0,0.0,0.0,0.0,0.0,0.0,0.0,0.0,0.0,0.0,0.0,0.0,1.7664,1.6608,1.6584,1.6332,1.5804,1.6262,1.6914,1.7784,1.9345,2.0514,2.1322,2.2395,2.2888,0.0,0.0,0.0,0.0,2.2888,2.2888,2.2888,2.2888,2.3187,2.3638,2.4147,2.4655,2.5185,0.0,0.0,0.0,0.0,0.0,0.0,0.0,0.0,-1.2731,-1.367,-1.2791,-1.2277,-1.2747,-1.1071,-0.9939,-0.9995,0.0,0.0,0.0,0.0,0.0,0.0,0.0,0.0,0.0,0.0,0.0,0.0,0.0,0.0,0.0,0.0,0.0,0.0,0.0,0.0,0.0,0.0,0.0,0.0,0.0,0.0,0.0,0.0,0.0,0.0,0.0,0.0,0.0,0.0,0.0,0.0,0.0,0.0,0.0,0.0,0.6099,0.6441,0.7957,0.8163,0.8009,0.8383,0.8058,0.7661,0.0,0.0,0.0,0.8513,0.8675,0.8967,0.9813,0.998,0.998,0.998,1.0321,0.0,0.0,0.0,0.0,0.0,0.0,0.0,0.0,0.0,0.0,0.0,0.0,0.0,0.0,0.0,1.8794,1.669,1.6584,1.6332,1.5804,1.6262,1.7149,1.8414,1.9551,2.0754,2.2004,2.2598,0.0,0.0,0.0,0.0,0.0,2.2888,2.2888,2.2888,2.2888,2.3187,2.3681,2.4184,2.4704,2.5185,0.0,0.0,0.0,0.0,0.0,0.0,0.0,0.0,-1.1712,-1.1914,-1.1922,-1.1785,-1.1451,-1.0676,-0.9944,-0.9354,0.0,0.0,0.0,0.0,0.0,0.0,0.0,0.0,0.0,0.0,0.0,0.0,0.0,0.0,0.0,0.0,0.0,0.0,0.0,0.0,0.0,0.0,0.0,0.0,0.0,0.0,0.0,0.0,0.0,0.0,0.0,0.0,0.0,0.0,0.0,0.0,0.0,0.0,0.0,0.6267,0.6546,0.6772,0.761,0.7936,0.799,0.7922,0.7791,0.7688,0.7566,0.0,0.0,0.8185,0.8716,0.9199,0.9487,0.9774,1.0019,1.0049,1.0203,0.0,0.0,0.0,0.0,0.0,0.0,0.0,0.0,0.0,0.0,0.0,0.0,0.0,0.0,0.0,0.0,1.7219,1.7159,1.6785,1.5925,1.6443,1.6961,1.7476,1.9404,2.0526,2.0941,0.0,0.0,0.0,0.0,0.0,0.0,2.2888,2.2888,2.2888,2.2888,2.2978,2.3231,2.4059,2.4567,2.4879,0.0,0.0,0.0,0.0,0.0,0.0,0.0,0.0,-1.1215,-1.1192,-1.1301,-1.1252,-1.0904,-1.0248,-0.9609,-0.9052,0.0,0.0,0.0,0.0,0.0,0.0,0.0,0.0,0.0,0.0,0.0,0.0,0.0,0.0,0.0,0.0,0.0,0.0,0.0,0.0,0.0,0.0,0.0,0.0,0.0,0.0,0.188,0.0,0.0,0.0,0.0,0.0,0.0,0.0,0.0,0.0,0.0,0.0,0.0,0.0,0.689,0.7101,0.0,0.7754,0.784,0.7771,0.7697,0.0,0.0,0.0,0.0,0.0,0.891,0.9469,0.9637,0.9932,1.0185,1.0369,1.0533,0.0,0.0,0.0,0.0,0.0,0.0,0.0,0.0,0.0,0.0,0.0,0.0,0.0,0.0,0.0,0.0,1.8338,1.7724,1.7135,1.6596,1.707,1.7505,1.7929,1.9462,2.0496,2.1026,0.0,0.0,0.0,0.0,0.0,0.0,2.2888,2.2888,2.2888,2.2888,2.3023,2.326,2.4101,2.4567,2.4942,0.0,0.0,0.0,0.0,0.0,0.0,0.0,0.0,0.0,0.0,0.0,-1.0721,-1.0831,-0.9731,0.0,0.0,0.0,0.0,0.0,0.0,0.0,0.0,0.0,0.0,0.0,0.0,0.0,-0.3037,-0.2893,-0.254,-0.1947,0.0,0.0,0.0,0.0,0.0,0.0,0.0,0.0,0.0,0.0,0.1957,0.0,0.0,0.0,0.0,0.0,0.0,0.0,0.0,0.0,0.0,0.0,0.0,0.0,0.0,0.0,0.0,0.0,0.7673,0.7525,0.7917,0.7802,0.7648,0.0,0.0,0.0,0.0,0.0,0.0,0.0,1.0303,1.0459,1.085,0.0,0.0,0.0,0.0,0.0,0.0,0.0,0.0,0.0,0.0,0.0,0.0,0.0,0.0,0.0,0.0,0.0,0.0,1.8313,1.7521,1.7581,1.7965,1.8504,1.9252,1.9711,2.0604,2.1816,0.0,0.0,0.0,0.0,0.0,0.0,2.2888,2.2888,2.2888,2.2888,2.3187,2.3681,2.4184,2.4728,2.5269,0.0,0.0,0.0,0.0,0.0,0.0,0.0,0.0,0.0,0.0,0.0,0.0,0.0,0.0,0.0,0.0,0.0,0.0,0.0,0.0,0.0,0.0,0.0,0.0,0.0,0.0,0.0,-0.24,-0.2326,-0.1976,-0.1373,-0.1107,0.0,0.0,0.0,0.0,0.0,0.0,0.0,0.0,0.1958,0.2534,0.0,0.0,0.0,0.0,0.4666,0.4937,0.0,0.0,0.0,0.0,0.0,0.0,0.0,0.0,0.7587,0.7726,0.8135,0.0,0.8036,0.812,0.8413,0.8643,0.0,0.0,0.0,0.0,0.0,0.0,0.0,0.0,0.0,0.0,0.0,0.0,0.0,0.0,0.0,0.0,0.0,0.0,0.0,0.0,0.0,0.0,0.0,0.0,0.0,0.0,0.0,0.0,1.9206,1.825,1.7149,1.8104,1.8278,1.7718,1.939,2.0147,0.0,0.0,0.0,0.0,0.0,0.0,0.0,2.2888,2.2888,2.2888,2.2888,2.3187,2.3681,2.4184,2.4728,2.5269,0.0,0.0,0.0,0.0,0.0,0.0,0.0,0.0,0.0,0.0,0.0,0.0,0.0,0.0,0.0,0.0,0.0,0.0,0.0,0.0,0.0,0.0,0.0,0.0,0.0,0.0,0.0,0.0,0.0,-0.1728,0.0,0.0,0.0,0.0,0.0,0.0,0.0,0.0,0.0,0.0,0.258,0.0,0.0,0.0,0.0,0.0,0.5111,0.5333,0.0,0.5836,0.6093,0.6307,0.0,0.0,0.0,0.0,0.7836,0.8085,0.8332,0.8365,0.8316,0.8521,0.8765,0.9016,0.9016,0.0,0.0,0.0,0.0,0.0,0.0,0.0,0.0,0.0,0.0,0.0,0.0,0.0,0.0,0.0,0.0,0.0,0.0,0.0,0.0,0.0,0.0,0.0,0.0,0.0,0.0,0.0,0.0,1.8981,1.8176,1.8701,1.872,1.8166,1.9249,1.9758,0.0,0.0,0.0,0.0,0.0,0.0,2.2888,2.2888,2.2888,2.2933,2.3142,2.3523,2.3994,2.4542,2.5059,2.5551,0.0,0.0,0.0,0.0,0.0,0.0,0.0,0.0,0.0,0.0,0.0,0.0,0.0,0.0,0.0,0.0,0.0,0.0,0.0,0.0,0.0,0.0,0.0,0.0,0.0,0.0,0.0,0.0,0.0,0.0,0.0,0.0,0.0068,0.0,0.0,0.0,0.0,0.0,0.0,0.0,0.0,0.0,0.0,0.0,0.0,0.0,0.0,0.0,0.0,0.6099,0.6349,0.6477,0.7167,0.0,0.0,0.0,0.0,0.0,0.8496,0.8578,0.87,0.9016,0.9136,0.9217,0.9217,0.0,0.0,0.0,0.0,0.0,0.0,0.0,0.0,0.0,0.0,0.0,0.0,0.0,0.0,0.0,0.0,0.0,0.0,0.0,0.0,0.0,0.0,0.0,0.0,0.0,0.0,0.0,0.0,0.0,1.976,1.9449,1.9405,1.9474,1.9219,1.9508,2.0233,0.0,0.0,0.0,0.0,0.0,2.2888,2.2888,2.2888,2.2933,2.3436,2.3909,2.4343,2.4895,2.5454,2.5917,0.0,0.0,0.0,0.0,0.0,0.0,0.0,0.0,0.0,0.0,0.0,0.0,0.0,0.0,0.0,0.0,0.0,0.0,0.0,0.0,0.0,0.0,0.0,0.0,0.0,0.0,0.0,0.0,0.0,0.0,-0.0406,0.0106,0.0669,0.1179,0.0,0.0,0.0,0.0,0.0,0.3284,0.0,0.0,0.0,0.0,0.0,0.0,0.0,0.0,0.0,0.6647,0.6937,0.7189,0.7953,0.0,0.0,0.0,0.0,0.0,0.9016,0.9426,0.9695,0.9549,0.9864,1.0147,0.0,0.0,0.0,0.0,0.0,0.0,0.0,0.0,0.0,0.0,0.0,0.0,0.0,0.0,0.0,0.0,0.0,0.0,0.0,0.0,0.0,0.0,0.0,0.0,0.0,0.0,0.0,0.0,0.0,0.0,0.0,1.9935,1.974,2.0232,1.9473,1.9711,2.0843,2.0335,0.0,0.0,0.0,0.0,2.2888,2.2888,2.2888,2.2933,2.3436,2.3909,2.4343,2.4895,2.5454,2.5934,0.0,0.0,0.0,0.0,0.0,0.0,0.0,0.0,0.0,0.0,0.0,0.0,0.0,0.0,0.0,0.0,0.0,0.0,0.0,0.0,0.0,0.0,0.0,0.0,0.0,0.0,0.0,0.0,0.0,-0.0845,-0.0182,0.0671,0.1134,0.1308,0.0,0.0,0.2865,0.0,0.3419,0.3792,0.0,0.0,0.0,0.0,0.0,0.0,0.0,0.0,0.0,0.0,0.7314,0.7655,0.8242,0.0,0.0,0.0,0.0,0.0,0.9536,1.001,1.04,1.0186,1.0254,0.0,0.0,0.0,0.0,0.0,0.0,0.0,0.0,0.0,0.0,0.0,0.0,0.0,0.0,0.0,0.0,0.0,0.0,0.0,0.0,0.0,0.0,0.0,0.0,0.0,0.0,0.0,0.0,0.0,0.0,0.0,0.0,2.0159,1.9698,2.0225,1.9474,1.9406,1.9972,2.0059,2.0596,0.0,0.0,2.2352,2.2888,2.2888,2.2888,2.2978,2.3711,2.4147,2.4461,2.5269,2.5807,2.6096,0.0,0.0,0.0,0.0,0.0,0.0,0.0,0.0,0.0,0.0,0.0,0.0,0.0,0.0,0.0,0.0,0.0,0.0,0.0,0.0,0.0,0.0,0.0,0.0,0.0,0.0,-0.2755,-0.1869,-0.1326,-0.0539,0.0458,0.119,0.1585,0.0,0.0,0.0,0.3053,0.3563,0.3992,0.4375,0.0,0.0,0.0,0.0,0.0,0.0,0.0,0.0,0.0,0.0,0.0,0.0,0.0,0.0,0.0,0.8829,0.927,0.9755,0.9971,1.04,1.0784,1.0708,0.0,0.0,0.0,0.0,0.0,0.0,0.0,0.0,0.0,0.0,0.0,0.0,0.0,0.0,0.0,0.0,0.0,0.0,0.0,0.0,0.0,0.0,0.0,0.0,0.0,0.0,0.0,0.0,0.0,0.0,0.0,0.0,0.0,2.0385,1.9971,2.0538,1.9566,1.9261,1.9566,2.0074,2.0553,2.1032,2.1699,2.2265,2.2671,2.2671,2.276,2.2893,2.3933,2.4502,2.4871,2.5701,2.6079,2.622,0.0,0.0,0.0,0.0,0.0,0.0,0.0,0.0,0.0,0.0,0.0,0.0,0.0,0.0,0.0,0.0,0.0,0.0,0.0,0.0,0.0,0.0,0.0,0.0,0.0,-0.2958,-0.257,-0.1816,-0.1019,0.0189,0.1752,0.1724,0.1997,0.26,0.0,0.0,0.4261,0.4342,0.4523,0.4933,0.6133,0.0,0.0,0.0,0.0,0.0,0.0,0.0,0.0,0.0,0.0,0.0,0.0,0.0,0.9399,0.9208,0.9725,1.0302,1.0118,1.0487,1.0881,1.0881,0.0,0.0,0.0,0.0,0.0,0.0,0.0,0.0,0.0,0.0,0.0,0.0,0.0,0.0,0.0,0.0,0.0,0.0,0.0,0.0,0.0,0.0,0.0,0.0,0.0,0.0,0.0,0.0,0.0,0.0,0.0,0.0,0.0,0.0,2.1193,2.1844,1.9986,1.9711,2.0857,2.0901,2.0959,2.1032,2.1699,2.2019,2.2062,2.2062,2.2263,2.2658,2.3897,2.5005,2.5901,2.5974,2.6079,2.622,0.0,0.0,0.0,0.0,0.0,0.0,0.0,0.0,0.0,0.0,0.0,0.0,0.0,0.0,0.0,0.0,0.0,0.0,0.0,0.0,0.0,0.0,0.0,-0.2696,-0.2214,-0.2109,-0.1715,-0.094,0.0405,0.1381,0.1974,0.2379,0.0,0.0,0.0,0.0,0.0,0.502,0.5547,0.6097,0.6835,0.7197,0.0,0.0,0.0,0.0,0.0,0.0,0.0,0.0,0.9039,0.9417,0.9487,0.9646,0.9774,0.9704,1.004,1.0418,1.0564,1.0937,1.1201,1.0957,0.0,0.0,0.0,0.0,0.0,0.0,0.0,0.0,0.0,0.0,0.0,0.0,0.0,0.0,0.0,0.0,0.0,0.0,0.0,0.0,0.0,0.0,0.0,0.0,0.0,0.0,0.0,0.0,0.0,0.0,0.0,0.0,0.0,0.0,2.0567,2.0799,2.0074,2.0175,2.0988,2.0611,2.064,2.1032,2.1699,2.1989,2.2062,2.2701,2.2869,2.2761,2.3897,2.4745,2.5384,2.5898,2.6168,2.622,0.0,0.0,0.0,0.0,0.0,0.0,0.0,0.0,0.0,0.0,0.0,0.0,0.0,0.0,0.0,0.0,0.0,0.0,0.0,0.0,0.0,0.0,0.0,-0.231,-0.1796,-0.1409,-0.0884,-0.0212,0.131,0.2125,0.2284,0.0,0.0,0.0,0.0,0.0,0.0,0.5862,0.6448,0.6949,0.7646,0.8,0.0,0.0,0.0,0.0,0.0,0.0,0.0,0.0,0.9785,1.0166,1.003,1.0069,1.0205,1.0205,1.0467,1.0802,1.1012,1.1303,1.1522,0.0,0.0,0.0,0.0,0.0,0.0,0.0,0.0,0.0,0.0,0.0,0.0,0.0,0.0,0.0,0.0,0.0,0.0,0.0,0.0,0.0,0.0,0.0,0.0,0.0,0.0,0.0,0.0,0.0,0.0,0.0,0.0,0.0,0.0,0.0,2.0103,2.0103,2.0103,2.032,2.0712,2.048,2.0509,2.0741,2.1394,2.1569,2.148,2.256,2.308,2.3209,2.3642,2.4305,2.5056,2.5886,2.622,2.6286,0.0,0.0,0.0,0.0,0.0,0.0,0.0,0.0,0.0,0.0,0.0,0.0,0.0,0.0,0.0,0.0,0.0,0.0,0.0,0.0,0.0,0.0,0.0,-0.2128,-0.2,-0.0858,-0.0118,0.02,0.1405,0.2281,0.2819,0.3487,0.0,0.0,0.0,0.0,0.0,0.6826,0.712,0.74,0.8543,0.8785,0.8485,0.0,0.0,0.0,0.0,0.0,0.0,0.0,1.084,1.0659,1.0905,1.0867,1.0715,1.0715,1.1094,1.1516,1.1516,1.1516,0.0,0.0,0.0,0.0,0.0,0.0,0.0,0.0,0.0,0.0,0.0,0.0,0.0,0.0,0.0,0.0,0.0,0.0,0.0,0.0,0.0,0.0,0.0,0.0,0.0,0.0,0.0,0.0,0.0,0.0,0.0,0.0,0.0,0.0,0.0,0.0,2.0103,2.0088,2.0088,2.0103,2.0132,2.0727,2.0669,2.0146,2.0741,2.0669,2.02,2.1277,2.2678,2.4015,2.3145,2.3753,2.5176,2.5922,2.6203,2.6419,0.0,0.0,0.0,0.0,0.0,0.0,0.0,0.0,0.0,0.0,0.0,0.0,0.0,0.0,0.0,0.0,0.0,0.0,0.0,0.0,0.0,0.0,0.0,0.0,0.0,0.0,0.1475,0.1385,0.1943,0.2475,0.0,0.0,0.0,0.4654,0.0,0.0,0.6826,0.7592,0.8123,0.8535,0.9187,0.9564,0.9752,0.0,0.0,0.0,0.0,0.0,0.0,0.0,0.0,0.0,1.1057,1.1132,1.1217,1.0981,1.1078,1.1351,1.17,1.2133,0.0,0.0,0.0,0.0,0.0,0.0,0.0,0.0,0.0,0.0,0.0,0.0,0.0,0.0,0.0,0.0,0.0,0.0,0.0,0.0,0.0,0.0,0.0,0.0,0.0,0.0,0.0,0.0,0.0,0.0,0.0,0.0,0.0,0.0,0.0,0.0,0.0,1.9406,1.9406,2.0117,2.1409,2.0683,2.0756,2.1438,2.1627,2.1598,2.1522,2.2555,2.3333,2.388,2.3704,2.3604,2.3702,2.4961,2.5756,2.6352,0.0,0.0,0.0,0.0,0.0,0.0,0.0,0.0,0.0,0.0,-1.0336,-1.0072,0.0,0.0,0.0,0.0,0.0,0.0,0.0,0.0,0.0,0.0,0.0,0.0,0.0,0.1447,0.229,0.0,0.0,0.0,0.0,0.0,0.0,0.5268,0.0,0.7377,0.0,0.8496,0.9039,0.9279,0.9894,1.0293,1.0544,0.0,0.0,0.0,0.0,0.0,0.0,0.0,0.0,0.0,1.1788,0.0,1.1763,1.1653,1.17,1.1952,1.2429,0.0,0.0,0.0,0.0,0.0,0.0,0.0,0.0,0.0,0.0,0.0,0.0,0.0,0.0,0.0,0.0,0.0,0.0,0.0,0.0,0.0,0.0,0.0,0.0,0.0,0.0,0.0,0.0,0.0,0.0,0.0,0.0,0.0,0.0,0.0,0.0,0.0,0.0,0.0,1.9101,1.9856,2.122,2.0698,2.0741,2.1249,2.1249,2.1762,2.2607,2.2948,2.3538,2.4231,2.4067,2.3918,2.3918,2.511,2.5839,2.6402,0.0,0.0,-1.0534,-1.0523,0.0,0.0,0.0,0.0,0.0,0.0,-1.0285,-1.0097,0.0,0.0,0.0,0.0,0.0,0.0,0.0,0.0,0.0,0.0,0.0,0.0,0.0,0.0,0.0,0.0,0.0,0.0,0.0,0.0,0.5682,0.6132,0.0,0.8013,0.8513,0.946,0.9797,0.9759,1.0644,1.0956,1.0891,1.0891,0.0,0.0,0.0,0.0,0.0,0.0,0.0,0.0,1.2814,1.2603,1.2282,1.2461,1.265,1.2889,0.0,0.0,0.0,0.0,0.0,0.0,0.0,0.0,0.0,0.0,0.0,0.0,0.0,0.0,0.0,0.0,0.0,0.0,0.0,0.0,0.0,0.0,0.0,0.0,0.0,0.0,0.0,0.0,0.0,0.0,0.0,0.0,0.0,0.0,0.0,0.0,0.0,0.0,0.0,0.0,1.9101,1.942,2.003,2.0698,2.0727,2.0262,2.0302,2.1545,2.346,2.2883,2.3499,2.4758,2.4298,2.4431,2.5011,2.5806,2.6154,2.6501,0.0,0.0,-1.0323,-1.046,0.0,0.0,0.0,0.0,0.0,0.0,0.0,0.0,0.0,0.0,0.0,0.0,0.0,0.0,0.0,0.0,0.0,0.0,0.0,0.0,0.0,0.0,0.0,0.0,0.0,0.0,0.0,0.0,0.0,0.6592,0.0,0.878,0.957,1.006,1.0248,1.0293,1.0889,1.104,1.0829,1.0924,1.1487,0.0,0.0,0.0,0.0,0.0,0.0,0.0,1.2669,1.2685,1.2508,1.2756,1.2685,1.277,0.0,0.0,0.0,0.0,0.0,0.0,0.0,0.0,0.0,0.0,0.0,0.0,0.0,0.0,0.0,0.0,0.0,0.0,0.0,0.0,0.0,0.0,0.0,0.0,0.0,0.0,0.0,0.0,0.0,0.0,0.0,0.0,0.0,0.0,0.0,0.0,0.0,0.0,1.9101,0.0,1.9101,1.9174,1.9348,2.048,2.1247,2.1681,2.2014,2.2702,2.3676,2.3835,2.4032,2.4232,2.4713,2.4249,2.3537,2.4862,2.5706,2.6369,0.0,0.0,0.0,0.0,0.0,0.0,0.0,0.0,0.0,0.0,0.0,0.0,0.0,0.0,0.0,0.0,0.0,0.0,0.0,0.0,-0.3262,-0.2702,0.0,0.0,0.0,0.0,0.0,0.0,0.0,0.0,0.0,0.0,0.0,0.7041,0.0,0.9224,0.9774,1.0036,1.0256,1.0442,1.0962,1.1137,1.1127,1.1406,1.1723,1.195,1.1803,0.0,0.0,0.0,0.0,0.0,0.0,0.0,1.2965,1.3173,1.3138,1.3216,0.0,0.0,0.0,0.0,0.0,0.0,0.0,0.0,0.0,0.0,0.0,0.0,0.0,0.0,0.0,0.0,0.0,0.0,0.0,0.0,0.0,0.0,0.0,0.0,0.0,0.0,0.0,0.0,0.0,0.0,0.0,0.0,0.0,0.0,0.0,0.0,1.9101,1.9139,1.9139,1.9101,1.9176,1.9411,1.9733,2.0045,2.0732,2.1733,2.1814,2.2562,2.3714,2.4143,2.4398,2.4597,2.5342,2.4944,2.41,2.5209,2.5889,2.6319,0.0,0.0,0.0,0.0,0.0,0.0,0.0,0.0,0.0,0.0,0.0,0.0,0.0,0.0,0.0,0.0,0.0,0.0,0.0,-0.3849,-0.2833,-0.2319,0.0,0.0,0.0,0.0,0.0,0.0,0.0,0.0,0.0,0.0,0.0,0.7704,0.0,0.9581,0.9903,1.0069,1.033,1.0622,1.0942,1.1191,1.1402,1.187,1.1908,1.1801,1.2597,1.2801,1.2775,1.3205,0.0,0.0,0.0,0.0,1.3459,1.3648,1.3648,1.3731,0.0,0.0,0.0,0.0,0.0,0.0,0.0,0.0,0.0,0.0,0.0,0.0,0.0,0.0,0.0,0.0,0.0,0.0,0.0,0.0,0.0,0.0,0.0,0.0,0.0,0.0,0.0,0.0,0.0,0.0,0.0,0.0,0.0,0.0,0.0,1.9101,1.9139,1.9228,1.9288,1.9236,1.9398,1.9768,2.0233,1.9626,2.0024,2.1152,2.1077,2.1929,2.3406,2.3863,2.4403,2.4994,2.574,2.564,2.5193,2.5938,2.622,2.6303,0.0,0.0,0.0,0.0,0.0,0.0,0.0,0.0,0.0,0.0,-1.0132,-0.951,0.0,0.0,0.0,0.0,0.0,0.0,-0.5852,0.0,0.0,0.0037,0.0,0.0,0.0,0.0,0.0,0.0,0.0,0.0,0.0,0.0,0.0,0.9147,0.0,0.0,1.1081,1.1092,1.1222,1.135,1.1178,1.1114,1.118,1.166,1.2273,1.2865,1.2836,1.316,1.3574,1.3327,1.32,0.0,0.0,0.0,0.0,1.4059,1.3927,0.0,0.0,0.0,0.0,0.0,0.0,0.0,0.0,0.0,0.0,0.0,0.0,0.0,0.0,0.0,0.0,0.0,0.0,0.0,0.0,0.0,0.0,0.0,0.0,0.0,0.0,0.0,0.0,0.0,0.0,0.0,0.0,0.0,0.0,0.0,0.0,0.0,1.9265,1.9302,1.9457,1.9793,1.9829,1.9777,1.9708,1.9619,1.9938,2.062,2.1234,2.171,2.2128,2.2802,2.3505,2.4216,2.4961,2.5193,2.5193,2.5938,2.622,2.622,0.0,0.0,0.0,0.0,0.0,0.0,0.0,0.0,0.0,0.0,0.0,-1.0059,0.0,0.0,0.0,0.0,0.0,0.0,-0.429,-0.3194,0.0,0.0,0.0,0.0,0.0,0.0,0.0,0.0,0.0,0.0,0.0,0.9767,0.9781,0.0,0.0,0.0,0.0,1.1223,1.1173,1.1484,1.1843,1.1858,1.1747,1.2604,1.3076,1.3304,1.3686,1.3866,1.3954,1.3902,1.3994,1.4128,1.4256,0.0,0.0,0.0,0.0,0.0,0.0,0.0,0.0,0.0,0.0,0.0,0.0,0.0,0.0,0.0,0.0,0.0,0.0,0.0,0.0,0.0,0.0,0.0,0.0,0.0,0.0,0.0,0.0,0.0,0.0,0.0,0.0,0.0,0.0,0.0,0.0,1.9213,1.9228,1.9265,1.9228,0.0,1.9376,1.9413,1.969,2.0054,1.9839,1.9818,1.9925,1.9726,1.9891,2.0349,2.0914,2.151,2.2179,2.2685,2.3089,2.3454,2.4199,2.4481,2.458,2.5309,2.5855,2.622,0.0,0.0,0.0,0.0,0.0,0.0,0.0,0.0,0.0,0.0,0.0,0.0,0.0,0.0,0.0,0.0,0.0,0.0,-0.2981,0.0,0.0,0.0,0.0,0.0,0.0,0.0,0.0,0.0,0.0,0.0,1.1698,1.1707,1.1703,0.0,1.1567,0.0,0.0,0.0,0.0,1.1791,1.2319,1.2444,1.2367,1.3445,1.3784,1.3787,1.4523,1.4684,1.4515,1.4614,1.4814,1.4982,1.4655,1.4669,0.0,0.0,0.0,0.0,0.0,0.0,0.0,0.0,0.0,0.0,0.0,0.0,0.0,0.0,0.0,0.0,0.0,0.0,0.0,0.0,0.0,0.0,0.0,0.0,0.0,0.0,0.0,0.0,0.0,0.0,0.0,0.0,0.0,0.0,0.0,1.9339,1.9339,1.9413,1.9339,1.9376,1.9465,1.9741,2.001,2.0208,2.01,2.0135,2.0345,2.0085,2.0154,2.0481,2.0712,2.131,2.2151,2.2485,2.2725,2.2973,2.3719,2.4116,2.4365,2.511,2.574,2.622,0.0,0.0,0.0,0.0,0.0,0.0,0.0,0.0,0.0,0.0,0.0,0.0,0.0,0.0,0.0,-0.7865,0.0,0.0,0.0,0.0,0.0,0.0,0.0,0.0,0.0,0.0,0.0,0.0,0.0,0.0,1.2554,1.2914,1.3578,1.4363,1.328,1.2524,1.2013,0.0,0.0,0.0,1.2279,1.2351,1.2769,0.0,0.0,0.0,0.0,0.0,1.5579,1.5404,1.5389,1.5448,1.5285,1.5027,1.4744,0.0,0.0,0.0,0.0,0.0,0.0,0.0,0.0,0.0,0.0,0.0,0.0,0.0,0.0,0.0,0.0,0.0,0.0,0.0,0.0,0.0,0.0,0.0,0.0,0.0,0.0,0.0,0.0,0.0,0.0,0.0,0.0,0.0,1.9376,1.9376,1.9413,1.9413,1.9413,1.9465,1.9574,2.0357,2.0545,2.0208,2.0909,2.1055,2.0761,2.0761,2.0925,2.1214,2.0925,2.1006,2.1374,2.1727,2.2261,2.2973,2.3719,2.4431,2.5143,2.5889,2.6187,2.622,0.0,0.0,0.0,0.0,0.0,0.0,0.0,0.0,0.0,0.0,0.0,0.0,0.0,0.0,-0.9805,-0.9103,-0.5766,0.0,0.0,0.0,0.0,0.0,0.0,0.0,0.0,0.0,0.0,0.0,0.0,1.2787,1.2987,1.3351,1.3255,1.2803,1.2799,1.3078,1.3558,1.2765,0.0,0.0,1.3461,1.3627,1.3531,0.0,0.0,0.0,0.0,0.0,0.0,1.5536,1.5551,1.5712,1.5389,1.5082,1.47,0.0,0.0,0.0,0.0,0.0,0.0,0.0,0.0,0.0,0.0,0.0,0.0,0.0,0.0,0.0,0.0,0.0,0.0,0.0,0.0,0.0,0.0,0.0,0.0,0.0,0.0,0.0,0.0,0.0,0.0,0.0,0.0,0.0,1.9538,1.9538,1.956,1.9581,1.956,1.9669,1.9995,2.0258,2.0597,2.0909,2.0958,2.1023,2.1119,2.0893,2.099,2.1277,2.1183,2.1309,2.1648,2.1768,2.1947,2.2212,2.2477,2.3321,2.4365,2.4166,2.4978,2.6137,0.0,0.0,0.0,0.0,0.0,-0.8117,0.0,0.0,0.0,0.0,0.0,0.0,0.0,0.0,-1.0761,-0.8633,-0.445,-0.1432,-0.0263,0.2089,0.0,0.0,0.0,0.0,0.0,0.0,0.0,0.0,0.0,0.0,0.0,1.3692,1.3319,1.2487,1.2675,1.3162,0.0,0.0,0.0,1.3075,0.0,1.4315,1.4306,0.0,0.0,0.0,0.0,0.0,0.0,0.0,0.0,0.0,0.0,0.0,0.0,0.0,0.0,0.0,0.0,0.0,0.0,0.0,0.0,0.0,0.0,0.0,0.0,0.0,0.0,0.0,0.0,0.0,0.0,0.0,0.0,0.0,0.0,0.0,0.0,0.0,0.0,0.0,0.0,0.0,0.0,0.0,0.0,0.0,1.9647,1.9632,1.9669,1.969,1.9669,1.9833,2.0208,2.0311,2.0697,2.1309,2.1166,2.1261,2.1464,2.123,2.1277,2.1464,2.1464,2.1587,2.1797,2.1797,2.1797,2.1814,2.2062,2.2758,2.3603,2.3354,2.4365,2.5773,0.0,-0.6912,-0.7241,-0.7106,-0.7206,-0.7404,0.0,0.0,0.0,0.0,0.0,0.0,0.0,0.0,0.0,-0.5996,-0.2688,-0.0131,0.1614,0.4371,0.0,0.0,0.0,0.0,0.0,0.0,0.0,0.0,0.0,0.0,0.0,0.0,1.3934,1.3755,1.3071,1.2716,1.2588,0.0,1.3055,1.381,0.0,1.4313,1.5061,0.0,0.0,0.0,1.5827,1.587,0.0,0.0,0.0,0.0,0.0,0.0,0.0,0.0,0.0,0.0,0.0,0.0,0.0,0.0,0.0,0.0,0.0,0.0,0.0,0.0,0.0,0.0,0.0,0.0,0.0,0.0,0.0,0.0,0.0,0.0,0.0,0.0,0.0,0.0,0.0,0.0,0.0,0.0,0.0,1.9647,1.969,1.969,1.969,1.969,1.9726,1.9889,2.0208,2.0613,2.099,2.1309,2.1631,2.1797,2.1797,2.1797,2.1797,2.1797,2.1797,2.1797,2.1797,2.1797,2.1797,2.1864,2.2576,2.2874,2.299,2.3702,2.4448,2.511,-0.6471,-0.6507,-0.6688,-0.6793,-0.7044,-0.7133,0.0,0.0,0.0,0.0,0.0,0.0,0.0,0.0,0.0,0.0947,0.3065,0.4207,0.4599,0.7366,0.9507,1.0695,0.0,0.0,0.0,0.0,0.0,0.0,0.0,0.0,0.0,0.0,0.0,0.0,1.2441,1.2286,1.2536,1.2536,0.0,0.0,1.4031,1.4649,0.0,0.0,0.0,0.0,0.0,1.5885,0.0,0.0,1.5799,1.5662,0.0,0.0,0.0,0.0,0.0,0.0,1.3989,0.0,0.0,0.0,0.0,0.0,0.0,0.0,0.0,0.0,0.0,0.0,0.0,0.0,0.0,0.0,0.0,0.0,0.0,0.0,0.0,0.0,0.0,0.0,0.0,0.0,0.0,0.0,0.0,1.969,1.969,1.969,1.969,1.969,1.9945,2.0258,2.0646,2.0974,2.134,2.1661,2.1768,2.1797,2.1797,2.1797,2.1797,2.1797,2.1797,2.1797,2.1797,2.1797,2.1797,2.1814,2.2013,2.2427,2.2924,2.3123,2.4017,2.511,-0.646,-0.6475,-0.6559,-0.6672,-0.6568,-0.6451,0.0,0.0,0.0,0.0,0.0,0.0,0.0,0.0,0.0,0.4955,0.6664,0.7601,0.8002,1.0039,1.1664,0.0,0.0,0.0,0.0,0.0,0.0,0.0,0.0,0.0,0.0,0.0,0.0,0.0,1.2375,1.2363,0.0,0.0,0.0,0.0,1.4749,0.0,0.0,1.6053,1.6095,0.0,0.0,0.0,1.59,1.5827,1.5799,0.0,0.0,0.0,0.0,0.0,0.0,0.0,0.0,0.0,0.0,0.0,0.0,0.0,1.6261,1.6847,0.0,0.0,0.0,0.0,0.0,0.0,0.0,0.0,0.0,0.0,0.0,0.0,0.0,0.0,0.0,0.0,0.0,0.0,0.0,0.0,1.969,1.9747,1.9909,1.9925,1.9995,2.017,2.0361,2.063,2.099,2.1183,2.1464,2.1797,2.1797,2.1797,2.1797,2.1797,2.1797,2.1797,2.1797,2.1797,2.1797,2.1797,2.1797,2.1797,2.1797,2.2046,2.2477,2.2791,2.3636,2.4696,0.0,-0.647,-0.6517,-0.6507,-0.58,0.0,0.0,0.0,0.0,0.0,0.0,0.0,0.0,0.0,0.0,0.0,0.921,1.0475,1.1354,1.2439,0.0,0.0,0.0,0.0,0.0,0.0,0.0,0.0,0.0,0.0,0.0,0.0,0.0,0.0,1.2703,1.2764,0.0,0.0,0.0,1.5147,1.5697,1.6298,0.0,0.0,1.6328,0.0,1.5983,1.5942,1.597,1.5913,1.5885,0.0,0.0,0.0,0.0,0.0,1.4278,0.0,0.0,0.0,0.0,0.0,0.0,0.0,1.616,1.6542,1.6803,0.0,0.0,0.0,0.0,0.0,0.0,0.0,0.0,0.0,0.0,0.0,0.0,0.0,0.0,0.0,0.0,0.0,0.0,1.969,1.969,1.9854,2.0174,2.0208,2.0379,2.0794,2.0827,2.099,2.1309,2.134,2.1495,2.1797,2.1797,2.1797,2.1797,2.1797,2.1797,2.1797,2.1797,2.1797,2.1797,2.1797,2.1797,2.1797,2.1797,2.1797,2.1897,2.2725,2.3437,2.4116,-0.5908,-0.5631,-0.5341,-0.5214,0.0,0.0,0.0,0.0,0.0,0.0,0.0,0.0,0.0,0.0,0.0,0.0,0.0,1.3794,1.3454,0.0,0.0,0.0,0.0,0.0,0.0,0.0,0.0,0.0,0.0,0.0,0.0,0.0,0.0,0.0,1.3274,1.3195,0.0,0.0,0.0,1.6263,1.6114,0.0,1.7093,1.6686,1.6543,1.6543,1.6463,1.6463,1.6463,0.0,1.6436,1.6338,0.0,0.0,0.0,0.0,0.0,0.0,0.0,0.0,0.0,0.0,0.0,0.0,1.6322,1.698,1.7423,0.0,0.0,0.0,0.0,0.0,0.0,0.0,0.0,0.0,0.0,0.0,0.0,0.0,0.0,0.0,0.0,0.0,0.0,1.969,1.969,1.9854,2.0174,2.0208,2.0379,2.0794,2.1055,2.1214,2.1309,2.1587,2.1738,2.1797,2.1797,2.1797,2.1797,2.1797,2.1797,2.1797,2.1797,2.1797,2.1797,2.1797,2.1797,2.1797,2.1797,2.1797,2.1947,2.3288,2.3884,2.4199,-0.437,-0.4018,-0.3752,-0.3578,0.0,0.0,0.0,0.0,0.0,0.0,0.0,0.0,0.0,0.0,0.0,0.0,0.0,0.0,0.0,0.0,0.0,0.0,0.0,0.0,0.0,0.0,0.0,0.0,0.0,0.0,0.0,0.0,0.0,0.0,0.0,0.0,0.0,0.0,1.6172,1.6622,1.6752,0.0,1.7305,1.6942,1.6789,1.6789,1.6649,1.6596,1.6596,1.6596,1.6596,0.0,0.0,1.6095,1.6057,0.0,1.595,1.6095,0.0,0.0,0.0,1.6486,0.0,0.0,0.0,1.6955,0.0,0.0,0.0,0.0,0.0,0.0,0.0,0.0,0.0,0.0,0.0,0.0,0.0,0.0,0.0,0.0,0.0,0.0,2.0015,2.0239,2.0239,2.0395,2.073,2.0763,2.0926,2.1293,2.1448,2.1556,2.1556,2.1738,2.1797,2.1797,2.1797,2.1797,2.1797,2.1797,2.1797,2.1797,2.1797,2.1797,2.1797,2.1797,2.1797,2.1797,2.1797,2.1797,2.1963,2.3454,2.4,2.4216,-0.2737,-0.2473,-0.2295,-0.2119,0.0,0.0,0.0,0.0,0.0,0.0,0.0,0.0,0.0,0.0,0.0,0.0,0.0,0.0,0.0,0.0,0.0,0.0,0.0,1.7597,0.0,0.0,0.0,0.0,0.0,0.0,0.0,0.0,0.0,0.0,0.0,0.0,0.0,0.0,0.0,1.6814,0.0,1.7489,1.7465,1.7191,1.7093,1.7084,1.6857,1.6779,1.6779,1.6779,0.0,1.6779,1.6779,1.6882,0.0,0.0,0.0,0.0,0.0,0.0,0.0,0.0,0.0,1.6738,0.0,0.0,0.0,0.0,0.0,0.0,0.0,0.0,0.0,0.0,0.0,0.0,0.0,0.0,0.0,0.0,0.0,0.0,0.0,0.0,0.0,2.0794,2.0794,2.0958,2.1277,2.1309,2.1464,2.1797,2.1797,2.1797,2.1797,2.1797,2.1797,2.1797,2.1797,2.1797,2.1797,2.1797,2.1797,2.1797,2.1797,2.1797,2.1797,2.1797,2.1797,2.1797,2.1797,2.1797,2.1963,2.3454,2.4,2.4216,-0.1864,-0.182,-0.1643,-0.1379,0.0,0.0,0.0,0.0,0.0,0.0,0.0,0.0,0.0,0.0,0.0,0.0,0.0,0.0,1.7652,0.0,0.0,0.0,0.0,0.0,1.7967,0.0,0.0,0.0,0.0,0.0,0.0,0.0,0.0,0.0,1.3514,0.0,0.0,0.0,1.5054,0.0,1.7472,1.7505,0.0,1.7465,1.7458,1.7451,1.7403,1.7403,1.7403,0.0,1.7403,1.7403,0.0,1.7224,0.0,0.0,0.0,0.0,0.0,0.0,0.0,0.0,1.6993,0.0,0.0,0.0,0.0,0.0,0.0,0.0,0.0,0.0,0.0,0.0,0.0,0.0,0.0,0.0,0.0,0.0,0.0,0.0,0.0,0.0,0.0,2.0794,2.0794,2.0958,2.1277,2.1309,2.1464,2.1797,2.1797,2.1797,2.1797,2.1797,2.1797,2.1797,2.1797,2.1797,2.1797,2.1797,2.1797,2.1797,2.1797,2.1797,2.1797,2.1797,2.1797,2.1797,2.1797,2.1797,2.1963,2.3454,2.4,2.4232,0.0223,0.0311,0.0753,0.1669,0.0,0.0,0.0,0.0,0.0,0.0,0.0,0.0,0.0,0.0,0.0,0.0,0.0,0.0,0.0,0.0,0.0,0.0,0.0,0.0,0.0,0.0,0.0,0.0,1.7715,0.0,0.0,0.0,0.0,0.0,1.4819,0.0,1.5342,0.0,0.0,0.0,0.0,0.0,0.0,1.7498,1.7498,1.7515,1.7515,1.7515,1.7515,0.0,1.7515,0.0,0.0,0.0,0.0,0.0,0.0,0.0,0.0,0.0,0.0,0.0,0.0,0.0,0.0,0.0,1.7673,0.0,0.0,0.0,0.0,0.0,0.0,0.0,0.0,0.0,0.0,0.0,0.0,0.0,0.0,0.0,0.0,0.0,0.0,0.0,0.0,2.1448,2.1587,2.1587,2.1631,2.1797,2.1797,2.1797,2.1797,2.1797,2.1797,2.1797,2.1797,2.1797,2.1797,2.1797,2.1797,2.1797,2.1797,2.1797,2.1797,2.1797,2.1797,2.1797,2.1797,2.1797,2.1993,2.3518,2.4161,2.4568,0.2576,0.2315,0.0,0.0,0.0,0.0,0.0,0.0,0.0,0.0,0.0,0.0,1.9317,1.9852,0.0,0.0,0.0,1.8526,0.0,0.0,1.8358,0.0,0.0,0.0,0.0,0.0,0.0,0.0,1.7997,0.0,0.0,0.0,0.0,0.0,0.0,1.5728,1.5318,0.0,0.0,1.7505,1.7505,1.7498,1.7515,1.7515,1.7515,1.7515,1.7515,1.7515,1.7515,1.7515,1.7515,0.0,1.7515,0.0,0.0,0.0,0.0,0.0,1.7515,0.0,0.0,0.0,0.0,0.0,0.0,0.0,0.0,0.0,0.0,0.0,0.0,0.0,0.0,0.0,0.0,0.0,0.0,0.0,0.0,0.0,0.0,0.0,0.0,0.0,0.0,0.0,2.1681,0.0,2.1797,2.1797,2.1797,2.1797,2.1797,2.1797,2.1797,2.1797,2.1797,2.1797,2.1797,2.1797,2.1797,2.1797,2.1797,2.1797,2.1797,2.1797,2.1797,2.1797,2.1797,2.1797,2.1797,2.1943,2.2305,2.3616,2.4303,2.4812,0.5024,0.3527,0.0,0.0,0.0,0.0,0.0,0.0,0.0,0.0,0.0,0.0,0.0,0.0,0.0,0.0,0.0,1.7181,1.7881,0.0,1.7396,0.0,0.0,0.0,0.0,0.0,0.0,1.8485,1.8211,1.8073,0.0,0.0,0.0,0.0,0.0,1.5607,1.7355,1.5213,1.5536,1.7515,1.7515,1.7515,1.7515,0.0,1.7515,1.7515,1.7515,0.0,0.0,1.7515,1.7515,0.0,0.0,0.0,0.0,0.0,0.0,0.0,0.0,0.0,0.0,0.0,0.0,0.0,0.0,0.0,1.7673,0.0,0.0,0.0,0.0,0.0,0.0,0.0,0.0,0.0,0.0,0.0,0.0,0.0,0.0,0.0,0.0,0.0,0.0,0.0,2.1383,0.0,2.1797,2.1797,2.1797,2.1797,2.1797,2.1797,2.1797,2.1797,2.1797,2.1797,2.1797,2.1797,2.1797,2.1797,2.1797,2.1797,2.1797,2.1797,2.1797,2.1797,2.1797,2.1797,2.1797,2.2288,2.3065,2.3831,2.4303,2.4889,0.6241,0.0,0.0,0.0,0.0,0.0,0.0,1.4144,0.0,0.0,0.0,0.0,0.0,0.0,1.9066,0.0,0.0,1.7809,1.8017,1.7999,0.0,0.0,0.0,1.8877,0.0,0.0,0.0,1.8695,1.8287,1.8266,0.0,0.0,0.0,0.0,0.0,1.6903,0.0,0.0,0.0,0.0,0.0,1.7515,1.7515,0.0,0.0,1.7515,1.7515,1.7515,0.0,1.7515,1.7515,1.7515,1.7515,1.7515,1.7598,1.8038,1.7839,0.0,0.0,0.0,1.7256,1.7606,0.0,0.0,0.0,0.0,0.0,0.0,0.0,0.0,0.0,0.0,0.0,0.0,0.0,0.0,0.0,0.0,0.0,0.0,0.0,0.0,0.0,0.0,0.0,2.14,2.123,0.0,0.0,2.1797,2.1797,2.1797,2.1797,2.1797,2.1797,2.1797,2.1797,2.1797,2.1797,2.1797,2.1797,2.1797,2.1811,2.1869,2.1869,2.1899,2.194,2.194,2.194,2.1991,2.2721,2.3146,2.3498,2.4215,2.5065,2.6028,0.7563,0.0,0.0,0.0,0.0,0.0,0.0,0.0,0.0,0.0,1.8516,0.0,1.9564,0.0,1.9081,0.0,1.8354,1.8153,1.8013,1.8118,0.0,1.8261,1.8571,0.0,0.0,0.0,0.0,1.862,1.8408,1.8426,1.862,0.0,0.0,0.0,0.0,0.0,0.0,0.0,1.7515,0.0,0.0,1.7515,0.0,0.0,1.7515,0.0,0.0,1.7515,1.7515,1.7515,1.7515,1.7515,1.7515,1.7657,1.7938,1.836,1.8385,1.8286,1.8443,1.802,0.0,0.0,1.7559,0.0,0.0,0.0,0.0,0.0,0.0,0.0,0.0,0.0,0.0,0.0,0.0,0.0,0.0,2.1315,0.0,0.0,0.0,0.0,0.0,0.0,2.1133,2.0655,2.0931,2.1197,0.0,0.0,2.1797,2.1797,2.1797,2.1797,2.1797,2.1797,2.1797,2.1797,2.1797,2.1797,2.1797,2.1797,2.184,2.1899,2.1899,2.194,2.1998,2.1998,2.1998,2.2061,2.2858,2.3556,2.415,2.5005,2.6039,2.7144,0.9088,0.0,0.0,0.0,1.2672,0.0,0.0,0.0,1.7738,0.0,1.9061,1.9226,1.9554,1.9333,1.9054,1.873,1.8445,0.0,1.7839,1.7811,0.0,0.0,1.7861,1.7905,1.7905,0.0,0.0,0.0,1.8566,1.8566,1.833,0.0,0.0,0.0,1.7726,0.0,1.7489,1.7522,1.7498,1.7515,1.7515,1.7515,1.7515,1.7515,0.0,1.7515,1.7515,1.7515,1.7515,1.7515,1.7515,1.7515,1.7515,1.7955,1.8493,1.8542,1.9038,1.9452,1.8774,1.8575,1.8402,1.778,0.0,0.0,0.0,0.0,1.8961,0.0,0.0,0.0,0.0,0.0,0.0,0.0,0.0,0.0,0.0,0.0,0.0,0.0,0.0,0.0,0.0,2.1011,2.1298,1.8834,2.0639,0.0,0.0,0.0,0.0,2.1797,2.1797,2.1797,2.1797,2.1797,2.1797,2.1797,2.1797,2.1797,2.1797,2.1781,2.184,2.1928,2.1928,2.194,2.2027,2.2027,2.2027,2.2084,2.2364,2.3543,2.5149,2.6131,2.7179,2.8156,0.9817,1.1561,1.3006,0.0,1.4201,1.5381,0.0,0.0,0.0,0.0,1.9198,1.9315,1.9311,1.906,1.8856,1.8717,1.8457,0.0,0.0,0.0,0.0,1.7811,1.8014,1.804,1.7905,1.8166,0.0,1.8528,0.0,0.0,1.8735,0.0,0.0,0.0,0.0,0.0,1.7522,1.7669,1.7622,1.7515,1.7515,1.7515,0.0,0.0,1.7515,1.7515,1.7515,1.7515,1.7515,1.7515,1.7515,1.7515,1.7515,1.7955,1.8608,1.9154,1.9452,1.9667,2.0042,1.9744,1.9323,1.937,1.937,1.9419,0.0,0.0,0.0,0.0,0.0,0.0,0.0,0.0,0.0,0.0,0.0,0.0,0.0,0.0,0.0,0.0,0.0,0.0,0.0,0.0,2.1223,2.0559,2.0995,0.0,0.0,0.0,0.0,2.1827,2.1797,2.1797,2.1797,2.1797,2.1797,2.1797,2.1797,2.1797,2.1797,2.184,2.1911,2.1969,2.2077,2.2152,2.2237,2.2237,2.2332,2.2613,2.3467,2.5014,2.6841,2.7433,2.7996,2.8492,1.055,0.0,0.0,1.5111,0.0,0.0,1.778,0.0,0.0,1.9271,1.9424,0.0,1.9376,1.9243,1.9046,1.8771,1.8717,0.0,0.0,0.0,0.0,1.8569,1.8559,1.8511,1.8376,1.8603,0.0,1.8373,0.0,0.0,1.8734,0.0,0.0,0.0,0.0,1.7743,0.0,1.7622,1.7599,1.7531,1.7806,0.0,0.0,1.8303,1.8419,1.8385,1.8054,1.7938,1.7988,1.8303,1.8203,1.8012,1.8492,1.8884,1.9379,2.022,2.0711,2.0981,2.1066,2.0795,2.0433,2.0245,2.0226,2.0281,2.0518,2.0831,2.1034,0.0,0.0,0.0,0.0,0.0,0.0,0.0,0.0,0.0,0.0,0.0,0.0,0.0,0.0,0.0,0.0,0.0,0.0,0.0,0.0,0.0,0.0,0.0,0.0,0.0,2.1998,2.2056,2.2044,2.2027,2.2027,2.2044,2.2027,2.2039,2.2068,2.222,2.2313,2.2395,2.2381,2.2405,2.2487,2.2487,2.2767,2.3379,2.4883,2.6054,2.6995,2.7965,2.8422,2.8587,0.0,0.0,0.0,0.0,0.0,0.0,0.0,1.8773,0.0,1.9726,0.0,1.9599,1.9601,1.9611,1.9402,0.0,0.0,1.9018,1.8563,1.831,1.853,1.9418,1.9085,1.8869,1.8846,1.9035,0.0,0.0,0.0,0.0,0.0,0.0,0.0,0.0,0.0,0.0,0.0,1.7545,1.7572,0.0,1.8286,1.8559,1.8708,1.9353,1.9601,1.9518,1.9024,1.8759,1.8724,1.927,1.9114,1.8885,1.9816,2.0187,2.0483,2.1342,2.2116,2.2548,2.1909,2.1737,2.1606,2.0956,2.0783,2.0854,2.1083,2.1678,2.2,2.1401,2.1911,0.0,0.0,0.0,0.0,0.0,0.0,0.0,0.0,0.0,0.0,0.0,0.0,0.0,0.0,0.0,0.0,0.0,0.0,0.0,0.0,0.0,0.0,0.0,2.2286,0.0,2.2463,0.0,2.2375,2.2463,2.2375,2.2368,2.2476,2.2695,2.2848,2.2898,2.2721,2.2694,2.2747,2.2747,2.3197,2.4059,2.6116,2.6608,2.6403,2.8015,2.8587,2.8587,0.0,0.0,0.0,0.0,0.0,1.8622,1.923,1.9346,1.9472,1.9768,1.9735,0.0,1.9611,1.9597,1.9464,1.915,1.9168,0.0,0.0,0.0,0.0,1.8678,1.8419,1.8185,1.7997,1.8207,1.8249,0.0,0.0,0.0,0.0,0.0,0.0,0.0,0.0,0.0,1.798,1.7816,0.0,1.8352,1.8443,1.8856,1.9419,1.9551,1.9601,1.9677,2.0394,2.0097,1.932,1.884,1.9185,1.9849,2.0035,2.067,2.1376,2.1547,2.2116,2.2669,2.2531,2.2496,2.2479,2.2367,2.2289,2.2332,2.2366,2.2487,2.2641,2.277,2.2289,2.2089,2.2912,0.0,0.0,0.0,0.0,0.0,0.0,0.0,0.0,0.0,0.0,0.0,0.0,0.0,0.0,0.0,0.0,0.0,0.0,0.0,0.0,0.0,0.0,0.0,0.0,0.0,0.0,2.2738,2.2485,2.2485,2.2746,2.2848,2.2898,2.2898,2.2975,2.3035,2.3035,2.3035,2.3228,2.375,2.5607,2.6266,2.6403,2.8015,2.8587,2.8587,0.0,0.0,0.0,0.0,0.0,0.0,0.0,1.9713,0.0,1.9935,1.9838,1.9738,1.9668,1.9564,1.9405,1.9219,1.9153,1.9001,1.8806,1.8601,1.8737,1.9261,1.9026,0.0,1.9364,0.0,1.9178,1.8868,0.0,0.0,0.0,0.0,0.0,0.0,0.0,1.8224,0.0,0.0,0.0,1.9088,1.9495,1.986,2.0207,2.0605,2.0737,2.0688,2.0411,2.0348,2.0341,2.0128,2.0086,2.0212,2.0835,2.1392,2.1912,2.2435,2.2845,2.3109,2.3109,2.3109,2.3109,2.3109,2.3109,2.3109,2.3109,2.3109,2.3182,2.3394,2.3074,2.2954,2.3674,2.3485,0.0,0.0,0.0,0.0,0.0,0.0,0.0,0.0,0.0,0.0,0.0,0.0,0.0,0.0,0.0,0.0,0.0,0.0,0.0,0.0,0.0,0.0,0.0,0.0,0.0,2.3105,2.2965,2.2972,2.317,2.33,2.3369,2.3387,2.3738,2.3892,2.3903,2.4335,2.4177,2.3884,2.5995,2.6584,2.6403,2.8015,2.8587,2.8587,0.0,1.6463,0.0,0.0,1.8898,0.0,0.0,1.9935,2.006,2.006,1.9885,1.9744,1.9682,1.9518,1.9344,1.92,1.9087,1.8949,1.8806,1.8657,1.8903,1.9716,1.9702,1.9885,2.0301,2.0373,2.0119,0.0,0.0,0.0,0.0,0.0,0.0,0.0,0.0,0.0,0.0,0.0,1.8891,1.9435,2.034,2.0605,2.0539,2.1284,2.1479,2.1254,2.016,2.0168,2.0747,2.1081,2.0756,2.0401,2.1354,2.1726,2.1958,2.2776,2.3102,2.3249,2.3249,2.3374,2.3494,2.3494,2.3494,2.3494,2.3494,2.3517,2.3562,2.3678,2.3721,2.3747,2.3795,2.3324,0.0,0.0,0.0,0.0,0.0,0.0,0.0,0.0,0.0,0.0,0.0,0.0,0.0,0.0,0.0,0.0,0.0,0.0,0.0,0.0,0.0,0.0,2.3486,0.0,2.3405,0.0,2.3405,2.3427,2.3553,2.3732,2.3795,2.3831,2.4433,2.4771,2.4986,2.5613,2.5265,2.452,2.6602,2.7019,2.6638,2.8062,2.8587,2.8587,0.0,0.0,0.0,0.0,0.0,0.0,0.0,1.999,1.9928,1.9928,1.9797,1.9682,1.9625,1.9479,1.9344,1.92,1.9087,1.8949,1.8806,1.8788,1.8805,1.8895,1.959,1.9564,1.8733,1.9829,2.0027,0.0,0.0,0.0,0.0,0.0,0.0,0.0,0.0,0.0,0.0,1.8593,1.8767,1.8724,2.0125,2.029,1.9766,2.0522,2.0555,2.0187,2.0291,1.9917,1.947,1.9959,2.0365,2.066,2.0793,2.0986,2.1212,2.1304,2.1839,2.241,2.241,2.2946,2.3494,2.3494,2.3494,2.3494,2.3494,2.3539,2.3607,2.3678,2.3768,2.3795,2.3795,2.3741,2.3723,0.0,0.0,0.0,0.0,0.0,0.0,0.0,0.0,0.0,0.0,0.0,0.0,0.0,0.0,0.0,0.0,0.0,0.0,0.0,0.0,2.3774,2.3753,2.3576,0.0,2.3753,2.3576,2.3598,2.3774,2.3795,2.3795,2.3831,2.4625,2.5384,2.6049,2.6121,2.609,2.6077,2.7037,2.7363,2.7399,2.8286,2.8587,2.8587,0.0,0.0,0.0,0.0,0.0,0.0,0.0,2.0003,1.9843,1.9843,1.9707,1.9606,1.9497,1.9295,1.915,1.9086,1.8878,1.877,1.8788,1.8788,1.8788,1.8788,1.9109,1.9321,1.9404,1.9578,1.9606,0.0,0.0,0.0,0.0,0.0,0.0,0.0,0.0,1.854,1.8458,1.86,1.8859,1.9204,1.981,1.9876,1.9661,2.0114,2.0178,1.9984,1.975,1.9589,1.9408,1.9177,1.9532,2.0069,2.023,2.0652,2.1108,2.1108,2.1322,2.1679,2.2161,2.2517,2.291,2.3392,2.3494,2.3494,2.3494,2.3517,2.3585,2.3678,2.375,2.3795,2.3795,2.3795,2.3795,0.0,0.0,0.0,0.0,0.0,0.0,0.0,0.0,0.0,0.0,0.0,0.0,0.0,0.0,0.0,0.0,0.0,0.0,2.3777,0.0,2.3795,2.3795,2.371,2.371,2.3795,2.371,2.371,2.3795,2.3795,2.432,2.5262,2.5588,2.6186,2.6928,2.6928,2.6638,2.6276,2.7091,2.7417,2.7508,2.8297,2.8587,2.8587,1.827,0.0,1.9219,0.0,2.0011,2.003,2.0197,1.9974,1.9797,1.9762,1.9641,1.9512,1.936,1.9134,1.8983,1.8914,1.8697,1.8622,1.8733,1.8733,1.8769,1.8788,1.8983,0.0,1.9645,1.9629,1.9603,1.9608,1.9978,0.0,0.0,0.0,0.0,0.0,1.9039,1.8728,1.8676,1.8633,1.8801,1.9092,1.9445,1.9336,1.9041,1.9496,1.9578,1.9403,1.9107,1.915,1.9301,1.8757,1.8935,1.9396,1.9589,2.0002,2.043,2.043,2.059,2.0894,2.1465,2.1768,2.2071,2.266,2.2981,2.316,2.316,2.3338,2.3562,2.37,2.3768,2.3795,2.3795,2.3795,2.3795,0.0,0.0,0.0,0.0,0.0,0.0,0.0,0.0,2.3764,2.3881,0.0,0.0,0.0,0.0,0.0,0.0,0.0,0.0,0.0,0.0,0.0,0.0,0.0,2.3795,2.3795,2.3795,2.3795,2.3795,2.4031,2.49,2.6222,2.6457,2.7019,2.7737,2.7737,2.7435,2.6964,2.7544,2.7737,2.7809,2.837,2.8587,2.8587,1.861,1.933,1.998,2.0325,2.0397,2.0297,2.005,1.9888,1.9743,1.9606,1.9546,1.9424,1.9216,1.9069,1.8914,1.8715,1.8582,1.8544,1.8603,1.8604,1.8659,0.0,0.0,1.9477,1.8823,1.9973,2.0266,1.9598,0.0,0.0,2.0355,0.0,0.0,1.9559,1.8818,1.8348,1.8138,1.8659,1.8481,1.7918,1.9125,1.8783,1.7638,1.8555,1.8592,1.8166,1.8406,1.8638,1.8806,1.8788,1.8788,1.8806,1.8806,1.8806,1.8823,1.8823,1.9395,2.0019,2.0019,2.0555,2.1126,2.1126,2.1732,2.2303,2.2303,2.2972,2.3629,2.3783,2.381,2.3795,2.3795,2.3795,2.3795,2.3795,0.0,0.0,0.0,0.0,0.0,0.0,2.3864,2.3646,2.4062,0.0,0.0,0.0,0.0,0.0,0.0,0.0,0.0,2.3777,2.3795,0.0,2.3795,2.3795,2.3795,2.3795,2.3795,2.3795,2.3831,2.461,2.5425,2.624,2.7055,2.7852,2.8587,2.8587,2.8569,2.8569,2.8569,2.8587,2.8587,2.8587,2.8587,2.8587,1.9639,1.9933,2.0277,2.0377,2.0312,2.0199,2.0031,1.9851,1.9876,2.0308,1.9651,1.9317,1.9705,1.9219,1.8771,0.0,1.8448,1.8408,0.0,1.8544,1.8544,1.8582,1.881,1.881,1.86,1.888,1.8937,1.8714,0.0,0.0,0.0,1.9998,1.9587,1.9594,1.916,1.8654,1.8107,1.828,1.8224,1.8031,1.8255,1.8194,1.7949,1.8232,1.8353,1.8408,1.862,1.8751,1.8788,1.8788,1.8788,1.8788,1.8788,1.8788,1.8788,1.8788,1.8966,1.9306,1.9859,2.0162,2.0466,2.0965,2.1697,2.2285,2.2285,2.2972,2.3629,2.37,2.3765,2.3789,2.3795,2.3795,2.3795,2.3795,0.0,0.0,0.0,0.0,0.0,0.0,2.4026,2.3916,0.0,2.3662,0.0,0.0,0.0,0.0,0.0,0.0,0.0,0.0,2.3795,0.0,2.3795,2.3795,2.3795,2.3795,2.3795,2.3795,2.385,2.5208,2.5968,2.624,2.7055,2.787,2.8587,2.8587,2.8587,2.8587,2.8587,2.8587,2.8587,2.8587,2.8587,2.8587,2.0057,2.0211,2.0389,2.0377,2.0228,2.0076,1.9899,1.967,1.9639,2.001,1.9406,1.9058,1.9409,1.8924,0.0,1.8287,1.8263,0.0,1.8307,1.8388,1.8445,1.8485,1.8465,1.8445,1.8485,0.0,0.0,1.841,1.9303,2.0078,2.068,2.0038,1.9747,1.9714,1.9251,1.8787,1.8371,1.8273,1.8232,1.8232,1.7997,1.798,1.8111,1.8211,1.8351,1.8542,1.8732,1.8788,1.8788,1.8788,1.8788,1.8788,1.8788,1.8788,1.8788,1.8788,1.8788,1.8895,1.9413,1.9556,1.9663,2.0127,2.1054,2.2,2.2607,2.3205,2.3607,2.3678,2.3743,2.3807,2.3795,2.3858,2.3919,2.3919,0.0,0.0,0.0,0.0,0.0,0.0,0.0,0.0,0.0,2.3919,0.0,0.0,0.0,0.0,0.0,0.0,0.0,2.3795,2.3795,0.0,2.3795,2.3795,2.394,2.4248,2.4556,2.4538,2.4302,2.5914,2.6656,2.6711,2.7508,2.8135,2.8587,2.8587,2.8587,2.8587,2.8587,2.8587,2.8587,2.8587,2.8587,2.8587,1.9977,2.023,0.0,0.0,2.0141,0.0,1.9731,1.9425,1.9172,1.9104,1.8914,1.8715,1.8575,1.8342,1.8082,1.7905,0.0,0.0,0.0,1.8187,1.8348,1.8465,1.8348,0.0,1.8483,1.8465,1.8506,1.8585,1.948,1.9912,1.9912,1.9912,1.9912,1.9877,1.9145,1.8788,1.8788,1.86,1.8505,1.8505,1.8232,1.8132,1.8173,1.8408,1.8505,1.8561,1.8732,1.8788,1.8788,1.8788,1.8788,1.8788,1.8788,1.8788,1.8788,1.8788,1.8788,1.8788,1.8788,1.8788,1.8806,1.8859,2.0037,2.159,2.3137,2.3539,2.3607,2.3678,2.3743,2.3807,2.3795,2.3961,2.4116,2.4116,2.4284,2.4493,2.4657,0.0,0.0,0.0,0.0,0.0,0.0,2.4097,2.4001,0.0,0.0,0.0,0.0,0.0,0.0,2.3852,2.3795,2.3795,2.3795,2.385,2.4284,2.5099,2.5896,2.586,2.5135,2.6765,2.7453,2.7453,2.8243,2.8587,2.8587,2.8587,2.8587,2.8587,2.8587,2.8587,2.8587,2.8587,2.8587,2.8587,0.0,0.0,2.0186,2.0222,2.0052,1.9871,1.9726,1.9425,1.9392,1.9936,1.9164,1.8735,1.9133,1.8448,1.7883,1.7681,1.7839,1.8009,1.8134,1.8215,1.8236,1.8277,1.8095,1.8074,1.8256,1.8184,1.8273,1.8585,1.8929,1.9092,1.9092,1.9092,1.9092,1.9092,1.8877,1.8788,1.8788,1.8751,1.8732,1.8714,1.8487,1.8487,1.8622,1.8524,1.86,1.8732,1.8788,1.8788,1.8788,1.8788,1.8788,1.8788,1.8788,1.8788,1.8788,1.8788,1.8788,1.8788,1.8788,1.8788,1.8967,1.9556,2.0876,2.2268,2.3285,2.3539,2.3607,2.3678,2.3743,2.3807,2.3795,2.3961,2.4116,2.4116,2.4408,2.4642,2.4692,0.0,0.0,0.0,2.4559,2.4372,2.4117,2.3959,2.3878,0.0,0.0,0.0,0.0,0.0,2.5648,2.3852,2.3795,2.3795,2.3795,2.4411,2.5117,2.5932,2.6729,2.6693,2.5968,2.7574,2.7997,2.7453,2.8243,2.8587,2.8587,2.8587,2.8587,2.8587,2.8587,2.8587,2.8587,2.8587,2.8587,2.8587,2.035,2.0284,2.0154,2.0088,1.9906,1.9682,1.9467,1.9154,1.9073,1.9379,1.8731,1.836,1.8694,1.8042,1.7664,1.7726,1.7839,1.7944,1.8048,1.8048,1.8108,1.819,1.7922,1.79,1.819,1.8078,1.8211,1.8585,1.8733,1.8788,1.8788,1.8788,1.8788,1.8788,1.8788,1.8788,1.8788,1.8788,1.8788,1.8788,1.8676,1.8714,1.8788,1.8676,1.8714,1.8788,1.8788,1.8788,1.8788,1.8788,1.8788,1.8788,1.8788,1.8788,1.8788,1.8788,1.8788,1.8788,1.8788,1.8788,1.9055,2.0216,2.1411,2.25,2.3338,2.3539,2.3607,2.3678,2.3743,2.3828,2.3919,2.4098,2.4265,2.4355,2.4626,2.4832,2.4832,2.4936,0.0,2.4723,2.4526,2.4319,2.4135,2.3919,2.3858,2.3979,0.0,0.0,2.5386,2.6301,2.626,2.494,2.49,2.49,2.49,2.5697,2.6131,2.6222,2.7399,2.7544,2.6801,2.8051,2.8352,2.7954,2.8406,2.8587,2.8587,2.8587,2.8587,2.8587,2.8587,2.8587,2.8587,2.8587,2.8587,2.8587,2.0369,2.0308,2.0174,1.9926,1.9726,1.9499,1.9154,1.886,1.8622,1.8406,1.8078,1.7839,1.7816,1.7509,1.7439,1.7794,1.7861,1.7905,1.7905,1.7905,1.7966,1.8108,1.7789,1.7766,1.8151,1.8082,1.8232,1.8566,1.8696,1.8769,1.8769,1.8751,1.8769,1.8769,1.8769,1.8788,1.8788,1.8788,1.8788,1.8788,1.8788,1.8788,1.8788,1.8788,1.8788,1.8788,1.8788,1.8788,1.8788,1.8788,1.8788,1.8788,1.8788,1.8788,1.8788,1.8788,1.8788,1.8788,1.8788,1.8877,1.9324,2.0751,2.1697,2.25,2.3338,2.3562,2.3629,2.3678,2.3786,2.3894,2.4078,2.4284,2.451,2.4657,2.4861,2.501,2.501,0.0,2.4922,2.4723,2.4526,2.4319,2.4135,2.3959,2.3919,2.4097,2.5114,0.0,0.0,2.6637,2.6927,2.6617,2.6354,2.6258,2.6385,2.7073,2.7182,2.6765,2.8141,2.8431,2.7797,2.8485,2.8696,2.8587,2.8587,2.8587,2.8587,2.8587,2.8587,2.8587,2.8587,2.8587,2.8587,2.8587,2.8587,2.8587,2.0295,2.0167,2.0007,1.9828,1.9707,1.9499,1.9154,1.8824,1.8547,1.833,1.7932,1.7572,1.7415,1.7408,1.7408,1.7479,1.7749,1.7905,1.7905,1.7905,1.7839,1.7704,1.7635,1.7704,1.7944,1.8146,1.833,1.8524,1.8524,1.8582,1.8641,1.8582,1.8582,1.8641,1.8641,1.8678,1.8788,1.8788,1.8788,1.8788,1.8788,1.8788,1.8788,1.8788,1.8788,1.8788,1.8788,1.8788,1.8788,1.8788,1.8788,1.8788,1.8788,1.8788,1.8788,1.8788,1.8788,1.8788,1.8788,1.9306,2.0019,2.0876,2.1697,2.25,2.3338,2.3607,2.3678,2.37,2.3876,2.4058,2.4079,2.4408,2.4657,2.4692,2.4861,2.501,0.0,0.0,2.4922,2.4723,2.4526,2.4319,2.4135,2.4059,2.4078,2.4097,2.5204,2.609,2.66,2.7399,2.8056,2.8553,2.7027,2.653,2.7218,2.7345,2.8015,2.9228,2.9481,2.9536,2.9427,2.9554,2.9246,2.8587,2.8587,2.8587,2.8587,2.8587,2.8587,2.8587,2.8587,2.8587,2.8587,2.8587,2.8587,2.8587,2.0204,2.005,1.9887,1.9676,1.9545,1.9283,1.8842,1.8661,1.8432,1.8125,1.771,1.7455,1.7509,1.7344,1.7337,1.7589,1.7681,1.7749,1.7749,1.7749,1.7704,1.7612,1.7502,1.7572,1.7883,1.8166,1.833,1.8388,1.8465,1.8524,1.8563,1.8505,1.8524,1.8545,1.8566,1.8641,1.8696,1.8769,1.8788,1.8788,1.8788,1.8788,1.8788,1.8788,1.8788,1.8788,1.8788,1.8788,1.8788,1.8788,1.8788,1.8788,1.8788,1.8788,1.8788,1.8788,1.8788,1.8788,1.8788,1.9395,2.0073,2.0412,2.1411,2.2393,2.2767,2.3307,2.3743,2.3831,2.3896,2.4001,2.4229,2.4407,2.4559,2.4692,2.4861,0.0,0.0,2.501,2.4983,2.4861,2.4575,2.4355,2.4265,2.4155,2.4338,2.4912,2.5978,2.6954,2.7766,2.839,2.9029,2.9791,2.8724,2.8323,2.8685,2.9119,2.9699,3.0441,3.0441,3.0232,2.9789,3.0242,2.9771,2.8605,2.9065,2.9011,2.8587,2.8587,2.8587,2.8587,2.8587,2.8587,2.8587,2.8587,2.8587,2.8587,2.0135,1.9974,1.9787,1.9532,1.9361,1.9082,1.8565,1.845,1.8255,1.7844,1.7509,1.7368,1.7526,1.7344,1.732,1.7658,1.7658,1.7612,1.7542,1.7572,1.7589,1.7526,1.7479,1.7618,1.7966,1.8163,1.8287,1.829,1.8385,1.8443,1.8465,1.8443,1.8426,1.8465,1.8545,1.8584,1.8622,1.8733,1.8788,1.8788,1.8788,1.8788,1.8788,1.8788,1.8788,1.8788,1.8788,1.8788,1.8788,1.8788,1.8788,1.8788,1.8788,1.8788,1.8788,1.8788,1.8788,1.8788,1.8788,1.9252,1.977,1.9948,2.1019,2.2054,2.225,2.3038,2.3743,2.3894,2.3896,2.3961,2.4265,2.4425,2.4526,2.4657,0.0,0.0,0.0,2.501,2.4977,2.4936,2.4657,2.4441,2.4407,2.4468,2.4875,2.5686,2.6881,2.7894,2.8657,2.9308,2.9988,3.0691,3.0301,3.0061,3.0061,3.0677,3.1075,3.1274,3.1274,3.0948,3.0369,3.0985,3.0405,2.892,2.9518,2.9337,2.8587,2.8587,2.8587,2.8587,2.8587,2.8587,2.8587,2.8587,2.8587,2.8587,2.0095,1.9892,1.9682,1.9532,1.9237,1.8895,1.8563,1.829,1.7963,1.7502,1.7408,1.7313,1.7093,1.7296,1.7439,1.7344,1.7595,1.7658,1.7344,1.7502,1.7526,1.7344,1.7664,1.7966,1.8172,1.8211,1.8239,1.829,1.8239,1.826,1.831,1.8239,1.826,1.831,1.8465,1.8526,1.8622,1.8733,1.8788,1.8788,1.8788,1.8788,1.8788,1.8788,1.8788,1.8788,1.8788,1.8788,1.8788,1.8788,1.8788,1.8788,1.8788,1.8788,1.8788,1.8788,1.8788,1.8788,1.8788,1.8841,1.9074,1.9805,2.0608,2.1375,2.2125,2.3038,2.37,2.3721,2.3917,2.4097,2.4135,2.4425,2.4692,2.4707,0.0,0.0,2.501,2.501,2.4936,2.4738,2.4707,2.461,2.4407,2.5232,2.5801,2.5874,2.756,2.8619,2.8695,3.0019,3.0966,3.1311,3.1063,3.0894,3.0894,3.0966,3.1365,3.2107,3.2107,3.2071,3.2035,3.2071,3.122,2.9699,2.9779,2.9337,2.8587,2.8587,2.8587,2.8587,2.8587,2.8587,2.8587,2.8587,2.8587,2.8587,1.9877,1.9695,1.9499,1.9237,1.9033,1.8679,1.8094,1.7924,1.7687,1.7199,1.7167,1.7167,1.724,1.7392,1.7509,1.7549,1.7595,1.7526,1.732,1.7368,1.7502,1.7664,1.7816,1.7988,1.819,1.8211,1.8215,1.8239,1.8215,1.8215,1.8239,1.8215,1.8215,1.8239,1.8406,1.8505,1.8563,1.8732,1.8788,1.8788,1.8788,1.8788,1.8788,1.8788,1.8788,1.8788,1.8788,1.8788,1.8788,1.8788,1.8788,1.8788,1.8788,1.8788,1.8788,1.8788,1.8788,1.8788,1.8788,1.8788,1.8859,1.9181,2.0198,2.1179,2.1483,2.2679,2.3743,2.3852,2.3896,2.3981,2.4247,2.4407,2.4543,2.4692,0.0,2.501,2.501,2.501,2.4964,2.4908,2.522,2.5424,2.534,2.6174,2.7127,2.8178,2.9028,2.9943,3.0947,3.1708,3.2131,3.2125,3.242,3.2291,3.1745,3.2465,3.2839,3.294,3.3121,3.2593,3.1473,3.1962,3.1057,2.9083,2.9572,2.9337,2.8587,2.8587,2.8587,2.8587,2.8587,2.8587,2.8587,2.8587,2.8587,2.8587,1.972,1.9526,1.9343,1.9046,1.8843,1.8469,1.7803,1.7642,1.7452,1.7052,1.7068,1.7191,1.7384,1.7432,1.7502,1.7549,1.7415,1.732,1.7248,1.7392,1.7618,1.7883,1.7966,1.8048,1.819,1.8211,1.8211,1.8211,1.8211,1.8211,1.8211,1.8211,1.8211,1.8211,1.8383,1.8445,1.8465,1.8658,1.8733,1.8733,1.8788,1.8788,1.8788,1.8788,1.8788,1.8788,1.8788,1.8788,1.8788,1.8788,1.8788,1.8788,1.8788,1.8788,1.8788,1.8788,1.8788,1.8788,1.8788,1.8788,1.8788,1.8788,1.9787,2.0822,2.1054,2.2249,2.3437,2.3837,2.3855,2.3901,2.4247,2.4355,2.4476,2.4676,2.4861,2.501,2.501,2.5219,2.5389,2.5389,2.597,2.64,2.64,2.7172,2.8152,2.93,2.9744,3.0682,3.2312,3.2711,3.2969,3.3098,3.346,3.3359,3.2693,3.3513,3.3762,3.3512,3.3469,3.2702,3.1383,3.1691,3.0785,2.9011,2.9554,2.9337,2.8587,2.8587,2.8587,2.8587,2.8587,2.8587,2.8587,2.8587,2.8587,2.8587,1.9606,1.9434,1.9243,1.9031,1.8716,1.831,1.7776,1.7539,1.7288,1.7043,1.724,1.7384,1.7401,1.7384,1.7337,1.7216,1.7068,1.7027,1.7085,1.7602,1.7905,1.7905,1.8091,1.8211,1.8211,1.8211,1.8211,1.8211,1.8211,1.8211,1.8211,1.8211,1.8211,1.8211,1.8266,1.831,1.831,1.8508,1.8585,1.8604,1.8751,1.8788,1.8788,1.8788,1.8788,1.8788,1.8788,1.8788,1.8788,1.8788,1.8788,1.8788,1.8788,1.8788,1.8788,1.8788,1.8788,1.8788,1.8788,1.8788,1.8806,1.8788,1.9413,2.0198,2.0929,2.1837,2.2728,2.3538,2.375,2.3858,2.4059,2.4265,2.4476,2.4676,2.4861,2.501,2.501,2.5712,2.6205,2.6223,2.6982,2.7513,2.7513,2.8237,2.8714,2.8714,2.9472,3.0646,3.233,3.2711,3.33,3.416,3.4055,3.3935,3.3802,3.3858,3.3858,3.3802,3.2996,3.2464,3.2162,3.1347,3.0532,2.9771,2.9771,2.9337,2.8587,2.8587,2.8587,2.8587,2.8612,2.8612,2.8587,2.8612,2.8587,2.8587,1.9434,1.9225,1.898,1.8643,1.8375,1.7984,1.7311,1.715,1.7018,1.6738,1.6789,1.6917,1.7093,1.7117,1.7068,1.6942,1.6968,1.7142,1.7432,1.7732,1.7966,1.8108,1.8168,1.8211,1.8211,1.8211,1.8211,1.8211,1.8211,1.8211,1.8211,1.8211,1.8211,1.8211,1.8266,1.8351,1.8465,1.8547,1.8659,1.8733,1.8788,1.8788,1.8788,1.8788,1.8788,1.8788,1.8788,1.8788,1.8788,1.8788,1.8788,1.8788,1.8788,1.8788,1.8788,1.8788,1.8788,1.8788,1.8788,1.9217,1.952,1.893,1.9413,2.0198,2.0929,2.1837,2.2728,2.3538,2.375,2.3901,2.4247,2.4355,2.451,2.4861,2.495,2.52,2.5768,2.6053,2.6432,2.7039,2.7839,2.8351,2.8351,2.9071,2.9794,3.0416,3.1781,3.2785,3.3297,3.309,3.3366,3.416,3.2945,3.2575,3.3236,3.4098,3.4398,3.4152,3.3287,3.2477,3.1671,3.0628,2.9717,2.8974,2.8974,2.8855,2.8687,2.8687,2.8687,2.8669,2.8845,2.8773,2.8612,2.8815,2.8743,2.8587,1.9162,1.9016,1.8807,1.8356,1.8094,1.7749,1.7101,1.6993,1.6942,1.6789,1.6763,1.6866,1.7142,1.6968,1.6815,1.6712,1.6942,1.724,1.7589,1.7856,1.8005,1.7961,1.8027,1.813,1.8211,1.813,1.813,1.8211,1.8211,1.8211,1.8211,1.8211,1.8211,1.8211,1.8239,1.8325,1.8428,1.8526,1.8622,1.8715,1.8788,1.8788,1.8788,1.8788,1.8788,1.8788,1.8788,1.8788,1.8788,1.8788,1.8788,1.8788,1.8788,1.8788,1.8788,1.8788,1.8788,1.8788,1.8788,1.9182,1.9522,1.9361,1.9878,2.0626,2.1435,2.2072,2.2728,2.3559,2.3771,2.3921,2.4337,2.4389,2.4543,2.4936,2.501,2.5181,2.5674,2.6015,2.6413,2.6925,2.801,2.8695,2.8695,2.9415,3.0116,3.0663,3.1951,3.271,3.271,3.2566,3.291,3.384,3.2441,3.2151,3.3191,3.3715,3.3791,3.3473,3.2943,3.2095,3.0978,2.9948,2.918,2.8637,2.8637,2.8644,2.8694,2.8694,2.8737,2.8743,2.8925,2.8902,2.8773,2.8957,2.8887,2.8743,1.886,1.8752,1.8584,1.8173,1.7864,1.7528,1.7101,1.7018,1.6993,1.6993,1.6993,1.7068,1.7288,1.6866,1.657,1.657,1.6942,1.7313,1.7572,1.7961,1.8005,1.7612,1.7772,1.7944,1.8168,1.7988,1.8005,1.8211,1.8211,1.8211,1.8211,1.8211,1.8211,1.8211,1.8211,1.826,1.833,1.8465,1.8598,1.8747,1.8876,1.8948,1.9002,1.9002,1.9002,1.8984,1.8913,1.8895,1.8895,1.8806,1.8788,1.8788,1.8788,1.8788,1.8788,1.8788,1.8788,1.8806,1.8824,1.8968,1.9291,2.0045,2.0795,2.1545,2.2249,2.2473,2.277,2.3642,2.3831,2.3961,2.4337,2.4407,2.4559,2.4936,2.501,2.5029,2.5105,2.5749,2.6261,2.6399,2.7782,2.8733,2.879,2.9472,2.9888,2.9888,3.0776,3.1288,3.1212,3.1611,3.2328,3.3368,3.2362,3.233,3.3375,3.2863,3.2483,3.224,3.2147,3.15,3.0331,2.9429,2.892,2.8718,2.8718,2.8694,2.8694,2.8718,2.8743,2.8858,2.8993,2.9042,2.9038,2.903,2.9026,2.8957,1.8753,1.8432,1.817,1.8111,1.7743,1.7439,1.7337,1.7142,1.6993,1.6993,1.6815,1.6727,1.6763,1.6463,1.6289,1.6289,1.6841,1.7288,1.7526,1.7794,1.7856,1.7612,1.7502,1.7595,1.7966,1.7905,1.8005,1.8211,1.8211,1.8211,1.8211,1.8211,1.8236,1.8287,1.8287,1.8371,1.8528,1.8565,1.9013,1.9695,1.9734,2.0091,2.0608,2.0608,2.0608,2.0537,1.9948,1.9734,1.9645,1.9002,1.8788,1.8788,1.8788,1.8788,1.8788,1.8788,1.8788,1.8843,1.9,1.9849,2.0782,2.1115,2.2296,2.32,2.2623,2.2656,2.2991,2.3645,2.4039,2.4301,2.4389,2.4526,2.4723,2.495,2.501,2.5219,2.5863,2.6091,2.6683,2.801,2.8468,2.8941,2.9566,2.9794,2.9888,2.9888,3.1288,3.1857,3.1231,3.2353,3.3137,3.3387,3.1958,3.16,3.2468,3.1952,3.1989,3.2591,3.1743,3.1203,3.0885,2.9628,2.9038,2.8925,2.8815,2.8785,2.8785,2.8815,2.8957,2.9123,2.9318,2.9359,2.9299,2.9237,2.9148,2.8966,1.8547,1.8273,1.7984,1.7788,1.7462,1.7216,1.7216,1.6993,1.6866,1.6993,1.6763,1.6596,1.6596,1.6371,1.6289,1.6501,1.6977,1.7296,1.7392,1.7618,1.7635,1.737,1.7408,1.7549,1.7749,1.7839,1.8005,1.8211,1.8211,1.8211,1.8211,1.8211,1.8215,1.8243,1.8287,1.86,1.9129,1.9151,1.969,2.0519,2.0519,2.0769,2.1108,2.1108,2.0876,2.0519,2.0144,1.9752,1.9359,1.893,1.8788,1.8806,1.8878,1.8843,1.8824,1.8949,1.8896,1.8843,1.9052,1.9938,2.0934,2.148,2.2612,2.3548,2.328,2.332,2.3526,2.3885,2.4116,2.4284,2.4372,2.4559,2.4772,2.4983,2.501,2.5162,2.5579,2.5958,2.6531,2.7403,2.8218,2.9017,2.9813,2.9888,2.9888,2.9888,3.0703,3.1212,3.1212,3.1845,3.2617,3.3564,3.2279,3.1861,3.2438,3.1787,3.1465,3.1522,3.1324,3.098,3.0499,2.9682,2.9214,2.9082,2.8934,2.8858,2.8858,2.8881,2.903,2.9272,2.9437,2.9551,2.9626,2.9983,2.9915,2.9531,1.8252,1.8048,1.7854,1.7479,1.7142,1.6968,1.7043,1.6789,1.6701,1.6968,1.6763,1.657,1.6543,1.6344,1.6382,1.6876,1.7126,1.7248,1.7248,1.7432,1.7401,1.7108,1.737,1.7542,1.7612,1.7772,1.7966,1.8211,1.8211,1.8211,1.8211,1.8211,1.8211,1.8215,1.8287,1.8845,1.9706,1.9808,2.0385,2.1286,2.1161,2.1179,2.1286,2.1144,2.0715,2.0162,2.0055,1.9503,1.8824,1.8824,1.8843,1.8896,1.9002,1.8967,1.8914,1.912,1.9035,1.8914,1.9102,1.9782,2.0651,2.1544,2.2523,2.3384,2.3971,2.4118,2.4136,2.4136,2.4211,2.4284,2.4442,2.4626,2.4817,2.4964,2.501,2.501,2.501,2.5693,2.6261,2.6413,2.7896,2.9169,2.9832,2.9888,2.9888,2.9888,3.004,3.0362,3.0947,3.1091,3.1844,3.3342,3.2501,3.2195,3.2462,3.1828,3.1064,3.0204,3.1035,3.0898,2.9937,2.968,2.9437,2.9233,2.9052,2.8934,2.8887,2.8957,2.9119,2.9375,2.9495,2.9678,2.9964,3.0729,3.0824,3.0442,1.7788,1.7539,1.7415,1.7408,1.6993,1.6815,1.7264,1.6917,1.6701,1.6968,1.6763,1.6517,1.6262,1.6222,1.6409,1.6942,1.6977,1.6977,1.7043,1.7224,1.7264,1.7108,1.7158,1.7297,1.7589,1.7635,1.7833,1.8211,1.8211,1.8211,1.8211,1.8211,1.8218,1.8287,1.8426,1.8966,1.979,1.9925,2.0822,2.2071,2.1375,2.1518,2.2054,2.1358,2.1036,2.0876,2.0234,1.9559,1.8966,1.8966,1.9035,1.9135,1.917,1.9152,1.9119,1.9035,1.9117,1.9243,1.9335,1.9951,2.0822,2.1861,2.2757,2.3577,2.4423,2.461,2.4561,2.4389,2.4642,2.4832,2.4692,2.4832,2.4964,2.4996,2.501,2.501,2.501,2.5693,2.6489,2.7228,2.8749,2.9775,2.9888,2.9888,2.9888,2.9888,3.0606,3.0758,3.0097,3.1405,3.2026,3.1648,3.1502,3.1458,3.158,3.1541,3.1064,3.0204,3.1083,3.1011,3.0157,2.9937,2.9697,2.9456,2.9314,2.9119,2.8929,2.9163,2.9375,2.9589,2.9769,2.9969,3.0223,3.0852,3.1337,3.1539,1.7412,1.7335,1.7288,1.6993,1.6763,1.6686,1.6917,1.6607,1.6463,1.6738,1.6543,1.6344,1.6222,1.6344,1.649,1.6633,1.6825,1.6942,1.6892,1.7084,1.7199,1.7208,1.7321,1.7496,1.7772,1.7878,1.8005,1.8211,1.8211,1.8211,1.8211,1.8211,1.8239,1.831,1.8445,1.9233,2.0486,2.0568,2.1536,2.291,2.2089,2.1982,2.2196,2.1411,2.084,2.0376,1.9609,1.9201,1.9002,1.9002,1.9086,1.92,1.9298,1.9266,1.9219,1.9314,1.9326,1.932,1.9438,2.0098,2.0998,2.1957,2.2886,2.379,2.4672,2.4861,2.4817,2.461,2.4723,2.4817,2.4723,2.4861,2.501,2.501,2.501,2.501,2.501,2.611,2.7399,2.8692,2.9469,2.9888,2.9888,2.9888,2.9888,2.9888,3.072,3.1042,3.0663,3.1762,3.2289,3.2029,3.2029,3.1832,3.1465,3.1484,3.1064,3.0204,3.0586,3.0567,3.0185,3.0003,2.9839,2.9715,2.9533,2.9415,2.9293,2.9415,2.9589,2.9787,2.9872,3.0323,3.0897,3.0689,3.0968,3.1299]},{"header":{"parameterUnit":"m.s-1","parameterCategory":1,"la1":30.6,"la2":28.766,"lo1":-90.7593,"lo2":-88.6598,"dy":0.0162,"dx":0.0183,"nx":116,"ny":114,"refTime":"2024-02-17T18:00:00:Z","depth":0,"parameterNumber":3,"parameterNumberName":"V-component_of_WINDS"},"data":[0.0,0.0,0.0,0.0,0.0,0.0,0.0,0.0,0.0,0.0,0.0,0.0,0.0,0.0,0.0,0.0,0.0,0.0,0.0,0.0,0.0,0.0,0.0,0.0,0.0,0.0,0.0,0.0,0.0,0.0,0.0,0.0,0.0,0.0,0.0,0.0,0.0,0.0,0.0,0.0,0.0,0.0,0.0,0.0,0.0,0.0,0.0,0.0,0.0,0.0,0.0,0.0,0.0,0.0,0.0,0.0,0.0,0.0,0.0,0.0,0.0,0.0,0.0,0.0,0.0,0.0,0.0,0.0,0.0,0.0,0.0,0.0,0.0,0.0,0.0,0.0,0.0,0.0,0.0,0.0,0.0,0.0,0.0,0.0,0.0,0.0,0.0,0.0,0.0,0.0,0.0,0.0,0.0,0.0,0.0,0.0,0.0,0.0,0.0,0.0,0.0,0.0,0.0,0.0,0.0,0.0,0.0,0.0,0.0,0.0,0.0,0.0,0.0,0.0,0.0,0.0,0.0,0.0,0.0,0.0,0.0,0.0,0.0,0.0,0.0,0.0,0.0,0.0,0.0,0.0,0.0,0.0,0.0,0.0,0.0,0.0,0.0,0.0,0.0,0.0,0.0,0.0,0.0,0.0,0.0,0.0,0.0,0.0,0.0,0.0,0.0,0.0,0.0,0.0,0.0,0.0,0.0,0.0,0.0,0.0,0.0,0.0,0.0,0.0,0.0,0.0,0.0,0.0,0.0,0.0,0.0,0.0,0.0,0.0,0.0,0.0,0.0,0.0,0.0,0.0,0.0,0.0,0.0,0.0,0.0,0.0,0.0,0.0,0.0,0.0,0.0,0.0,0.0,0.0,0.0,0.0,0.0,0.0,0.0,0.0,0.0,0.0,0.0,0.0,0.0,0.0,0.0,0.0,0.0,0.0,0.0,0.0,0.0,0.0,0.0,0.0,0.0,0.0,0.0,0.0,0.0,0.0,0.0,0.0,0.0,0.0,0.0,0.0,0.0,0.0,0.0,0.0,0.0,0.0,0.0,0.0,0.0,0.0,0.0,0.0,0.0,0.0,0.0,0.0,0.0,0.0,0.0,0.0,0.0,0.0,0.0,0.0,0.0,0.0,0.0,0.0,0.0,0.0,0.0,0.0,0.0,0.0,0.0,0.0,0.0,0.0,0.0,0.0,0.0,0.0,0.0,0.0,0.0,0.0,0.0,0.0,0.0,0.0,0.0,0.0,0.0,0.0,0.0,0.0,0.0,0.0,0.0,0.0,0.0,0.0,0.0,0.0,0.0,0.0,0.0,0.0,0.0,0.0,0.0,0.0,0.0,0.0,0.0,0.0,0.0,0.0,0.0,0.0,0.0,0.0,0.0,0.0,0.0,0.0,0.0,0.0,0.0,0.0,0.0,0.0,0.0,0.0,0.0,0.0,0.0,0.0,0.0,0.0,0.0,0.0,0.0,0.0,0.0,0.0,0.0,0.0,0.0,0.0,0.0,0.0,0.0,0.0,0.0,0.0,0.0,0.0,0.0,0.0,0.0,0.0,0.0,0.0,0.0,0.0,0.0,0.0,0.0,0.0,0.0,0.0,0.0,0.0,0.0,0.0,0.0,0.0,0.0,0.0,0.0,0.0,0.0,0.0,0.0,0.0,0.0,0.0,0.0,0.0,0.0,0.0,0.0,0.0,0.0,0.0,0.0,0.0,0.0,0.0,0.0,0.0,0.0,0.0,0.0,0.0,0.0,0.0,0.0,0.0,0.0,0.0,0.0,0.0,0.0,0.0,0.0,0.0,0.0,0.0,0.0,0.0,0.0,0.0,0.0,0.0,0.0,0.0,0.0,0.0,0.0,0.0,0.0,0.0,0.0,0.0,0.0,0.0,0.0,0.0,0.0,0.0,0.0,0.0,0.0,0.0,0.0,0.0,0.0,0.0,0.0,0.0,0.0,0.0,0.0,0.0,0.0,0.0,0.0,0.0,0.0,0.0,0.0,0.0,0.0,0.0,0.0,0.0,0.0,0.0,0.0,0.0,0.0,0.0,0.0,0.0,0.0,0.0,0.0,0.0,0.0,0.0,0.0,0.0,0.0,0.0,0.0,0.0,0.0,0.0,0.0,0.0,0.0,0.0,0.0,0.0,0.0,0.0,0.0,0.0,0.0,0.0,0.0,0.0,0.0,0.0,0.0,0.0,0.0,0.0,0.0,0.0,0.0,0.0,0.0,0.0,0.0,0.0,0.0,0.0,0.0,0.0,0.0,0.0,0.0,0.0,0.0,0.0,0.0,0.0,0.0,0.0,0.0,0.0,0.0,0.0,0.0,0.0,0.0,0.0,0.0,0.0,0.0,0.0,0.0,0.0,0.0,0.0,0.0,0.0,0.0,0.0,0.0,0.0,0.0,0.0,0.0,0.0,0.0,0.0,0.0,0.0,0.0,0.0,0.0,0.0,0.0,0.0,0.0,0.0,0.0,0.0,0.0,0.0,0.0,0.0,0.0,0.0,0.0,0.0,0.0,0.0,0.0,0.0,0.0,0.0,0.0,0.0,0.0,0.0,0.0,0.0,0.0,0.0,0.0,0.0,0.0,0.0,0.0,0.0,0.0,0.0,0.0,0.0,0.0,0.0,0.0,0.0,0.0,0.0,0.0,0.0,0.0,0.0,0.0,0.0,0.0,0.0,0.0,0.0,0.0,0.0,0.0,0.0,0.0,0.0,0.0,0.0,0.0,0.0,0.0,0.0,0.0,0.0,0.0,0.0,0.0,0.0,0.0,0.0,0.0,0.0,0.0,0.0,0.0,0.0,0.0,0.0,0.0,0.0,0.0,0.0,0.0,0.0,0.0,0.0,0.0,0.0,0.0,0.0,0.0,0.0,0.0,0.0,0.0,0.0,0.0,0.0,0.0,0.0,0.0,0.0,0.0,0.0,0.0,0.0,0.0,0.0,0.0,0.0,0.0,0.0,0.0,0.0,0.0,0.0,0.0,0.0,0.0,0.0,0.0,0.0,0.0,0.0,0.0,0.0,0.0,0.0,0.0,0.0,0.0,0.0,0.0,0.0,0.0,0.0,0.0,0.0,0.0,0.0,0.0,0.0,0.0,0.0,0.0,0.0,0.0,0.0,0.0,0.0,0.0,0.0,0.0,0.0,0.0,0.0,0.0,0.0,0.0,0.0,0.0,0.0,0.0,0.0,0.0,0.0,0.0,0.0,0.0,0.0,0.0,0.0,0.0,0.0,0.0,0.0,0.0,0.0,0.0,0.0,0.0,0.0,0.0,0.0,0.0,0.0,0.0,0.0,0.0,0.0,0.0,0.0,0.0,0.0,0.0,0.0,0.0,0.0,0.0,0.0,0.0,0.0,0.0,0.0,0.0,0.0,0.0,0.0,0.0,0.0,0.0,0.0,0.0,0.0,0.0,0.0,0.0,0.0,0.0,0.0,0.0,0.0,0.0,0.0,0.0,0.0,0.0,0.0,0.0,0.0,0.0,0.0,0.0,0.0,0.0,0.0,0.0,0.0,0.0,0.0,0.0,0.0,0.0,0.0,0.0,0.0,0.0,0.0,0.0,0.0,0.0,0.0,0.0,0.0,0.0,0.0,0.0,0.0,0.0,0.0,0.0,0.0,0.0,0.0,0.0,0.0,0.0,0.0,0.0,0.0,0.0,0.0,0.0,0.0,0.0,0.0,0.0,0.0,0.0,0.0,0.0,0.0,0.0,0.0,0.0,0.0,0.0,0.0,0.0,0.0,0.0,0.0,0.0,0.0,0.0,0.0,0.0,0.0,0.0,0.0,0.0,0.0,0.0,0.0,0.0,0.0,0.0,0.0,0.0,0.0,0.0,0.0,0.0,0.0,0.0,0.0,0.0,0.0,0.0,0.0,0.0,0.0,0.0,0.0,0.0,0.0,0.0,0.0,0.0,0.0,0.0,0.0,0.0,0.0,0.0,0.0,0.0,0.0,0.0,0.0,0.0,0.0,0.0,0.0,0.0,0.0,0.0,0.0,0.0,0.0,0.0,0.0,0.0,0.0,0.0,0.0,0.0,0.0,0.0,0.0,0.0,0.0,0.0,0.0,0.0,0.0,0.0,0.0,0.0,0.0,0.0,0.0,0.0,0.0,0.0,0.0,0.0,0.0,0.0,0.0,0.0,0.0,0.0,0.0,0.0,0.0,0.0,0.0,0.0,0.0,0.0,0.0,0.0,0.0,0.0,0.0,0.0,0.0,0.0,0.0,0.0,0.0,0.0,0.0,0.0,0.0,0.0,0.0,0.0,0.0,0.0,0.0,0.0,0.0,0.0,0.0,0.0,0.0,0.0,0.0,0.0,0.0,0.0,0.0,0.0,0.0,0.0,0.0,0.0,0.0,0.0,0.0,0.0,0.0,0.0,0.0,0.0,0.0,0.0,0.0,0.0,0.0,0.0,0.0,0.0,0.0,0.0,0.0,0.0,0.0,0.0,0.0,0.0,0.0,0.0,0.0,0.0,0.0,0.0,0.0,0.0,0.0,0.0,0.0,0.0,0.0,0.0,0.0,0.0,0.0,0.0,0.0,0.0,0.0,0.0,0.0,0.0,0.0,0.0,0.0,0.0,0.0,0.0,0.0,0.0,0.0,0.0,0.0,0.0,0.0,0.0,0.0,0.0,0.0,0.0,0.0,0.0,0.0,0.0,0.0,0.0,0.0,0.0,0.0,0.0,0.0,0.0,0.0,0.0,0.0,0.0,0.0,0.0,0.0,0.0,0.0,0.0,0.0,0.0,0.0,0.0,0.0,0.0,0.0,0.0,0.0,0.0,0.0,0.0,0.0,0.0,0.0,0.0,0.0,0.0,0.0,0.0,0.0,0.0,0.0,0.0,0.0,0.0,0.0,0.0,0.0,0.0,0.0,0.0,0.0,0.0,0.0,0.0,0.0,0.0,0.0,0.0,0.0,0.0,0.0,0.0,0.0,0.0,0.0,0.0,0.0,0.0,0.0,0.0,0.0,0.0,0.0,0.0,0.0,0.0,0.0,0.0,0.0,0.0,0.0,0.0,0.0,0.0,0.0,0.0,0.0,0.0,0.0,0.0,0.0,0.0,0.0,0.0,0.0,0.0,0.0,0.0,0.0,0.0,0.0,0.0,0.0,0.0,0.0,0.0,0.0,0.0,0.0,0.0,0.0,0.0,0.0,0.0,0.0,0.0,0.0,0.0,0.0,0.0,0.0,0.0,0.0,0.0,0.0,0.0,0.0,0.0,0.0,0.0,0.0,0.0,0.0,0.0,0.0,0.0,0.0,0.0,0.0,0.0,0.0,0.0,0.0,0.0,0.0,0.0,0.0,0.0,0.0,0.0,0.0,0.0,0.0,0.0,0.0,0.0,0.0,0.0,0.0,0.0,0.0,0.0,0.0,0.0,0.0,0.0,0.0,0.0,0.0,0.0,0.0,0.0,0.0,0.0,0.0,0.0,0.0,0.0,0.0,0.0,0.0,0.0,0.0,0.0,0.0,0.0,0.0,0.0,0.0,0.0,0.0,0.0,0.0,0.0,0.0,0.0,0.0,0.0,0.0,0.0,0.0,0.0,0.0,0.0,0.0,0.0,0.0,0.0,0.0,0.0,0.0,0.0,0.0,0.0,0.0,0.0,0.0,0.0,0.0,0.0,0.0,0.0,0.0,0.0,0.0,0.0,0.0,0.0,0.0,0.0,0.0,0.0,0.0,0.0,0.0,0.0,0.0,0.0,0.0,0.0,0.0,0.0,0.0,0.0,0.0,0.0,0.0,0.0,0.0,0.0,0.0,0.0,0.0,0.0,0.0,0.0,0.0,0.0,0.0,0.0,0.0,0.0,0.0,0.0,0.0,0.0,0.0,0.0,0.0,0.0,0.0,0.0,0.0,0.0,0.0,0.0,0.0,0.0,0.0,0.0,0.0,0.0,0.0,0.0,0.0,0.0,0.0,0.0,0.0,0.0,0.0,0.0,0.0,0.0,0.0,0.0,0.0,0.0,0.0,0.0,0.0,0.0,0.0,0.0,0.0,0.0,0.0,0.0,0.0,0.0,0.0,0.0,0.0,0.0,0.0,0.0,0.0,0.0,0.0,0.0,0.0,0.0,0.0,-1.1503,0.0,0.0,0.0,0.0,0.0,0.0,0.0,0.0,0.0,0.0,0.0,0.0,0.0,0.0,0.0,0.0,0.0,0.0,0.0,0.0,0.0,0.0,0.0,0.0,0.0,0.0,0.0,0.0,0.0,0.0,0.0,0.0,0.0,0.0,0.0,-1.4136,-1.4387,-1.4552,-1.4641,-1.4822,-1.512,-1.5543,-1.6016,-1.6347,-1.6543,0.0,0.0,0.0,0.0,0.0,0.0,0.0,0.0,0.0,0.0,0.0,0.0,0.0,0.0,0.0,0.0,0.0,0.0,0.0,0.0,0.0,0.0,0.0,0.0,0.0,0.0,0.0,0.0,0.0,0.0,0.0,0.0,0.0,0.0,0.0,0.0,0.0,0.0,0.0,0.0,0.0,0.0,0.0,0.0,0.0,0.0,0.0,0.0,0.0,0.0,0.0,0.0,0.0,0.0,0.0,0.0,0.0,0.0,0.0,0.0,0.0,0.0,0.0,0.0,0.0,0.0,0.0,0.0,0.0,0.0,0.0,-1.2128,0.0,0.0,0.0,0.0,0.0,0.0,0.0,0.0,0.0,0.0,0.0,0.0,0.0,0.0,0.0,0.0,0.0,0.0,0.0,0.0,0.0,0.0,0.0,-1.1108,-1.1541,-1.2164,-1.238,-1.2708,-1.3158,-1.3396,-1.3576,-1.3731,-1.3841,-1.4016,-1.4281,-1.4429,-1.4581,-1.4776,-1.515,-1.5847,-1.681,-1.7808,-1.7958,-1.7454,-1.8755,0.0,0.0,0.0,0.0,0.0,0.0,0.0,0.0,0.0,0.0,0.0,0.0,0.0,0.0,0.0,0.0,0.0,0.0,0.0,0.0,0.0,0.0,0.0,0.0,0.0,0.0,0.0,0.0,0.0,0.0,0.0,0.0,0.0,0.0,0.0,0.0,0.0,0.0,0.0,0.0,0.0,0.0,0.0,0.0,0.0,0.0,0.0,0.0,0.0,0.0,0.0,0.0,0.0,0.0,0.0,0.0,0.0,0.0,0.0,0.0,0.0,0.0,0.0,0.0,0.0,-1.3402,-1.3249,-1.3516,-1.4024,-1.282,-1.2354,-1.2361,0.0,0.0,0.0,0.0,0.0,0.0,0.0,0.0,0.0,0.0,0.0,0.0,0.0,0.0,0.0,0.0,0.0,0.0,0.0,0.0,0.0,0.0,-1.1155,-1.1541,-1.2164,-1.238,-1.2708,-1.3158,-1.3396,-1.3609,-1.3856,-1.3888,-1.4002,-1.4219,-1.4399,-1.4545,-1.4616,-1.6338,-1.7957,-1.9514,-2.0514,-2.0966,-2.0901,-2.0435,0.0,0.0,0.0,0.0,0.0,0.0,0.0,0.0,0.0,0.0,0.0,0.0,0.0,0.0,0.0,0.0,0.0,0.0,0.0,0.0,0.0,0.0,0.0,0.0,0.0,0.0,0.0,0.0,0.0,0.0,0.0,0.0,0.0,0.0,0.0,0.0,0.0,0.0,0.0,0.0,0.0,0.0,0.0,-1.8113,-1.7856,0.0,0.0,0.0,0.0,0.0,0.0,0.0,0.0,0.0,0.0,0.0,0.0,0.0,0.0,-1.355,-1.4041,-1.4264,-1.4223,-1.4497,-1.4738,-1.4963,-1.4218,-1.396,-1.406,-1.3487,0.0,-1.3712,-1.2096,0.0,0.0,0.0,0.0,0.0,0.0,0.0,0.0,0.0,0.0,0.0,0.0,0.0,0.0,0.0,0.0,0.0,0.0,0.0,0.0,0.0,-1.1155,-1.1541,-1.2039,-1.3126,-1.3585,-1.3066,-1.4124,-1.4537,-1.3979,-1.3987,-1.415,-1.4422,-1.4476,-1.501,-1.6053,-1.792,-1.9471,-2.0645,-2.1685,-2.2411,-2.2834,-2.2624,-2.2675,-2.2798,-2.1189,0.0,0.0,0.0,0.0,0.0,0.0,0.0,0.0,0.0,0.0,0.0,0.0,0.0,0.0,0.0,0.0,0.0,0.0,0.0,0.0,0.0,0.0,0.0,0.0,0.0,0.0,0.0,0.0,0.0,0.0,0.0,0.0,0.0,0.0,0.0,0.0,0.0,0.0,0.0,-1.7949,-1.7772,-1.7641,-1.7056,-1.6458,0.0,0.0,0.0,0.0,0.0,0.0,0.0,0.0,0.0,-1.5178,-1.5046,-1.5161,-1.5525,-1.6084,-1.6129,-1.564,-1.5768,-1.554,-1.4994,-1.4624,-1.4369,-1.4176,-1.3749,-1.3682,-1.3769,-1.2405,-1.1731,-1.1491,0.0,0.0,0.0,0.0,0.0,0.0,0.0,0.0,0.0,0.0,0.0,0.0,0.0,0.0,0.0,0.0,0.0,0.0,-1.1135,-1.1621,-1.2217,-1.3023,-1.4059,-1.4342,-1.3533,-1.4527,-1.4796,-1.4037,-1.404,-1.4224,-1.4567,-1.4961,-1.6146,-1.8118,-1.9974,-2.141,-2.242,-2.3511,-2.4321,-2.4851,-2.485,-2.4366,-2.3487,-2.1847,-2.1137,0.0,0.0,0.0,0.0,0.0,0.0,0.0,0.0,0.0,0.0,0.0,0.0,0.0,0.0,0.0,0.0,0.0,0.0,0.0,0.0,0.0,0.0,0.0,0.0,0.0,0.0,0.0,0.0,0.0,0.0,0.0,0.0,0.0,0.0,0.0,0.0,0.0,0.0,-1.7681,-1.7549,-1.7502,-1.7076,-1.6556,0.0,0.0,0.0,0.0,0.0,0.0,-1.6617,-1.5889,-1.5672,-1.6179,-1.622,-1.6483,-1.6985,-1.7544,-1.7434,-1.6574,-1.6371,-1.5736,-1.4808,-1.4511,-1.4319,-1.4124,-1.3749,-1.3581,-1.3509,-1.2485,-1.2078,-1.1964,-1.1307,-1.0804,0.0,-1.0441,-1.0048,-0.9555,0.0,0.0,0.0,0.0,0.0,0.0,0.0,0.0,0.0,0.0,0.0,-1.0819,-1.243,-1.2947,-1.3986,-1.5922,-1.4993,-1.4535,-1.5048,-1.3992,-1.3529,-1.397,-1.4009,-1.4154,-1.4488,-1.6127,-1.8172,-2.0604,-2.2571,-2.4341,-2.5956,-2.7113,-2.7662,-2.7663,-2.6911,-2.6063,-2.5082,-2.3534,-2.2863,-2.2663,0.0,0.0,0.0,0.0,0.0,0.0,0.0,0.0,0.0,0.0,0.0,0.0,0.0,0.0,0.0,0.0,0.0,0.0,0.0,0.0,0.0,0.0,0.0,0.0,0.0,0.0,0.0,0.0,0.0,0.0,0.0,0.0,0.0,0.0,0.0,0.0,0.0,0.0,0.0,-1.7522,-1.6759,0.0,0.0,0.0,0.0,-1.5973,-1.6392,-1.669,-1.6789,-1.6324,-1.6065,-1.6095,-1.6413,-1.6527,-1.643,-1.7093,-1.7012,-1.6213,-1.5566,-1.5109,-1.4777,-1.3762,-1.3459,-1.3702,-1.3357,-1.3232,-1.3195,-1.2543,-1.2267,-1.2123,-1.16,-1.1019,-1.0503,-1.063,-1.034,-0.9819,0.0,0.0,0.0,0.0,0.0,0.0,0.0,0.0,-0.9209,-0.9381,-1.0563,-1.1748,-1.2609,-1.3785,-1.4963,-1.6006,-1.6254,-1.5969,-1.5071,-1.525,-1.5183,-1.4658,-1.4809,-1.5542,-1.6916,-1.904,-2.0844,-2.2349,-2.4865,-2.6389,-2.6992,-2.7608,-2.7913,-2.795,-2.7658,-2.7365,-2.6963,-2.4728,-2.3798,-2.3663,-2.1632,-2.1025,0.0,0.0,0.0,0.0,0.0,0.0,0.0,0.0,0.0,0.0,0.0,0.0,0.0,0.0,0.0,0.0,0.0,0.0,0.0,0.0,0.0,0.0,0.0,0.0,0.0,0.0,0.0,0.0,0.0,0.0,0.0,0.0,0.0,0.0,0.0,0.0,0.0,-1.8153,-1.7881,0.0,0.0,-1.7182,-1.6848,-1.6547,-1.6982,-1.7027,-1.6436,-1.6876,-1.6909,-1.6488,-1.7445,-1.7933,-1.7881,-1.8515,-1.8258,-1.7099,-1.69,-1.5992,-1.4543,-1.4577,-1.4364,-1.3973,-1.4197,-1.4287,-1.4249,-1.3697,-1.3201,-1.2707,-1.2153,-1.1792,-1.1549,-1.1306,-1.0938,-1.0536,0.0,0.0,0.0,0.0,0.0,0.0,0.0,0.0,-0.9354,-0.9461,-1.1099,-1.2561,-1.3317,-1.508,-1.6563,-1.744,-1.7358,-1.6843,-1.5811,-1.5587,-1.5216,-1.4628,-1.5327,-1.6773,-1.8988,-2.1083,-2.2737,-2.4021,-2.6588,-2.7854,-2.7854,-2.8466,-2.8914,-2.9226,-2.8653,-2.876,-2.9179,-2.6616,-2.5224,-2.4652,-2.3191,-2.2452,-2.2089,0.0,0.0,0.0,0.0,0.0,0.0,0.0,0.0,0.0,0.0,0.0,0.0,0.0,0.0,0.0,0.0,0.0,0.0,0.0,0.0,0.0,0.0,0.0,0.0,0.0,0.0,0.0,0.0,0.0,0.0,0.0,0.0,0.0,0.0,0.0,-1.8601,-1.8823,-1.8641,-1.8442,-1.8261,-1.7699,-1.7248,-1.7072,-1.7203,-1.7136,-1.6897,-1.7273,-1.739,-1.7055,-1.8134,-1.8599,-1.8446,-1.8868,-1.8423,-1.7156,-1.7086,-1.6186,-1.4585,-1.5053,-1.4966,-1.4474,-1.4752,-1.4916,-1.4878,-1.4513,-1.4111,-1.3628,-1.2866,-1.2466,-1.2304,-1.202,-1.1513,-1.0981,0.0,0.0,0.0,0.0,0.0,0.0,0.0,-0.8739,-0.9434,-0.9591,-1.1387,-1.3219,-1.4642,-1.6875,-1.8855,-2.0371,-1.826,-1.7002,-1.7375,-1.485,-1.3513,-1.3909,-1.5591,-1.7796,-2.0558,-2.2118,-2.3804,-2.5671,-2.774,-2.873,-2.8802,-2.9922,-3.0898,-3.1672,-3.0047,-3.0257,-3.1687,-2.9285,-2.7343,-2.5817,-2.4826,-2.3927,-2.3085,0.0,0.0,0.0,0.0,0.0,0.0,0.0,0.0,0.0,0.0,0.0,0.0,0.0,0.0,0.0,0.0,0.0,0.0,0.0,0.0,0.0,0.0,0.0,0.0,0.0,0.0,0.0,0.0,0.0,0.0,0.0,0.0,0.0,-1.8602,-1.8651,-1.8909,-1.9578,-1.8989,-1.8456,-1.8194,-1.7504,-1.7219,-1.7578,-1.7027,-1.7108,-1.813,-1.7593,-1.7426,-1.773,-1.8388,-1.8475,-1.7971,-1.8072,-1.7527,-1.636,-1.6014,-1.5514,-1.4924,-1.5041,-1.5082,-1.5133,-1.5005,-1.4966,-1.4966,-1.4902,-1.4902,-1.4801,-1.3748,-1.3038,-1.2631,-1.2663,-1.2048,-1.1162,0.0,0.0,0.0,0.0,0.0,0.0,0.0,-0.8574,-0.9155,-0.9485,-1.2155,-1.4237,-1.4755,-1.7497,-1.9619,-2.0449,-1.8558,-1.7359,-1.7482,-1.5312,-1.4741,-1.6342,-1.8362,-2.0545,-2.2921,-2.4483,-2.596,-2.7357,-2.869,-2.9731,-3.0452,-3.0916,-3.1661,-3.2626,-3.2268,-3.2396,-3.2853,-3.2202,-3.132,-3.0057,-2.669,-2.5197,-2.4804,0.0,0.0,0.0,0.0,0.0,0.0,0.0,0.0,0.0,0.0,0.0,0.0,0.0,0.0,0.0,0.0,0.0,0.0,0.0,0.0,0.0,0.0,0.0,0.0,0.0,0.0,0.0,0.0,0.0,0.0,0.0,0.0,-1.87,-1.8602,-1.9465,-2.0185,-2.0373,-2.0207,-1.9981,-1.9641,-1.8965,-1.8403,-1.8052,-1.8269,-1.8252,-1.7859,-1.8582,-1.885,-1.8448,-1.9076,-1.9334,-1.9227,-1.854,-1.7992,-1.7584,-1.6876,-1.6203,-1.5644,-1.6152,-1.6115,-1.5678,-1.6043,-1.6166,-1.599,-1.529,-1.4996,-1.4976,-1.4189,-1.3591,-1.3144,-1.2824,-1.2299,-1.1749,0.0,0.0,0.0,0.0,0.0,0.0,0.0,-0.8518,-0.9062,-0.9366,-1.2492,-1.4721,-1.4783,-1.7655,-1.9599,-1.9669,-1.8038,-1.6888,-1.6653,-1.5586,-1.5963,0.0,0.0,-2.2309,-2.4719,-2.6422,-2.7848,-2.9,-3.007,-3.0942,-3.1612,-3.1778,-3.2426,-3.345,-3.3285,-3.3615,-3.4267,-3.3659,-3.3317,-3.2885,-2.9302,-2.7659,-2.7148,-2.5317,-2.4639,-2.458,-2.4148,-2.3902,-2.3773,-2.3666,0.0,0.0,0.0,0.0,0.0,0.0,0.0,0.0,0.0,0.0,0.0,0.0,0.0,0.0,0.0,0.0,0.0,0.0,0.0,0.0,0.0,0.0,0.0,0.0,-1.9538,-1.9672,-1.9621,-2.0304,-2.0928,-2.1216,-2.087,-2.0488,-2.0164,-1.9313,-1.8729,-1.8558,-1.8617,-1.8609,-1.8572,-1.9086,-1.9296,-1.9121,-1.9495,-1.9617,-1.9472,-1.8613,-1.8007,-1.7622,-1.7136,-1.6631,-1.6121,-1.6684,-1.6738,0.0,-1.6621,-1.6675,-1.6509,-1.5679,-1.5374,0.0,0.0,0.0,0.0,0.0,-1.2658,-1.2564,0.0,0.0,0.0,0.0,0.0,0.0,0.0,-0.849,-0.905,-0.9247,-1.2454,-1.4656,-1.4586,-1.7314,-1.892,-1.8436,-1.7016,-1.5961,-1.5496,-1.5972,0.0,-1.9625,-2.1522,-2.3703,-2.6195,-2.8076,-2.9567,-3.0553,-3.152,-3.2162,-3.2466,-3.2585,-3.3219,-3.4216,-3.3684,-3.4287,-3.5613,-3.4257,-3.4134,-3.4644,-3.2285,-3.0691,-2.9546,-2.7733,-2.7059,-2.6922,-2.5989,-2.5583,-2.5434,-2.5283,0.0,0.0,0.0,0.0,0.0,0.0,0.0,0.0,0.0,0.0,0.0,0.0,0.0,0.0,0.0,0.0,0.0,0.0,0.0,0.0,0.0,0.0,0.0,0.0,-2.0703,-2.1053,-2.1137,-2.111,-2.129,-2.1886,-2.116,-2.0473,-2.0109,-1.9201,-1.8779,-1.9098,-1.8566,-1.8682,0.0,0.0,0.0,0.0,0.0,-1.9545,-1.9176,-1.847,-1.7819,-1.7156,-1.7025,-1.6782,-1.6493,-1.6866,-1.7002,-1.7002,-1.6803,-1.6675,-1.659,-1.5976,-1.562,-1.5345,-1.4159,-1.3463,-1.3139,-1.2955,-1.3129,0.0,0.0,0.0,0.0,0.0,0.0,0.0,0.0,-0.8305,-0.8805,-0.9178,-1.2023,-1.3782,-1.3235,-1.5758,-1.7531,-1.7684,-1.6152,-1.535,-1.5786,-1.7601,-1.9418,-2.1115,-2.4086,-2.6366,-2.7736,-2.9681,-3.0956,-3.1626,-3.1824,-3.2465,-3.3515,-3.3549,-3.412,-3.5144,-3.5075,-3.5301,-3.5682,-3.5502,-3.5557,-3.5639,-3.4452,-3.2639,-3.0456,-2.8632,-2.7944,-2.7822,-2.6942,-2.6582,-2.6384,-2.5614,-2.5178,-2.4911,-2.4707,0.0,0.0,0.0,0.0,0.0,0.0,0.0,0.0,0.0,0.0,0.0,0.0,0.0,0.0,0.0,0.0,0.0,0.0,0.0,0.0,-2.0735,-2.1032,-2.1353,-2.1894,-2.1773,-2.1615,-2.1598,-2.1439,-2.1066,-2.0475,-2.0233,-2.0017,-1.9828,-1.9687,-1.9732,-1.9955,-1.9763,0.0,-1.9762,-1.9726,-1.9639,-1.9566,-1.8339,-1.7862,-1.8201,0.0,0.0,-1.7042,-1.7105,-1.7115,-1.7002,-1.696,-1.665,-1.6088,-1.5579,-1.4654,-1.3515,-1.4058,-1.4191,-1.4054,-1.3596,-1.349,-1.3515,0.0,0.0,0.0,0.0,0.0,0.0,0.0,-0.8202,-0.8695,-0.8965,-1.1402,-1.2941,-1.2398,-1.4103,-1.5143,-1.4779,-1.4255,-1.4652,-1.6304,-1.8564,-2.0877,-2.3158,-2.593,-2.8002,-2.9326,-3.1029,-3.2015,-3.2302,-3.2836,-3.3492,-3.4207,-3.4299,-3.4702,-3.5345,-3.5463,-3.5549,-3.566,-3.5827,-3.5924,-3.5888,-3.5031,-3.3944,-3.2561,-3.0347,-2.9529,-2.9316,-2.7546,-2.6887,-2.671,-2.5777,-2.5327,-2.5124,-2.503,-2.4236,-2.3262,0.0,0.0,0.0,0.0,0.0,0.0,0.0,0.0,0.0,0.0,0.0,0.0,0.0,0.0,-2.0418,0.0,0.0,-2.0829,-2.1545,-2.1708,-2.186,-2.2203,-2.2123,-2.1945,-2.1691,-2.1339,-2.1039,-2.0695,-2.0494,-2.0339,-2.0166,-2.0131,-2.0131,-2.0061,-1.9975,-1.994,-1.9884,-1.9797,-1.9762,-1.9762,-1.8804,-1.8394,-1.85,-1.7543,-1.7128,-1.7199,-1.7199,-1.7157,-1.7115,-1.7044,-1.682,-1.6436,-1.5623,-1.4473,-1.3289,-1.381,-1.385,-1.3669,-1.3622,-1.3621,-1.3604,0.0,0.0,0.0,0.0,0.0,0.0,0.0,-0.8117,-0.8668,-0.8805,-1.0833,-1.2089,-1.1582,-1.2539,-1.2865,-1.2051,-1.2902,-1.4498,0.0,-1.9453,-2.2125,-2.4974,-2.737,-2.9319,-3.0689,-3.2156,-3.2937,-3.2988,-3.3857,-3.4413,-3.4653,-3.4813,-3.5032,-3.53,-3.5572,-3.5732,-3.5839,-3.6192,-3.6255,-3.6059,-3.5447,-3.5093,-3.4683,-3.2243,-3.1228,-3.0806,-2.8319,-2.7303,-2.7,-2.5882,-2.5425,-2.5293,-2.5165,-2.456,-2.3706,-2.2919,-2.2435,0.0,0.0,0.0,0.0,0.0,0.0,0.0,0.0,0.0,-2.1599,-2.138,-2.1253,-2.129,-2.1673,-2.155,-2.16,-2.2209,-2.2254,-2.2225,-2.2282,-2.218,-2.202,-2.1721,-2.123,-2.086,-2.0794,-2.0494,-2.0304,-2.0304,-2.0304,-2.027,-2.015,-2.01,-2.008,-2.0025,-1.9919,-1.9848,-1.9797,-1.9347,-1.8936,-1.85,-1.8028,-1.7598,-1.7199,-1.7199,-1.7199,-1.7199,-1.6947,-1.6863,-1.6778,-1.5656,-1.4617,-1.3752,-1.3658,-1.3393,-1.3057,-1.3476,-1.3621,-1.3683,0.0,0.0,0.0,0.0,0.0,0.0,0.0,0.0,-0.8657,-0.886,-1.0476,-1.1236,-1.024,-1.113,-1.1849,-1.1902,-1.3899,0.0,-1.7843,-2.0783,-2.345,-2.5764,-2.8688,-3.0659,-3.1541,-3.2948,-3.3792,-3.4043,-3.416,-3.4435,-3.487,-3.4889,-3.5037,-3.5331,-3.6051,-3.6464,-3.6646,-3.7538,-3.7519,-3.6871,-3.6904,-3.6481,-3.565,-3.3815,-3.2631,-3.1741,-2.9949,-2.8769,-2.7791,-2.6147,-2.5449,-2.5301,-2.5274,-2.505,-2.4726,-2.4544,0.0,-2.2239,-2.2006,-2.1256,-2.0676,-2.1206,-2.1404,-2.1639,0.0,0.0,-2.2064,-2.1583,-2.2028,-2.2366,-2.1954,-2.2048,-2.2209,-2.2293,-2.2049,-2.1961,-2.2254,-2.1797,-2.1401,-2.137,-2.1308,-2.1119,-2.0827,-2.0494,-2.0304,-2.0304,-2.0304,-2.0304,-2.027,-2.015,-2.0115,-2.008,-2.0025,-1.9919,-1.9797,-1.9493,-1.9072,-1.85,-1.8147,-1.772,-1.7199,-1.7199,-1.7199,-1.7157,-1.6625,-1.6355,-1.6269,-1.5197,-1.4606,-1.4365,-1.3941,-1.3684,-1.3548,-1.36,-1.3621,-1.3683,0.0,0.0,0.0,0.0,0.0,0.0,0.0,0.0,0.0,-0.8887,-0.9937,-1.0437,-0.9801,-0.987,-1.0149,-1.0582,-1.2423,0.0,-1.7223,-2.0254,-2.3354,-2.6485,-2.907,-3.1028,-3.2326,-3.3284,-3.3842,-3.3972,-3.4587,-3.5077,-3.5428,-3.6023,-3.6463,-3.6766,-3.7183,-3.7439,-3.7553,-3.8093,-3.7833,-3.7065,-3.7152,-3.6415,-3.5116,-3.3867,-3.2232,-3.0423,-2.921,-2.8203,0.0,0.0,-2.4783,-2.4609,-2.3974,-2.3716,-2.3495,-2.2874,-2.2892,0.0,-2.3422,-2.3145,0.0,0.0,-2.2588,-2.2857,-2.2732,-2.2958,-2.3109,-2.2888,-2.2886,-2.2855,-2.2639,-2.2435,-2.231,0.0,-2.218,-2.2152,-2.2282,-2.1886,-2.1584,-2.1584,-2.1261,-2.0877,-2.0527,-2.0373,-2.0304,-2.0304,-2.0304,-2.0304,-2.0304,-2.027,-2.022,-2.022,-2.0115,-2.0045,-1.9975,-1.9588,-1.9147,-1.8669,-1.8226,-1.776,-1.7308,-1.7253,-1.7199,-1.7199,-1.6934,-1.6625,-1.6269,-1.582,-1.5186,-1.4457,-1.4294,-1.3978,-1.3621,-1.3621,-1.3786,-1.4086,0.0,0.0,0.0,0.0,0.0,0.0,0.0,0.0,0.0,0.0,-0.9609,-1.0039,-0.9854,-0.9416,-0.9468,-1.0324,0.0,0.0,0.0,-1.9521,-2.2699,-2.633,-2.8599,-3.0636,-3.2456,-3.3138,-3.3587,-3.3807,-3.4811,-3.5349,-3.5469,-3.6411,-3.6938,-3.7094,-3.7433,-3.7767,-3.8061,-3.8249,-3.7961,-3.7408,-3.7005,-3.5841,-3.4187,-3.2842,-3.0856,-2.8736,-2.8097,-2.7148,0.0,0.0,-2.396,-2.3799,-2.2987,-2.2698,-2.2604,-2.2064,-2.2773,-2.3717,-2.3793,0.0,0.0,-2.3033,-2.3375,-2.3771,-2.3191,-2.3458,-2.3816,-2.3816,-2.3445,-2.3133,-2.3091,-2.2668,0.0,-2.231,-2.2237,-2.2209,-2.2282,-2.1961,-2.1691,-2.1661,-2.123,-2.0778,-2.0339,-2.0304,-2.0304,-2.0304,-2.0304,-2.0304,-2.0304,-2.0304,-2.0304,-2.0304,-2.022,-2.015,-2.01,-1.9818,-1.9369,-1.8784,-1.8383,-1.7922,-1.7404,-1.7253,-1.7199,-1.7199,-1.7199,-1.6934,-1.6539,-1.6411,-1.582,-1.4971,-1.4786,-1.4432,-1.4047,-1.399,-1.4128,-1.4386,0.0,0.0,0.0,0.0,0.0,0.0,0.0,0.0,0.0,0.0,0.0,0.0,0.0,-1.0169,-1.0555,0.0,0.0,0.0,0.0,-1.9058,-2.1721,-2.482,-2.7014,-2.9298,-3.1666,-3.232,-3.3036,-3.3807,-3.4614,-3.4851,-3.4564,-3.5371,-3.5586,-3.5324,-3.6165,-3.7064,-3.7921,-3.8054,-3.8169,-3.813,-3.6567,-3.4944,-3.3165,-3.0587,-2.8567,-2.7078,-2.7044,0.0,0.0,-2.3444,-2.3095,-2.3001,-2.2859,-2.2742,0.0,-2.353,-2.3701,-2.3447,0.0,0.0,-2.3167,-2.2868,-2.3394,-2.3996,-2.3959,-2.3937,-2.3896,-2.3896,-2.3531,-2.3175,-2.3109,-2.2721,-2.2394,-2.231,-2.2061,-2.1986,-2.2254,-2.1797,-2.1386,-2.1339,-2.1308,-2.1023,0.0,-2.0304,-2.0304,-2.0304,-2.0304,-2.0304,-2.0304,-2.0304,-2.0304,-2.0304,-2.0304,-2.022,-2.01,-2.022,-1.9782,-1.8784,-1.8717,-1.8212,-1.7404,-1.7253,-1.7199,-1.7199,-1.7199,-1.7199,-1.7157,-1.668,-1.6423,-1.6188,-1.5613,-1.527,-1.5132,-1.5037,-1.4676,-1.4438,0.0,0.0,0.0,0.0,0.0,0.0,0.0,0.0,0.0,0.0,0.0,0.0,0.0,0.0,0.0,0.0,0.0,0.0,0.0,-1.7261,-1.9716,-2.1825,-2.4848,-2.7397,-2.929,-3.0428,-3.1403,-3.221,-3.3135,-3.3948,-3.4588,-3.5522,-3.6292,-3.6871,-3.7271,-3.7656,-3.8003,-3.7549,-3.6778,-3.5756,-3.4675,-3.2854,-3.0594,-2.8548,-2.672,-2.5109,0.0,0.0,0.0,-2.2531,-2.2185,-2.2011,-2.1352,0.0,-2.1358,-2.263,-2.3397,-2.3821,0.0,0.0,-2.4134,-2.3805,-2.3892,-2.4074,-2.4074,-2.4016,-2.3976,-2.3976,-2.3232,-2.2571,-2.2463,-2.2118,-2.1841,-2.1727,-2.2055,-2.2304,-2.2349,-2.2003,-2.1721,-2.1631,-2.1245,0.0,0.0,0.0,0.0,-2.0304,-2.0304,-2.0304,-2.0304,-2.0304,-2.0304,-2.0304,-2.0304,-2.027,-2.022,-2.027,-2.001,-1.9384,-1.8664,-1.7988,-1.7404,-1.7253,-1.7199,-1.7212,-1.7617,-1.78,-1.7826,-1.8002,-1.7816,-1.7359,-1.6788,-1.6325,-1.5886,-1.568,-1.5499,-1.5405,0.0,0.0,0.0,0.0,0.0,0.0,0.0,0.0,0.0,0.0,0.0,0.0,0.0,0.0,0.0,0.0,0.0,0.0,0.0,0.0,-1.7687,-1.9601,-2.1975,-2.4147,-2.6061,-2.7086,-2.8029,-2.8864,-3.0109,-3.1169,-3.2015,-3.3261,-3.4261,-3.5035,-3.5129,-3.5432,-3.5792,-3.4708,-3.3686,-3.2674,-3.1544,-2.9713,-2.753,-2.6089,-2.4686,0.0,0.0,0.0,-2.2086,-2.1513,-2.1494,-2.1535,-2.0598,-2.0689,-2.1325,-2.2306,-2.3441,-2.4415,-2.4633,-2.4707,-2.4629,-2.4266,-2.417,-2.4151,-2.4151,-2.4094,-2.3963,-2.3669,-2.296,-2.2243,-2.1746,-2.1686,-2.1599,-2.143,-2.2036,-2.2515,-2.2405,-2.2147,-2.1899,-2.1811,-2.1417,0.0,0.0,0.0,0.0,-2.0339,-2.0304,-2.0304,-2.0304,-2.0304,-2.0304,-2.0304,-2.0304,-2.0304,-2.0304,-2.0304,-2.0045,-1.9566,-1.8574,-1.7881,-1.7556,-1.7505,-1.7408,-1.7238,-1.8048,-1.8283,-1.814,-1.8675,-1.8668,-1.8248,-1.769,-1.7217,-1.6809,-1.6321,-1.6119,-1.6129,0.0,0.0,0.0,0.0,0.0,0.0,0.0,0.0,0.0,0.0,0.0,0.0,0.0,0.0,0.0,0.0,0.0,0.0,0.0,0.0,0.0,-1.8071,-1.8591,-1.992,-2.2267,-2.2684,-2.3309,-2.4173,-2.5782,-2.6747,-2.7138,-2.8744,-2.9649,-2.995,-3.0068,-3.064,-3.1448,-2.9842,-2.922,-2.9162,-2.7452,-2.5796,-2.4238,-2.3361,0.0,0.0,0.0,0.0,0.0,0.0,0.0,0.0,0.0,-2.1451,-2.2677,-2.2677,-2.3861,-2.5101,-2.4798,-2.4707,-2.4629,-2.4266,-2.4209,-2.4209,-2.419,-2.4114,-2.3819,-2.3069,-2.2623,-2.2096,0.0,0.0,-2.167,-2.1456,-2.2072,-2.2569,-2.2432,-2.2186,-2.1969,0.0,0.0,0.0,0.0,0.0,0.0,-2.0339,0.0,-2.0304,-2.0304,-2.0304,-2.0304,-2.0304,-2.0304,-2.0304,-2.0304,-2.0304,-1.9995,-1.9369,-1.8535,-1.8001,-1.7774,-1.7959,-1.7761,-1.7303,-1.8427,-1.8623,-1.8231,-1.8767,-1.8989,-1.8903,-1.8239,-1.795,-1.7866,-1.6927,-1.6616,-1.6581,0.0,0.0,0.0,0.0,0.0,0.0,0.0,0.0,0.0,0.0,0.0,0.0,0.0,0.0,0.0,0.0,0.0,0.0,0.0,0.0,0.0,0.0,0.0,0.0,0.0,0.0,0.0,-2.2508,-2.3135,-2.3823,-2.4563,-2.512,-2.5786,-2.6504,-2.7163,-2.7692,-2.8051,-2.7627,-2.7134,-2.6576,0.0,-2.4394,-2.3341,0.0,0.0,0.0,0.0,0.0,0.0,0.0,0.0,0.0,0.0,-2.2777,-2.3577,-2.3575,-2.4231,-2.4934,-2.4734,-2.4707,-2.4629,-2.4266,-2.4266,-2.4321,-2.4228,-2.3712,-2.3235,-2.3015,-2.1917,-2.1025,0.0,0.0,0.0,-2.1505,-2.2177,0.0,-2.2569,-2.2497,0.0,0.0,0.0,-2.1448,-2.1261,-2.0811,0.0,0.0,-2.0304,-2.0304,-2.0304,-2.0304,-2.0304,-2.0304,-2.0304,-2.0304,-2.0304,-2.0304,-1.9904,-1.9161,-1.8741,-1.8198,-1.7557,-1.7481,-1.7591,-1.7904,-1.8597,-1.9081,-1.9407,-1.9982,-2.0253,-2.0116,-1.9058,-1.8666,-1.8536,-1.7218,-1.6775,-1.6705,0.0,0.0,0.0,0.0,0.0,0.0,0.0,0.0,0.0,0.0,0.0,0.0,0.0,0.0,0.0,0.0,0.0,0.0,0.0,0.0,0.0,0.0,0.0,0.0,0.0,0.0,0.0,0.0,0.0,0.0,-2.0986,-2.1471,-2.2163,-2.3036,-2.3946,-2.4432,-2.4548,-2.4597,0.0,0.0,0.0,0.0,0.0,0.0,0.0,0.0,0.0,0.0,0.0,0.0,0.0,-2.1751,-2.2873,-2.3541,-2.3892,-2.39,0.0,-2.4874,-2.4753,-2.4626,-2.4512,-2.4247,-2.4266,-2.421,-2.3768,-2.3327,-2.2777,-2.2043,-2.1163,0.0,0.0,0.0,0.0,0.0,0.0,0.0,-2.2605,-2.2605,-2.2596,0.0,-2.1986,0.0,-2.1417,-2.0877,-2.0475,0.0,0.0,-2.0304,-2.0304,-2.0304,-2.0304,-2.0304,-2.0304,-2.0304,-2.0304,-2.0304,-1.994,-1.9236,-1.8855,-1.8316,-1.7639,-1.76,-1.763,-1.7761,0.0,-1.9342,-1.9473,-2.0358,-2.0699,-2.0573,-1.9409,-1.897,-1.8845,-1.7418,-1.6895,-1.6853,0.0,0.0,0.0,0.0,0.0,0.0,0.0,0.0,0.0,0.0,0.0,0.0,0.0,0.0,0.0,0.0,0.0,0.0,0.0,0.0,0.0,0.0,0.0,0.0,0.0,0.0,0.0,0.0,0.0,0.0,0.0,0.0,0.0,0.0,0.0,0.0,0.0,0.0,0.0,0.0,0.0,0.0,0.0,0.0,0.0,0.0,0.0,0.0,0.0,0.0,-2.2257,-2.1952,-2.3558,-2.4072,-2.4072,-2.4072,-2.4442,-2.4847,-2.4719,-2.4543,-2.4373,-2.4228,-2.4135,-2.3879,-2.3162,-2.2813,-2.2245,-2.0796,0.0,0.0,-1.9093,0.0,-2.0766,-2.0586,0.0,-2.2582,-2.2605,-2.2605,-2.2579,-2.2525,-2.213,-2.1735,-2.1448,-2.1007,-2.0595,-2.0304,-2.0304,-2.0304,-2.0304,-2.0304,-2.0304,-2.0304,-2.0304,-2.0304,-2.0304,-2.0235,-1.994,-1.9332,-1.8855,-1.8316,-1.7774,-1.7985,-1.7852,-1.7512,0.0,0.0,-1.9211,-2.028,-2.0699,-2.0599,-1.9426,-1.898,-1.8815,-1.7478,-1.7013,-1.6955,0.0,0.0,0.0,0.0,0.0,0.0,0.0,0.0,0.0,0.0,0.0,0.0,0.0,0.0,0.0,0.0,0.0,0.0,0.0,0.0,0.0,0.0,0.0,0.0,0.0,0.0,0.0,0.0,0.0,0.0,0.0,0.0,0.0,0.0,0.0,0.0,0.0,0.0,0.0,0.0,0.0,0.0,0.0,0.0,0.0,0.0,0.0,0.0,0.0,0.0,-2.2161,-2.2853,-2.4468,-2.4973,-2.4965,-2.4962,-2.4853,-2.4719,-2.4707,-2.4543,-2.4373,-2.4228,-2.3786,-2.3302,-2.307,-2.1915,0.0,0.0,0.0,-1.9342,-1.9645,-1.9788,0.0,-2.1219,0.0,0.0,0.0,0.0,-2.2685,0.0,0.0,0.0,0.0,0.0,0.0,0.0,0.0,0.0,-2.0304,-2.0304,-2.0304,-2.0304,-2.0304,-2.0304,-2.0304,-1.9975,-1.9566,-1.9124,-1.8511,-1.7961,-1.757,-1.7942,-1.8283,-1.8649,0.0,0.0,-2.0411,-2.062,-2.0699,-2.0597,-1.9384,-1.8927,-1.8833,-1.7463,-1.6983,-1.6955,0.0,0.0,0.0,0.0,0.0,0.0,0.0,0.0,0.0,0.0,0.0,0.0,0.0,0.0,0.0,0.0,0.0,0.0,0.0,0.0,0.0,0.0,0.0,0.0,0.0,0.0,0.0,0.0,0.0,0.0,0.0,0.0,0.0,0.0,0.0,0.0,0.0,0.0,0.0,0.0,0.0,0.0,0.0,0.0,0.0,0.0,0.0,0.0,0.0,0.0,-2.1818,-2.2365,-2.4017,-2.4828,-2.5172,-2.5069,-2.4879,-2.4692,-2.4559,-2.4426,-2.4284,-2.4209,-2.3953,-2.3491,-2.2574,0.0,0.0,0.0,0.0,-1.9073,-1.9289,0.0,0.0,0.0,0.0,0.0,0.0,0.0,0.0,0.0,0.0,0.0,0.0,0.0,0.0,0.0,0.0,0.0,0.0,-2.0304,-2.0474,-2.0828,-2.0489,-2.0304,-2.0304,-1.9904,-1.942,-1.8884,-1.8691,-1.8289,-1.7853,-1.8301,-1.8662,-1.8937,0.0,0.0,-2.0244,-2.0581,-2.0699,-2.0623,-1.9712,-1.9202,-1.8898,-1.7936,-1.7422,-1.7088,0.0,0.0,0.0,0.0,0.0,0.0,0.0,0.0,-1.0821,-1.2203,-1.2285,-1.2293,-1.2481,-1.2258,0.0,0.0,0.0,0.0,0.0,0.0,0.0,0.0,0.0,0.0,0.0,0.0,0.0,0.0,0.0,0.0,0.0,0.0,0.0,0.0,0.0,0.0,0.0,0.0,0.0,0.0,0.0,0.0,0.0,0.0,0.0,0.0,0.0,0.0,0.0,0.0,-2.1378,-2.1656,-2.2955,-2.3938,-2.4652,-2.4638,-2.4544,-2.4417,-2.4403,-2.4284,-2.419,-2.419,-2.3933,-2.3345,-2.2097,-2.1527,0.0,0.0,-1.9081,-1.8895,-1.877,0.0,0.0,0.0,0.0,0.0,0.0,0.0,0.0,0.0,0.0,0.0,0.0,0.0,0.0,0.0,0.0,0.0,0.0,-2.0659,-2.0905,-2.1306,-2.0798,-2.0458,-2.0304,-1.9904,-1.9369,-1.8741,-1.8904,-1.8694,-1.8144,-1.8793,-1.9094,-1.9133,0.0,0.0,0.0,-2.0515,-2.0699,-2.0649,-2.0016,-1.9448,-1.8934,-1.8321,-1.7733,-1.7278,0.0,0.0,0.0,0.0,0.0,0.0,0.0,0.0,-1.0753,-1.2448,-1.1877,-1.171,-1.2746,-1.2729,0.0,0.0,0.0,0.0,0.0,0.0,0.0,0.0,0.0,0.0,0.0,0.0,0.0,0.0,0.0,0.0,0.0,0.0,0.0,0.0,0.0,0.0,0.0,0.0,0.0,0.0,0.0,0.0,0.0,0.0,0.0,0.0,0.0,0.0,0.0,0.0,0.0,-2.151,-2.1598,-2.219,-2.2961,-2.3613,0.0,0.0,-2.4236,-2.4284,-2.419,-2.419,-2.3088,-2.1986,-2.1839,0.0,0.0,-1.9101,-1.8913,-1.8752,-1.8563,-1.8432,0.0,0.0,0.0,0.0,0.0,0.0,0.0,0.0,0.0,0.0,0.0,0.0,0.0,0.0,0.0,0.0,0.0,-2.1778,-2.1855,-2.1337,-2.126,-2.0936,-2.0304,-1.9904,-1.9406,-1.8893,-1.8944,-1.8723,-1.8218,-1.9258,-1.9721,-1.9747,0.0,0.0,0.0,-2.0686,-2.0699,-2.0649,-2.0016,-1.9448,-1.8934,-1.8321,-1.7733,-1.7278,0.0,0.0,0.0,0.0,0.0,0.0,0.0,0.0,-1.1058,-1.2406,-1.2582,-1.2746,-1.3156,-1.326,0.0,0.0,0.0,0.0,0.0,0.0,0.0,0.0,0.0,0.0,0.0,0.0,0.0,0.0,0.0,0.0,0.0,0.0,0.0,0.0,0.0,0.0,0.0,0.0,0.0,0.0,0.0,0.0,0.0,0.0,0.0,0.0,0.0,0.0,0.0,0.0,0.0,0.0,-2.0623,-2.0843,0.0,0.0,-2.3065,-2.3431,-2.3543,-2.386,-2.408,-2.3602,-2.2997,-2.2263,-2.1253,0.0,0.0,-1.9303,-1.8982,-1.877,-1.8715,-1.8423,-1.8276,0.0,0.0,0.0,0.0,0.0,0.0,0.0,0.0,0.0,0.0,0.0,0.0,0.0,0.0,0.0,0.0,0.0,-2.1978,-2.1301,-2.1322,-2.0998,-2.032,-1.9904,-1.9406,-1.8793,-1.9308,-1.9222,-1.8642,-1.9834,-2.0358,0.0,0.0,0.0,0.0,-2.0699,-2.0699,-2.0662,-2.0448,-1.9965,-1.9396,-1.8869,-1.8224,-1.759,0.0,0.0,0.0,0.0,0.0,0.0,-0.9363,-1.0335,-1.1287,-1.2118,-1.2628,-1.2968,-1.3127,-1.3098,-1.2916,-1.253,0.0,0.0,0.0,0.0,0.0,0.0,0.0,0.0,0.0,0.0,0.0,0.0,0.0,0.0,0.0,0.0,0.0,0.0,0.0,0.0,0.0,0.0,0.0,0.0,0.0,0.0,0.0,0.0,0.0,0.0,0.0,0.0,0.0,0.0,0.0,0.0,0.0,0.0,0.0,0.0,-2.2234,-2.2724,-2.2939,-2.3235,-2.34,-2.3052,-2.2612,-2.1951,0.0,0.0,0.0,-1.9241,-1.8913,-1.8715,-1.8584,-1.8325,-1.813,0.0,0.0,0.0,0.0,0.0,0.0,0.0,0.0,0.0,0.0,0.0,0.0,0.0,0.0,0.0,0.0,0.0,-2.2609,-2.1353,-2.1322,-2.0998,-2.032,-1.9904,-1.9457,-1.8988,-1.96,-1.9638,-1.9198,-2.0253,-2.0699,0.0,0.0,0.0,0.0,-2.0699,-2.0699,-2.0699,-2.0699,-2.0334,-1.9747,-1.9121,-1.8494,-1.7799,0.0,0.0,0.0,0.0,0.0,0.0,0.0,0.0,-1.1313,-1.1572,-1.1568,-1.1804,-1.2526,-1.2029,-1.2057,-1.3084,0.0,0.0,0.0,0.0,0.0,0.0,0.0,0.0,0.0,0.0,0.0,0.0,0.0,0.0,0.0,0.0,0.0,0.0,0.0,0.0,0.0,0.0,0.0,0.0,0.0,0.0,0.0,0.0,0.0,0.0,0.0,0.0,0.0,0.0,0.0,0.0,0.0,0.0,0.0,0.0,-2.0926,-2.1232,-2.2626,-2.2428,-2.2006,-2.2722,-2.1696,-2.049,0.0,0.0,0.0,-1.8679,-1.8604,-1.8487,-1.8074,-1.8005,-1.8005,-1.8005,-1.862,0.0,0.0,0.0,0.0,0.0,0.0,0.0,0.0,0.0,0.0,0.0,0.0,0.0,0.0,0.0,-2.4056,-2.1362,-2.1322,-2.0998,-2.032,-1.9904,-1.9641,-1.9575,-1.9809,-1.9867,-1.9812,-2.0437,0.0,0.0,0.0,0.0,0.0,-2.0699,-2.0699,-2.0699,-2.0699,-2.0334,-1.9695,-1.898,-1.8363,-1.7799,0.0,0.0,0.0,0.0,0.0,0.0,0.0,0.0,-1.078,-1.0965,-1.1413,-1.1941,-1.2607,-1.2611,-1.2901,-1.3739,0.0,0.0,0.0,0.0,0.0,0.0,0.0,0.0,0.0,0.0,0.0,0.0,0.0,0.0,0.0,0.0,0.0,0.0,0.0,0.0,0.0,0.0,0.0,0.0,0.0,0.0,0.0,0.0,0.0,0.0,0.0,0.0,0.0,0.0,0.0,0.0,0.0,0.0,0.0,-1.9875,-2.0299,-2.0841,-2.1195,-2.1512,-2.1659,-2.133,-2.0837,-2.0292,-1.9711,0.0,0.0,-1.8825,-1.8585,-1.8351,-1.8225,-1.8095,-1.7983,-1.7944,-1.8126,0.0,0.0,0.0,0.0,0.0,0.0,0.0,0.0,0.0,0.0,0.0,0.0,0.0,0.0,0.0,0.0,-2.204,-2.1963,-2.1387,-2.02,-2.0487,-2.0213,-1.9324,-2.0359,-2.0436,-1.9699,0.0,0.0,0.0,0.0,0.0,0.0,-2.0699,-2.0699,-2.0699,-2.0699,-2.0599,-2.0283,-1.9137,-1.8513,-1.8159,0.0,0.0,0.0,0.0,0.0,0.0,0.0,0.0,-1.0597,-1.0621,-1.1154,-1.1805,-1.2544,-1.2712,-1.3105,-1.394,0.0,0.0,0.0,0.0,0.0,0.0,0.0,0.0,0.0,0.0,0.0,0.0,0.0,0.0,0.0,0.0,0.0,0.0,0.0,0.0,0.0,0.0,0.0,0.0,0.0,0.0,-2.0461,0.0,0.0,0.0,0.0,0.0,0.0,0.0,0.0,0.0,0.0,0.0,0.0,0.0,-1.973,-2.0194,0.0,-2.0601,-2.0693,-2.0511,-2.0184,0.0,0.0,0.0,0.0,0.0,-1.8471,-1.8191,-1.8125,-1.8009,-1.8002,-1.8234,-1.8523,0.0,0.0,0.0,0.0,0.0,0.0,0.0,0.0,0.0,0.0,0.0,0.0,0.0,0.0,0.0,0.0,-2.3471,-2.2686,-2.1833,-2.0864,-2.0707,-2.0315,-1.9652,-1.9978,-1.9966,-1.9693,0.0,0.0,0.0,0.0,0.0,0.0,-2.0699,-2.0699,-2.0699,-2.0699,-2.0549,-2.022,-1.9085,-1.8513,-1.8038,0.0,0.0,0.0,0.0,0.0,0.0,0.0,0.0,0.0,0.0,0.0,-1.1447,-1.2297,-1.2399,0.0,0.0,0.0,0.0,0.0,0.0,0.0,0.0,0.0,0.0,0.0,0.0,0.0,-1.4929,-1.5057,-1.518,-1.5306,0.0,0.0,0.0,0.0,0.0,0.0,0.0,0.0,0.0,0.0,-1.8235,0.0,0.0,0.0,0.0,0.0,0.0,0.0,0.0,0.0,0.0,0.0,0.0,0.0,0.0,0.0,0.0,0.0,-1.9732,-1.935,-2.0098,-1.9682,-1.9049,0.0,0.0,0.0,0.0,0.0,0.0,0.0,-1.7845,-1.8115,-1.8792,0.0,0.0,0.0,0.0,0.0,0.0,0.0,0.0,0.0,0.0,0.0,0.0,0.0,0.0,0.0,0.0,0.0,0.0,-2.344,-2.2325,-2.2003,-2.0666,-2.0105,-2.0288,-1.8952,-1.8798,-1.9729,0.0,0.0,0.0,0.0,0.0,0.0,-2.0699,-2.0699,-2.0699,-2.0699,-2.0334,-1.9695,-1.898,-1.8298,-1.7611,0.0,0.0,0.0,0.0,0.0,0.0,0.0,0.0,0.0,0.0,0.0,0.0,0.0,0.0,0.0,0.0,0.0,0.0,0.0,0.0,0.0,0.0,0.0,0.0,0.0,0.0,0.0,-1.4153,-1.4898,-1.5263,-1.531,-1.5351,0.0,0.0,0.0,0.0,0.0,0.0,0.0,0.0,-1.8628,-1.9248,0.0,0.0,0.0,0.0,-2.001,-1.9985,0.0,0.0,0.0,0.0,0.0,0.0,0.0,0.0,-1.9137,-1.9123,-1.9165,0.0,-1.8931,-1.9129,-1.8895,-1.8641,0.0,0.0,0.0,0.0,0.0,0.0,0.0,0.0,0.0,0.0,0.0,0.0,0.0,0.0,0.0,0.0,0.0,0.0,0.0,0.0,0.0,0.0,0.0,0.0,0.0,0.0,0.0,0.0,-2.4254,-2.2943,-2.1272,-2.1011,-2.0389,-1.9421,-1.939,-1.9202,0.0,0.0,0.0,0.0,0.0,0.0,0.0,-2.0699,-2.0699,-2.0699,-2.0699,-2.0334,-1.9695,-1.898,-1.8298,-1.7611,0.0,0.0,0.0,0.0,0.0,0.0,0.0,0.0,0.0,0.0,0.0,0.0,0.0,0.0,0.0,0.0,0.0,0.0,0.0,0.0,0.0,0.0,0.0,0.0,0.0,0.0,0.0,0.0,0.0,-1.547,0.0,0.0,0.0,0.0,0.0,0.0,0.0,0.0,0.0,0.0,-1.8651,0.0,0.0,0.0,0.0,0.0,-1.9941,-1.9903,0.0,-1.9701,-1.9623,-1.9555,0.0,0.0,0.0,0.0,-1.9036,-1.8932,-1.8824,-1.8788,-1.8789,-1.8697,-1.8584,-1.8485,-1.8485,0.0,0.0,0.0,0.0,0.0,0.0,0.0,0.0,0.0,0.0,0.0,0.0,0.0,0.0,0.0,0.0,0.0,0.0,0.0,0.0,0.0,0.0,0.0,0.0,0.0,0.0,0.0,0.0,-2.3232,-2.1565,-2.1137,-2.0251,-1.8976,-1.867,-1.8505,0.0,0.0,0.0,0.0,0.0,0.0,-2.0699,-2.0699,-2.0699,-2.0649,-2.0385,-1.9914,-1.9344,-1.8578,-1.7875,-1.7234,0.0,0.0,0.0,0.0,0.0,0.0,0.0,0.0,0.0,0.0,0.0,0.0,0.0,0.0,0.0,0.0,0.0,0.0,0.0,0.0,0.0,0.0,0.0,0.0,0.0,0.0,0.0,0.0,0.0,0.0,0.0,0.0,-1.5527,0.0,0.0,0.0,0.0,0.0,0.0,0.0,0.0,0.0,0.0,0.0,0.0,0.0,0.0,0.0,0.0,-1.9641,-1.9541,-1.9499,-1.9298,0.0,0.0,0.0,0.0,0.0,-1.8751,-1.8714,-1.8657,-1.8485,-1.8426,-1.8385,-1.8385,0.0,0.0,0.0,0.0,0.0,0.0,0.0,0.0,0.0,0.0,0.0,0.0,0.0,0.0,0.0,0.0,0.0,0.0,0.0,0.0,0.0,0.0,0.0,0.0,0.0,0.0,0.0,0.0,0.0,-2.1946,-2.104,-2.0006,-1.8888,-1.7765,-1.7565,-1.8218,0.0,0.0,0.0,0.0,0.0,-2.0699,-2.0699,-2.0699,-2.0649,-2.0016,-1.9448,-1.8934,-1.817,-1.7412,-1.6751,0.0,0.0,0.0,0.0,0.0,0.0,0.0,0.0,0.0,0.0,0.0,0.0,0.0,0.0,0.0,0.0,0.0,0.0,0.0,0.0,0.0,0.0,0.0,0.0,0.0,0.0,0.0,0.0,0.0,0.0,-1.5502,-1.6191,-1.6119,-1.5404,0.0,0.0,0.0,0.0,0.0,-2.0164,0.0,0.0,0.0,0.0,0.0,0.0,0.0,0.0,0.0,-1.9442,-1.932,-1.9227,-1.8966,0.0,0.0,0.0,0.0,0.0,-1.8485,-1.8301,-1.8138,-1.8149,-1.798,-1.7844,0.0,0.0,0.0,0.0,0.0,0.0,0.0,0.0,0.0,0.0,0.0,0.0,0.0,0.0,0.0,0.0,0.0,0.0,0.0,0.0,0.0,0.0,0.0,0.0,0.0,0.0,0.0,0.0,0.0,0.0,0.0,-2.0553,-2.0088,-1.9452,-1.7922,-1.7748,-1.8767,-1.831,0.0,0.0,0.0,0.0,-2.0699,-2.0699,-2.0699,-2.0649,-2.0016,-1.9448,-1.8934,-1.817,-1.7412,-1.6761,0.0,0.0,0.0,0.0,0.0,0.0,0.0,0.0,0.0,0.0,0.0,0.0,0.0,0.0,0.0,0.0,0.0,0.0,0.0,0.0,0.0,0.0,0.0,0.0,0.0,0.0,0.0,0.0,0.0,-1.613,-1.664,-1.6177,-1.5721,-1.5335,0.0,0.0,-1.7838,0.0,-1.8674,-2.0214,0.0,0.0,0.0,0.0,0.0,0.0,0.0,0.0,0.0,0.0,-1.918,-1.9067,-1.8843,0.0,0.0,0.0,0.0,0.0,-1.8222,-1.7966,-1.7743,-1.7822,-1.776,0.0,0.0,0.0,0.0,0.0,0.0,0.0,0.0,0.0,0.0,0.0,0.0,0.0,0.0,0.0,0.0,0.0,0.0,0.0,0.0,0.0,0.0,0.0,0.0,0.0,0.0,0.0,0.0,0.0,0.0,0.0,0.0,-1.9724,-1.9273,-1.8777,-1.7689,-1.7473,-1.7983,-1.8061,-1.8545,0.0,0.0,-2.0126,-2.0699,-2.0699,-2.0699,-2.0599,-1.972,-1.9121,-1.8685,-1.7611,-1.692,-1.6545,0.0,0.0,0.0,0.0,0.0,0.0,0.0,0.0,0.0,0.0,0.0,0.0,0.0,0.0,0.0,0.0,0.0,0.0,0.0,0.0,0.0,0.0,0.0,0.0,0.0,0.0,-1.6034,-1.7419,-1.6392,-1.6456,-1.7494,-1.6011,-1.5407,0.0,0.0,0.0,-1.8005,-1.7911,-1.858,-1.9736,0.0,0.0,0.0,0.0,0.0,0.0,0.0,0.0,0.0,0.0,0.0,0.0,0.0,0.0,0.0,-1.851,-1.8293,-1.8061,-1.7988,-1.7743,-1.7512,-1.7559,0.0,0.0,0.0,0.0,0.0,0.0,0.0,0.0,0.0,0.0,0.0,0.0,0.0,0.0,0.0,0.0,0.0,0.0,0.0,0.0,0.0,0.0,0.0,0.0,0.0,0.0,0.0,0.0,0.0,0.0,0.0,0.0,0.0,-1.9092,-1.8705,-1.8493,-1.7617,-1.7342,-1.7617,-1.8074,-1.8506,-1.8937,-1.9538,-2.0048,-2.0502,-2.0502,-2.0403,-2.0254,-1.9294,-1.8632,-1.807,-1.7011,-1.6534,-1.6384,0.0,0.0,0.0,0.0,0.0,0.0,0.0,0.0,0.0,0.0,0.0,0.0,0.0,0.0,0.0,0.0,0.0,0.0,0.0,0.0,0.0,0.0,0.0,0.0,0.0,-1.5959,-1.6461,-1.6581,-1.7275,-1.7304,-1.6666,-1.5746,-1.5694,-1.6416,0.0,0.0,-1.864,-1.8622,-1.8659,-1.8736,-1.9159,0.0,0.0,0.0,0.0,0.0,0.0,0.0,0.0,0.0,0.0,0.0,0.0,0.0,-1.8249,-1.8368,-1.81,-1.7755,-1.7883,-1.7715,-1.7498,-1.7498,0.0,0.0,0.0,0.0,0.0,0.0,0.0,0.0,0.0,0.0,0.0,0.0,0.0,0.0,0.0,0.0,0.0,0.0,0.0,0.0,0.0,0.0,0.0,0.0,0.0,0.0,0.0,0.0,0.0,0.0,0.0,0.0,0.0,0.0,-1.9166,-1.9669,-1.7996,-1.7748,-1.878,-1.8819,-1.8872,-1.8937,-1.9538,-1.9826,-1.9865,-1.9865,-1.961,-1.9182,-1.8839,-1.7918,-1.674,-1.6627,-1.6534,-1.6384,0.0,0.0,0.0,0.0,0.0,0.0,0.0,0.0,0.0,0.0,0.0,0.0,0.0,0.0,0.0,0.0,0.0,0.0,0.0,0.0,0.0,0.0,0.0,-1.3403,-1.4381,-1.5245,-1.5982,-1.6555,-1.689,-1.6622,-1.5795,-1.5917,0.0,0.0,0.0,0.0,0.0,-1.8572,-1.8727,-1.9048,-1.9169,-1.8995,0.0,0.0,0.0,0.0,0.0,0.0,0.0,0.0,-1.843,-1.8284,-1.8225,-1.8142,-1.8095,-1.8155,-1.7927,-1.7687,-1.7669,-1.7417,-1.7248,-1.7451,0.0,0.0,0.0,0.0,0.0,0.0,0.0,0.0,0.0,0.0,0.0,0.0,0.0,0.0,0.0,0.0,0.0,0.0,0.0,0.0,0.0,0.0,0.0,0.0,0.0,0.0,0.0,0.0,0.0,0.0,0.0,0.0,0.0,0.0,-1.8519,-1.8728,-1.8074,-1.8166,-1.8898,-1.8558,-1.8584,-1.8937,-1.9538,-1.9799,-1.9777,-1.9821,-1.9446,-1.8846,-1.7845,-1.6927,-1.6171,-1.6419,-1.6431,-1.6384,0.0,0.0,0.0,0.0,0.0,0.0,0.0,0.0,0.0,0.0,0.0,0.0,0.0,0.0,0.0,0.0,0.0,0.0,0.0,0.0,0.0,0.0,0.0,-1.2463,-1.3199,-1.3992,-1.4993,-1.619,-1.6197,-1.5874,-1.5279,0.0,0.0,0.0,0.0,0.0,0.0,-1.8733,-1.8726,-1.8837,-1.8924,-1.8734,0.0,0.0,0.0,0.0,0.0,0.0,0.0,0.0,-1.8023,-1.7878,-1.791,-1.7888,-1.7856,-1.7856,-1.7681,-1.7455,-1.737,-1.7158,-1.7083,0.0,0.0,0.0,0.0,0.0,0.0,0.0,0.0,0.0,0.0,0.0,0.0,0.0,0.0,0.0,0.0,0.0,0.0,0.0,0.0,0.0,0.0,0.0,0.0,0.0,0.0,0.0,0.0,0.0,0.0,0.0,0.0,0.0,0.0,0.0,-1.81,-1.81,-1.81,-1.8296,-1.8649,-1.844,-1.8466,-1.8675,-1.9264,-1.942,-1.9256,-1.9268,-1.8858,-1.8133,-1.6632,-1.5935,-1.5886,-1.6254,-1.6384,-1.6425,0.0,0.0,0.0,0.0,0.0,0.0,0.0,0.0,0.0,0.0,0.0,0.0,0.0,0.0,0.0,0.0,0.0,0.0,0.0,0.0,0.0,0.0,0.0,-1.1345,-1.1487,-1.2275,-1.3554,-1.5272,-1.5287,-1.526,-1.521,-1.5891,0.0,0.0,0.0,0.0,0.0,-1.9276,-1.8669,-1.7864,-1.8321,-1.8011,-1.7397,0.0,0.0,0.0,0.0,0.0,0.0,0.0,-1.7432,-1.7566,-1.7368,-1.7392,-1.7486,-1.7486,-1.7248,-1.6993,-1.6993,-1.6993,0.0,0.0,0.0,0.0,0.0,0.0,0.0,0.0,0.0,0.0,0.0,0.0,0.0,0.0,0.0,0.0,0.0,0.0,0.0,0.0,0.0,0.0,0.0,0.0,0.0,0.0,0.0,0.0,0.0,0.0,0.0,0.0,0.0,0.0,0.0,0.0,-1.81,-1.8087,-1.8087,-1.81,-1.8127,-1.8662,-1.861,-1.814,-1.8675,-1.861,-1.8109,-1.8092,-1.7639,-1.6815,-1.5174,-1.4987,-1.5732,-1.6198,-1.6374,-1.6508,0.0,0.0,0.0,0.0,0.0,0.0,0.0,0.0,0.0,0.0,0.0,0.0,0.0,0.0,0.0,0.0,0.0,0.0,0.0,0.0,0.0,0.0,0.0,0.0,0.0,0.0,-1.2944,-1.3464,-1.4046,-1.4596,0.0,0.0,0.0,-1.8324,0.0,0.0,-1.9276,-1.903,-1.8681,-1.8303,-1.8226,-1.7987,-1.7684,0.0,0.0,0.0,0.0,0.0,0.0,0.0,0.0,0.0,-1.7272,-1.7224,-1.7191,-1.732,-1.7305,-1.715,-1.6866,-1.7088,0.0,0.0,0.0,0.0,0.0,0.0,0.0,0.0,0.0,0.0,0.0,0.0,0.0,0.0,0.0,0.0,0.0,0.0,0.0,0.0,0.0,0.0,0.0,0.0,0.0,0.0,0.0,0.0,0.0,0.0,0.0,0.0,0.0,0.0,0.0,0.0,0.0,-1.7473,-1.7473,-1.8114,-1.9277,-1.8623,-1.8689,-1.9303,-1.9473,-1.9447,-1.9209,-1.8265,-1.703,-1.5656,-1.5101,-1.4821,-1.4811,-1.5597,-1.6094,-1.6467,0.0,0.0,0.0,0.0,0.0,0.0,0.0,0.0,0.0,0.0,-1.1429,-1.1637,0.0,0.0,0.0,0.0,0.0,0.0,0.0,0.0,0.0,0.0,0.0,0.0,0.0,-1.2003,-1.2666,0.0,0.0,0.0,0.0,0.0,0.0,-1.8523,0.0,-1.9093,0.0,-1.8643,-1.843,-1.831,-1.7941,-1.7738,-1.7635,0.0,0.0,0.0,0.0,0.0,0.0,0.0,0.0,0.0,-1.6757,0.0,-1.6799,-1.6876,-1.6866,-1.6833,-1.6874,0.0,0.0,0.0,0.0,0.0,0.0,0.0,0.0,0.0,0.0,0.0,0.0,0.0,0.0,0.0,0.0,0.0,0.0,0.0,0.0,0.0,0.0,0.0,0.0,0.0,0.0,0.0,0.0,0.0,0.0,0.0,0.0,0.0,0.0,0.0,0.0,0.0,0.0,0.0,-1.7199,-1.7878,-1.9107,-1.8636,-1.8675,-1.9133,-1.9133,-1.9085,-1.897,-1.7929,-1.6712,-1.5437,-1.5112,-1.4945,-1.4945,-1.5691,-1.6146,-1.6498,0.0,0.0,1.1247,1.1285,0.0,0.0,0.0,0.0,0.0,0.0,-1.1423,-1.1564,0.0,0.0,0.0,0.0,0.0,0.0,0.0,0.0,0.0,0.0,0.0,0.0,0.0,0.0,0.0,0.0,0.0,0.0,0.0,0.0,-1.8298,-1.8194,0.0,-1.8877,-1.8679,-1.8173,-1.795,-1.7881,-1.7369,-1.7197,-1.7261,-1.7261,0.0,0.0,0.0,0.0,0.0,0.0,0.0,0.0,-1.6037,-1.6203,-1.6448,-1.6313,-1.6191,-1.6276,0.0,0.0,0.0,0.0,0.0,0.0,0.0,0.0,0.0,0.0,0.0,0.0,0.0,0.0,0.0,0.0,0.0,0.0,0.0,0.0,0.0,0.0,0.0,0.0,0.0,0.0,0.0,0.0,0.0,0.0,0.0,0.0,0.0,0.0,0.0,0.0,0.0,0.0,0.0,0.0,-1.7199,-1.7486,-1.8035,-1.8636,-1.8662,-1.8244,-1.82,-1.8078,-1.784,-1.7243,-1.653,-1.5773,-1.5257,-1.5266,-1.5628,-1.6125,-1.6343,-1.656,0.0,0.0,1.1415,1.1316,0.0,0.0,0.0,0.0,0.0,0.0,0.0,0.0,0.0,0.0,0.0,0.0,0.0,0.0,0.0,0.0,0.0,0.0,0.0,0.0,0.0,0.0,0.0,0.0,0.0,0.0,0.0,0.0,0.0,-1.799,0.0,-1.8512,-1.8094,-1.7871,-1.7311,-1.6553,-1.6144,-1.6064,-1.6207,-1.612,-1.6253,0.0,0.0,0.0,0.0,0.0,0.0,0.0,-1.5927,-1.6163,-1.6301,-1.6108,-1.6163,-1.6345,0.0,0.0,0.0,0.0,0.0,0.0,0.0,0.0,0.0,0.0,0.0,0.0,0.0,0.0,0.0,0.0,0.0,0.0,0.0,0.0,0.0,0.0,0.0,0.0,0.0,0.0,0.0,0.0,0.0,0.0,0.0,0.0,0.0,0.0,0.0,0.0,0.0,0.0,-1.7199,0.0,-1.7199,-1.7264,-1.7421,-1.844,-1.9047,-1.9266,-1.8885,-1.8302,-1.7519,-1.7001,-1.6134,-1.5216,-1.5442,-1.5152,-1.4707,-1.5535,-1.6063,-1.6477,0.0,0.0,0.0,0.0,0.0,0.0,0.0,0.0,0.0,0.0,0.0,0.0,0.0,0.0,0.0,0.0,0.0,0.0,0.0,0.0,-1.3458,-1.3283,0.0,0.0,0.0,0.0,0.0,0.0,0.0,0.0,0.0,0.0,0.0,-1.7104,0.0,-1.7349,-1.6593,-1.6459,-1.6022,-1.5408,-1.5019,-1.4914,-1.497,-1.5274,-1.5278,-1.5226,-1.5806,0.0,0.0,0.0,0.0,0.0,0.0,0.0,-1.594,-1.5769,-1.5797,-1.5961,0.0,0.0,0.0,0.0,0.0,0.0,0.0,0.0,0.0,0.0,0.0,0.0,0.0,0.0,0.0,0.0,0.0,0.0,0.0,0.0,0.0,0.0,0.0,0.0,0.0,0.0,0.0,0.0,0.0,0.0,0.0,0.0,0.0,0.0,0.0,0.0,-1.7199,-1.7157,-1.7157,-1.7199,-1.7115,-1.7174,-1.7458,-1.7813,-1.8423,-1.9059,-1.8304,-1.7787,-1.7468,-1.6905,-1.6148,-1.537,-1.5835,-1.5587,-1.5059,-1.5753,-1.6177,-1.6446,0.0,0.0,0.0,0.0,0.0,0.0,0.0,0.0,0.0,0.0,0.0,0.0,0.0,0.0,0.0,0.0,0.0,0.0,0.0,-1.4881,-1.5287,-1.4642,0.0,0.0,0.0,0.0,0.0,0.0,0.0,0.0,0.0,0.0,0.0,-1.606,0.0,-1.6185,-1.525,-1.5141,-1.4822,-1.442,-1.4006,-1.3758,-1.371,-1.4464,-1.4382,-1.4064,-1.5282,-1.5188,-1.4567,-1.5124,0.0,0.0,0.0,0.0,-1.5551,-1.5359,-1.5359,-1.552,0.0,0.0,0.0,0.0,0.0,0.0,0.0,0.0,0.0,0.0,0.0,0.0,0.0,0.0,0.0,0.0,0.0,0.0,0.0,0.0,0.0,0.0,0.0,0.0,0.0,0.0,0.0,0.0,0.0,0.0,0.0,0.0,0.0,0.0,0.0,-1.7199,-1.7157,-1.7086,-1.6989,-1.7018,-1.6863,-1.7033,-1.7511,-1.7136,-1.7483,-1.8388,-1.7297,-1.6979,-1.7162,-1.6554,-1.5999,-1.5618,-1.6084,-1.6022,-1.5742,-1.6208,-1.6384,-1.6436,0.0,0.0,0.0,0.0,0.0,0.0,0.0,0.0,0.0,0.0,-1.1402,-1.1902,0.0,0.0,0.0,0.0,0.0,0.0,-1.6078,0.0,0.0,-1.7129,0.0,0.0,0.0,0.0,0.0,0.0,0.0,0.0,0.0,0.0,0.0,-1.5375,0.0,0.0,-1.5535,-1.5479,-1.4825,-1.383,-1.303,-1.2673,-1.2692,-1.3414,-1.3811,-1.404,-1.4382,-1.4113,-1.3633,-1.3983,-1.4156,0.0,0.0,0.0,0.0,-1.5011,-1.5133,0.0,0.0,0.0,0.0,0.0,0.0,0.0,0.0,0.0,0.0,0.0,0.0,0.0,0.0,0.0,0.0,0.0,0.0,0.0,0.0,0.0,0.0,0.0,0.0,0.0,0.0,0.0,0.0,0.0,0.0,0.0,0.0,0.0,0.0,0.0,0.0,0.0,-1.7044,-1.7002,-1.6765,-1.6244,-1.6201,-1.6448,-1.6832,-1.6756,-1.7104,-1.7689,-1.6664,-1.6138,-1.593,-1.5021,-1.4831,-1.5132,-1.5597,-1.5742,-1.5742,-1.6208,-1.6384,-1.6384,0.0,0.0,0.0,0.0,0.0,0.0,0.0,0.0,0.0,0.0,0.0,-1.1674,0.0,0.0,0.0,0.0,0.0,0.0,-1.7208,-1.7663,0.0,0.0,0.0,0.0,0.0,0.0,0.0,0.0,0.0,0.0,0.0,-1.5707,-1.5352,0.0,0.0,0.0,0.0,-1.3983,-1.3494,-1.2867,-1.2644,-1.2279,-1.2006,-1.3052,-1.3191,-1.3017,-1.3988,-1.3866,-1.33,-1.4023,-1.4179,-1.4128,-1.4634,0.0,0.0,0.0,0.0,0.0,0.0,0.0,0.0,0.0,0.0,0.0,0.0,0.0,0.0,0.0,0.0,0.0,0.0,0.0,0.0,0.0,0.0,0.0,0.0,0.0,0.0,0.0,0.0,0.0,0.0,0.0,0.0,0.0,0.0,0.0,0.0,-1.7073,-1.7086,-1.7044,-1.7086,0.0,-1.6918,-1.6876,-1.6522,-1.5952,-1.6281,-1.6337,-1.6207,-1.6479,-1.6616,-1.6552,-1.5832,-1.5485,-1.5315,-1.4591,-1.4428,-1.4656,-1.5121,-1.5297,-1.5359,-1.5815,-1.6156,-1.6384,0.0,0.0,0.0,0.0,0.0,0.0,0.0,0.0,0.0,0.0,0.0,0.0,0.0,0.0,0.0,0.0,0.0,0.0,-1.8056,0.0,0.0,0.0,0.0,0.0,0.0,0.0,0.0,0.0,0.0,0.0,-1.5665,-1.5536,-1.5047,0.0,-1.4157,0.0,0.0,0.0,0.0,-1.2317,-1.2319,-1.1912,-1.1482,-1.2815,-1.2854,-1.2359,-1.3722,-1.3693,-1.3185,-1.4051,-1.4181,-1.4032,-1.4401,-1.4415,0.0,0.0,0.0,0.0,0.0,0.0,0.0,0.0,0.0,0.0,0.0,0.0,0.0,0.0,0.0,0.0,0.0,0.0,0.0,0.0,0.0,0.0,0.0,0.0,0.0,0.0,0.0,0.0,0.0,0.0,0.0,0.0,0.0,0.0,0.0,-1.696,-1.696,-1.6876,-1.696,-1.6918,-1.6846,-1.6491,-1.6132,-1.5788,-1.5988,-1.5944,-1.5611,-1.5976,-1.5888,-1.5433,-1.5187,-1.4991,-1.4801,-1.4324,-1.42,-1.4355,-1.4821,-1.507,-1.5225,-1.5691,-1.6084,-1.6384,0.0,0.0,0.0,0.0,0.0,0.0,0.0,0.0,0.0,0.0,0.0,0.0,0.0,0.0,0.0,-1.7257,0.0,0.0,0.0,0.0,0.0,0.0,0.0,0.0,0.0,0.0,0.0,0.0,0.0,0.0,-1.6068,-1.5805,-1.5213,-1.4363,-1.4241,-1.3849,-1.3284,0.0,0.0,0.0,-1.1858,-1.1268,-1.1003,0.0,0.0,0.0,0.0,0.0,-1.3247,-1.3568,-1.3615,-1.3547,-1.3702,-1.4013,-1.4114,0.0,0.0,0.0,0.0,0.0,0.0,0.0,0.0,0.0,0.0,0.0,0.0,0.0,0.0,0.0,0.0,0.0,0.0,0.0,0.0,0.0,0.0,0.0,0.0,0.0,0.0,0.0,0.0,0.0,0.0,0.0,0.0,0.0,-1.6918,-1.6918,-1.6876,-1.6876,-1.6876,-1.6846,-1.6718,-1.5691,-1.5412,-1.5788,-1.4915,-1.4743,-1.5153,-1.5153,-1.4926,-1.4512,-1.4926,-1.4846,-1.4417,-1.3842,-1.391,-1.4355,-1.4821,-1.5266,-1.5711,-1.6177,-1.6363,-1.6384,0.0,0.0,0.0,0.0,0.0,0.0,0.0,0.0,0.0,0.0,0.0,0.0,0.0,0.0,-1.5844,-1.7302,-1.8149,0.0,0.0,0.0,0.0,0.0,0.0,0.0,0.0,0.0,0.0,0.0,0.0,-1.5581,-1.4744,-1.4443,-1.3726,-1.2747,-1.3081,-1.3135,-1.2866,-1.2113,0.0,0.0,-1.1962,-1.1742,-1.1404,0.0,0.0,0.0,0.0,0.0,0.0,-1.3446,-1.3459,-1.3301,-1.3615,-1.3402,-1.2949,0.0,0.0,0.0,0.0,0.0,0.0,0.0,0.0,0.0,0.0,0.0,0.0,0.0,0.0,0.0,0.0,0.0,0.0,0.0,0.0,0.0,0.0,0.0,0.0,0.0,0.0,0.0,0.0,0.0,0.0,0.0,0.0,0.0,-1.6761,-1.6761,-1.6705,-1.665,-1.6705,-1.6577,-1.612,-1.5756,-1.5311,-1.4915,-1.488,-1.4789,-1.4651,-1.4971,-1.4834,-1.4419,-1.4558,-1.4373,-1.3858,-1.3668,-1.3714,-1.3879,-1.4045,-1.4573,-1.5225,-1.5101,-1.5608,-1.6332,0.0,0.0,0.0,0.0,0.0,1.495,0.0,0.0,0.0,0.0,0.0,0.0,0.0,0.0,-1.5805,-1.7411,-1.8897,-1.9851,-2.0057,-1.9871,0.0,0.0,0.0,0.0,0.0,0.0,0.0,0.0,0.0,0.0,0.0,-1.3514,-1.2806,-1.1696,-1.1924,-1.206,0.0,0.0,0.0,-1.1216,0.0,-1.1958,-1.1846,0.0,0.0,0.0,0.0,0.0,0.0,0.0,0.0,0.0,0.0,0.0,0.0,0.0,0.0,0.0,0.0,0.0,0.0,0.0,0.0,0.0,0.0,0.0,0.0,0.0,0.0,0.0,0.0,0.0,0.0,0.0,0.0,0.0,0.0,0.0,0.0,0.0,0.0,0.0,0.0,0.0,0.0,0.0,0.0,0.0,-1.6633,-1.662,-1.6577,-1.6522,-1.6577,-1.6349,-1.5788,-1.5656,-1.5175,-1.4373,-1.4547,-1.4408,-1.414,-1.4455,-1.4419,-1.414,-1.414,-1.3952,-1.3621,-1.3621,-1.3621,-1.3631,-1.3786,-1.4221,-1.4749,-1.4593,-1.5225,-1.6105,0.0,1.5992,1.6168,1.5327,1.5904,1.6437,0.0,0.0,0.0,0.0,0.0,0.0,0.0,0.0,0.0,-1.7538,-1.9128,-2.0019,-1.9954,-1.9316,0.0,0.0,0.0,0.0,0.0,0.0,0.0,0.0,0.0,0.0,0.0,0.0,-1.2546,-1.144,-1.0919,-1.0765,-1.0943,0.0,-1.115,-1.1435,0.0,-1.1746,-1.2251,0.0,0.0,0.0,-1.3163,-1.3082,0.0,0.0,0.0,0.0,0.0,0.0,0.0,0.0,0.0,0.0,0.0,0.0,0.0,0.0,0.0,0.0,0.0,0.0,0.0,0.0,0.0,0.0,0.0,0.0,0.0,0.0,0.0,0.0,0.0,0.0,0.0,0.0,0.0,0.0,0.0,0.0,0.0,0.0,0.0,-1.6633,-1.6522,-1.6522,-1.6522,-1.6522,-1.6479,-1.625,-1.5788,-1.5322,-1.4834,-1.4373,-1.3847,-1.3621,-1.3621,-1.3621,-1.3621,-1.3621,-1.3621,-1.3621,-1.3621,-1.3621,-1.3621,-1.3662,-1.4107,-1.4293,-1.4366,-1.4811,-1.5277,-1.5691,1.6428,1.7063,1.7537,1.7245,1.7881,1.8224,0.0,0.0,0.0,0.0,0.0,0.0,0.0,0.0,0.0,-1.6066,-1.7606,-1.8592,-1.862,-1.8005,-1.724,-1.639,0.0,0.0,0.0,0.0,0.0,0.0,0.0,0.0,0.0,0.0,0.0,0.0,-1.0301,-0.9905,-0.9619,-0.9619,0.0,0.0,-1.0815,-1.1292,0.0,0.0,0.0,0.0,0.0,-1.3094,0.0,0.0,-1.3198,-1.3026,0.0,0.0,0.0,0.0,0.0,0.0,-1.1738,0.0,0.0,0.0,0.0,0.0,0.0,0.0,0.0,0.0,0.0,0.0,0.0,0.0,0.0,0.0,0.0,0.0,0.0,0.0,0.0,0.0,0.0,0.0,0.0,0.0,0.0,0.0,0.0,-1.6522,-1.6522,-1.6522,-1.6522,-1.6522,-1.6151,-1.5756,-1.5277,-1.4823,-1.4326,-1.38,-1.3668,-1.3621,-1.3621,-1.3621,-1.3621,-1.3621,-1.3621,-1.3621,-1.3621,-1.3621,-1.3621,-1.3631,-1.3755,-1.4014,-1.4324,-1.4449,-1.5007,-1.5691,1.7394,1.8033,1.8521,1.8086,1.8808,1.9281,0.0,0.0,0.0,0.0,0.0,0.0,0.0,0.0,0.0,-1.3992,-1.5418,-1.6583,-1.7259,-1.6708,-1.6054,0.0,0.0,0.0,0.0,0.0,0.0,0.0,0.0,0.0,0.0,0.0,0.0,0.0,-0.9539,-0.9232,0.0,0.0,0.0,0.0,-1.0569,0.0,0.0,-1.2542,-1.2803,0.0,0.0,0.0,-1.3107,-1.3163,-1.3198,0.0,0.0,0.0,0.0,0.0,0.0,0.0,0.0,0.0,0.0,0.0,0.0,0.0,-1.3405,-1.4136,0.0,0.0,0.0,0.0,0.0,0.0,0.0,0.0,0.0,0.0,0.0,0.0,0.0,0.0,0.0,0.0,0.0,0.0,0.0,0.0,-1.6522,-1.6423,-1.6194,-1.6207,-1.612,-1.5901,-1.5623,-1.5266,-1.4834,-1.4558,-1.414,-1.3621,-1.3621,-1.3621,-1.3621,-1.3621,-1.3621,-1.3621,-1.3621,-1.3621,-1.3621,-1.3621,-1.3621,-1.3621,-1.3621,-1.3776,-1.4045,-1.4242,-1.4769,-1.5432,0.0,1.8924,1.9197,1.8374,1.912,0.0,0.0,0.0,0.0,0.0,0.0,0.0,0.0,0.0,0.0,0.0,-1.2911,-1.4286,-1.5844,-1.5361,0.0,0.0,0.0,0.0,0.0,0.0,0.0,0.0,0.0,0.0,0.0,0.0,0.0,0.0,-0.8895,-0.8773,0.0,0.0,0.0,-1.0025,-1.0538,-1.1149,0.0,0.0,-1.2473,0.0,-1.2943,-1.3025,-1.299,-1.306,-1.3094,0.0,0.0,0.0,0.0,0.0,-1.1006,0.0,0.0,0.0,0.0,0.0,0.0,0.0,-1.2626,-1.3276,-1.3975,0.0,0.0,0.0,0.0,0.0,0.0,0.0,0.0,0.0,0.0,0.0,0.0,0.0,0.0,0.0,0.0,0.0,0.0,-1.6522,-1.6522,-1.6293,-1.5832,-1.5788,-1.5567,-1.5108,-1.5062,-1.4834,-1.4373,-1.4326,-1.4093,-1.3621,-1.3621,-1.3621,-1.3621,-1.3621,-1.3621,-1.3621,-1.3621,-1.3621,-1.3621,-1.3621,-1.3621,-1.3621,-1.3621,-1.3621,-1.3683,-1.42,-1.4645,-1.507,1.9475,1.9638,1.976,1.9632,0.0,0.0,0.0,0.0,0.0,0.0,0.0,0.0,0.0,0.0,0.0,0.0,0.0,-1.2584,-1.4239,0.0,0.0,0.0,0.0,0.0,0.0,0.0,0.0,0.0,0.0,0.0,0.0,0.0,0.0,0.0,-0.8996,-0.8692,0.0,0.0,0.0,-0.9869,-1.0365,0.0,-1.1367,-1.1957,-1.2186,-1.2186,-1.2294,-1.2294,-1.2294,0.0,-1.233,-1.22,0.0,0.0,0.0,0.0,0.0,0.0,0.0,0.0,0.0,0.0,0.0,0.0,-1.2188,-1.2679,-1.3129,0.0,0.0,0.0,0.0,0.0,0.0,0.0,0.0,0.0,0.0,0.0,0.0,0.0,0.0,0.0,0.0,0.0,0.0,-1.6522,-1.6522,-1.6293,-1.5832,-1.5788,-1.5567,-1.5108,-1.4743,-1.4512,-1.4373,-1.3952,-1.3716,-1.3621,-1.3621,-1.3621,-1.3621,-1.3621,-1.3621,-1.3621,-1.3621,-1.3621,-1.3621,-1.3621,-1.3621,-1.3621,-1.3621,-1.3621,-1.3714,-1.4552,-1.4925,-1.5121,1.9917,1.9971,2.0003,2.0035,0.0,0.0,0.0,0.0,0.0,0.0,0.0,0.0,0.0,0.0,0.0,0.0,0.0,0.0,0.0,0.0,0.0,0.0,0.0,0.0,0.0,0.0,0.0,0.0,0.0,0.0,0.0,0.0,0.0,0.0,0.0,0.0,0.0,0.0,-0.9717,-0.984,-1.0417,0.0,-1.1078,-1.159,-1.1811,-1.1811,-1.2041,-1.2113,-1.2113,-1.2113,-1.2113,0.0,0.0,-1.164,-1.1559,0.0,-1.1272,-1.164,0.0,0.0,0.0,-1.2033,0.0,0.0,0.0,-1.215,0.0,0.0,0.0,0.0,0.0,0.0,0.0,0.0,0.0,0.0,0.0,0.0,0.0,0.0,0.0,0.0,0.0,0.0,-1.6064,-1.5812,-1.5812,-1.5579,-1.513,-1.5085,-1.4858,-1.4362,-1.4129,-1.3999,-1.3999,-1.3716,-1.3621,-1.3621,-1.3621,-1.3621,-1.3621,-1.3621,-1.3621,-1.3621,-1.3621,-1.3621,-1.3621,-1.3621,-1.3621,-1.3621,-1.3621,-1.3621,-1.3724,-1.4656,-1.4997,-1.5132,2.0108,2.0142,2.0143,2.0162,0.0,0.0,0.0,0.0,0.0,0.0,0.0,0.0,0.0,0.0,0.0,0.0,0.0,0.0,0.0,0.0,0.0,0.0,0.0,-1.0417,0.0,0.0,0.0,0.0,0.0,0.0,0.0,0.0,0.0,0.0,0.0,0.0,0.0,0.0,0.0,-1.0053,0.0,-1.0822,-1.086,-1.1217,-1.1367,-1.1415,-1.1748,-1.1859,-1.1859,-1.1859,0.0,-1.1859,-1.1859,-1.1712,0.0,0.0,0.0,0.0,0.0,0.0,0.0,0.0,0.0,-1.1884,0.0,0.0,0.0,0.0,0.0,0.0,0.0,0.0,0.0,0.0,0.0,0.0,0.0,0.0,0.0,0.0,0.0,0.0,0.0,0.0,0.0,-1.5108,-1.5108,-1.488,-1.4419,-1.4373,-1.414,-1.3621,-1.3621,-1.3621,-1.3621,-1.3621,-1.3621,-1.3621,-1.3621,-1.3621,-1.3621,-1.3621,-1.3621,-1.3621,-1.3621,-1.3621,-1.3621,-1.3621,-1.3621,-1.3621,-1.3621,-1.3621,-1.3724,-1.4656,-1.4997,-1.5132,2.0286,2.029,2.0305,2.0363,0.0,0.0,0.0,0.0,0.0,0.0,0.0,0.0,0.0,0.0,0.0,0.0,0.0,0.0,-1.0089,0.0,0.0,0.0,0.0,0.0,-0.9806,0.0,0.0,0.0,0.0,0.0,0.0,0.0,0.0,0.0,-0.7881,0.0,0.0,0.0,-0.9225,0.0,-1.0812,-1.0833,0.0,-1.086,-1.0909,-1.0957,-1.1033,-1.1033,-1.1033,0.0,-1.1033,-1.1033,0.0,-1.1239,0.0,0.0,0.0,0.0,0.0,0.0,0.0,0.0,-1.1516,0.0,0.0,0.0,0.0,0.0,0.0,0.0,0.0,0.0,0.0,0.0,0.0,0.0,0.0,0.0,0.0,0.0,0.0,0.0,0.0,0.0,0.0,-1.5108,-1.5108,-1.488,-1.4419,-1.4373,-1.414,-1.3621,-1.3621,-1.3621,-1.3621,-1.3621,-1.3621,-1.3621,-1.3621,-1.3621,-1.3621,-1.3621,-1.3621,-1.3621,-1.3621,-1.3621,-1.3621,-1.3621,-1.3621,-1.3621,-1.3621,-1.3621,-1.3724,-1.4656,-1.4997,-1.5068,2.0428,2.0388,2.0298,2.0087,0.0,0.0,0.0,0.0,0.0,0.0,0.0,0.0,0.0,0.0,0.0,0.0,0.0,0.0,0.0,0.0,0.0,0.0,0.0,0.0,0.0,0.0,0.0,0.0,-1.0331,0.0,0.0,0.0,0.0,0.0,-0.8513,0.0,-0.9127,0.0,0.0,0.0,0.0,0.0,0.0,-1.0881,-1.0881,-1.0891,-1.0891,-1.0891,-1.0891,0.0,-1.0891,0.0,0.0,0.0,0.0,0.0,0.0,0.0,0.0,0.0,0.0,0.0,0.0,0.0,0.0,0.0,-1.1043,0.0,0.0,0.0,0.0,0.0,0.0,0.0,0.0,0.0,0.0,0.0,0.0,0.0,0.0,0.0,0.0,0.0,0.0,0.0,0.0,-1.4129,-1.3952,-1.3952,-1.3847,-1.3621,-1.3621,-1.3621,-1.3621,-1.3621,-1.3621,-1.3621,-1.3621,-1.3621,-1.3621,-1.3621,-1.3621,-1.3621,-1.3621,-1.3621,-1.3621,-1.3621,-1.3621,-1.3621,-1.3621,-1.3621,-1.3676,-1.4553,-1.4661,-1.4399,2.0247,2.0318,0.0,0.0,0.0,0.0,0.0,0.0,0.0,0.0,0.0,0.0,0.0843,-0.2086,0.0,0.0,0.0,-0.7485,0.0,0.0,-0.8463,0.0,0.0,0.0,0.0,0.0,0.0,0.0,-0.9873,0.0,0.0,0.0,0.0,0.0,0.0,-0.9357,-0.9204,0.0,0.0,-1.0833,-1.0833,-1.0881,-1.0891,-1.0891,-1.0891,-1.0891,-1.0891,-1.0891,-1.0891,-1.0891,-1.0891,0.0,-1.0891,0.0,0.0,0.0,0.0,0.0,-1.0891,0.0,0.0,0.0,0.0,0.0,0.0,0.0,0.0,0.0,0.0,0.0,0.0,0.0,0.0,0.0,0.0,0.0,0.0,0.0,0.0,0.0,0.0,0.0,0.0,0.0,0.0,0.0,-1.3548,0.0,-1.3621,-1.3621,-1.3621,-1.3621,-1.3621,-1.3621,-1.3621,-1.3621,-1.3621,-1.3621,-1.3621,-1.3621,-1.3621,-1.3621,-1.3621,-1.3621,-1.3621,-1.3621,-1.3621,-1.3621,-1.3621,-1.3621,-1.3621,-1.3645,-1.3803,-1.4543,-1.4387,-1.3895,1.9601,2.0004,0.0,0.0,0.0,0.0,0.0,0.0,0.0,0.0,0.0,0.0,0.0,0.0,0.0,0.0,0.0,-0.9573,-0.9962,0.0,-0.9008,0.0,0.0,0.0,0.0,0.0,0.0,-0.9016,-0.943,-0.9609,0.0,0.0,0.0,0.0,0.0,-0.9331,-1.0479,-0.9414,-0.9708,-1.0891,-1.0891,-1.0891,-1.0891,0.0,-1.0891,-1.0891,-1.0891,0.0,0.0,-1.0891,-1.0891,0.0,0.0,0.0,0.0,0.0,0.0,0.0,0.0,0.0,0.0,0.0,0.0,0.0,0.0,0.0,-1.1043,0.0,0.0,0.0,0.0,0.0,0.0,0.0,0.0,0.0,0.0,0.0,0.0,0.0,0.0,0.0,0.0,0.0,0.0,0.0,-1.3362,0.0,-1.3621,-1.3621,-1.3621,-1.3621,-1.3621,-1.3621,-1.3621,-1.3621,-1.3621,-1.3621,-1.3621,-1.3621,-1.3621,-1.3621,-1.3621,-1.3621,-1.3621,-1.3621,-1.3621,-1.3621,-1.3621,-1.3621,-1.3621,-1.3793,-1.4134,-1.4603,-1.4387,-1.3796,1.9351,0.0,0.0,0.0,0.0,0.0,0.0,1.3779,0.0,0.0,0.0,0.0,0.0,0.0,-0.6892,0.0,0.0,-0.9271,-0.963,-0.9072,0.0,0.0,0.0,-0.7964,0.0,0.0,0.0,-0.8618,-0.9368,-0.9408,0.0,0.0,0.0,0.0,0.0,-1.0207,0.0,0.0,0.0,0.0,0.0,-1.0891,-1.0891,0.0,0.0,-1.0891,-1.0891,-1.0891,0.0,-1.0891,-1.0891,-1.0891,-1.0891,-1.0891,-1.0943,-1.1271,-1.1147,0.0,0.0,0.0,-1.1153,-1.0631,0.0,0.0,0.0,0.0,0.0,0.0,0.0,0.0,0.0,0.0,0.0,0.0,0.0,0.0,0.0,0.0,0.0,0.0,0.0,0.0,0.0,0.0,0.0,-1.3372,-1.3202,0.0,0.0,-1.3621,-1.3621,-1.3621,-1.3621,-1.3621,-1.3621,-1.3621,-1.3621,-1.3621,-1.3621,-1.3621,-1.3621,-1.3621,-1.3563,-1.3467,-1.3467,-1.342,-1.3314,-1.3314,-1.3314,-1.3344,-1.3184,-1.3229,-1.3362,-1.384,-1.368,-1.3191,1.8957,0.0,0.0,0.0,0.0,0.0,0.0,0.0,0.0,0.0,0.1701,0.0,-0.4337,0.0,-0.6851,0.0,-0.8656,-0.92,-0.9679,-0.9482,0.0,-0.9204,-0.8561,0.0,0.0,0.0,0.0,-0.8732,-0.9128,-0.9136,-0.8732,0.0,0.0,0.0,0.0,0.0,0.0,0.0,-1.0891,0.0,0.0,-1.0891,0.0,0.0,-1.0891,0.0,0.0,-1.0891,-1.0891,-1.0891,-1.0891,-1.0891,-1.0891,-1.1033,-1.1209,-1.1529,-1.1488,-1.1426,-1.158,-1.1591,0.0,0.0,-1.0708,0.0,0.0,0.0,0.0,0.0,0.0,0.0,0.0,0.0,0.0,0.0,0.0,0.0,0.0,-1.2182,0.0,0.0,0.0,0.0,0.0,0.0,-1.2761,-1.2906,-1.3016,-1.3181,0.0,0.0,-1.3621,-1.3621,-1.3621,-1.3621,-1.3621,-1.3621,-1.3621,-1.3621,-1.3621,-1.3621,-1.3621,-1.3621,-1.3515,-1.342,-1.342,-1.3314,-1.3218,-1.3218,-1.3218,-1.319,-1.2867,-1.2856,-1.3113,-1.3296,-1.3125,-1.273,1.8428,0.0,0.0,0.0,1.5372,0.0,0.0,0.0,0.5892,0.0,0.0208,-0.2233,-0.3141,-0.5271,-0.6982,-0.7758,-0.8601,0.0,-1.0196,-1.0283,0.0,0.0,-1.0157,-1.0079,-1.0079,0.0,0.0,0.0,-0.8756,-0.8756,-0.9239,0.0,0.0,0.0,-1.039,0.0,-1.0822,-1.0843,-1.0881,-1.0891,-1.0891,-1.0891,-1.0891,-1.0891,0.0,-1.0891,-1.0891,-1.0891,-1.0891,-1.0891,-1.0891,-1.0891,-1.0891,-1.1219,-1.1612,-1.1643,-1.1954,-1.2214,-1.1788,-1.1664,-1.1499,-1.1056,0.0,0.0,0.0,0.0,-1.051,0.0,0.0,0.0,0.0,0.0,0.0,0.0,0.0,0.0,0.0,0.0,0.0,0.0,0.0,0.0,0.0,-1.1767,-1.2173,-1.1655,-1.2709,0.0,0.0,0.0,0.0,-1.3621,-1.3621,-1.3621,-1.3621,-1.3621,-1.3621,-1.3621,-1.3621,-1.3621,-1.3621,-1.361,-1.3515,-1.3372,-1.3372,-1.3314,-1.317,-1.317,-1.317,-1.3074,-1.2589,-1.2716,-1.3232,-1.3029,-1.2746,-1.2389,1.7894,1.6511,1.5296,0.0,1.4139,1.2906,0.0,0.0,0.0,0.0,-0.1511,-0.4105,-0.6042,-0.7079,-0.7811,-0.8285,-0.8804,0.0,0.0,0.0,0.0,-1.0283,-0.9883,-0.9795,-1.0079,-0.9558,0.0,-0.8837,0.0,0.0,-0.8341,0.0,0.0,0.0,0.0,0.0,-1.0843,-1.0564,-1.0641,-1.0891,-1.0891,-1.0891,0.0,0.0,-1.0891,-1.0891,-1.0891,-1.0891,-1.0891,-1.0891,-1.0891,-1.0891,-1.0891,-1.1219,-1.1684,-1.2027,-1.2214,-1.2349,-1.2523,-1.2337,-1.2016,-1.1524,-1.141,-1.1325,0.0,0.0,0.0,0.0,0.0,0.0,0.0,0.0,0.0,0.0,0.0,0.0,0.0,0.0,0.0,0.0,0.0,0.0,0.0,0.0,-1.2068,-1.193,-1.2306,0.0,0.0,0.0,0.0,-1.3573,-1.3621,-1.3621,-1.3621,-1.3621,-1.3621,-1.3621,-1.3621,-1.3621,-1.3621,-1.3515,-1.3362,-1.3266,-1.32,-1.3113,-1.2968,-1.2968,-1.2764,-1.2342,-1.2022,-1.1797,-1.1741,-1.243,-1.2318,-1.1802,1.7472,0.0,0.0,1.3487,0.0,0.0,0.8768,0.0,0.0,-0.0505,-0.3207,0.0,-0.6719,-0.7147,-0.7551,-0.8211,-0.8333,0.0,0.0,0.0,0.0,-0.9925,-1.0025,-1.0155,-1.0397,-0.9944,0.0,-0.911,0.0,0.0,-0.8439,0.0,0.0,0.0,0.0,-1.04,0.0,-1.0641,-1.0679,-1.0902,-1.1126,0.0,0.0,-1.1437,-1.1509,-1.1488,-1.1281,-1.1209,-1.124,-1.1437,-1.1375,-1.1201,-1.1166,-1.1347,-1.1586,-1.1851,-1.2018,-1.2175,-1.2224,-1.2067,-1.1797,-1.1338,-1.1211,-1.1069,-1.0624,-1.0614,-1.0602,0.0,0.0,0.0,0.0,0.0,0.0,0.0,0.0,0.0,0.0,0.0,0.0,0.0,0.0,0.0,0.0,0.0,0.0,0.0,0.0,0.0,0.0,0.0,0.0,0.0,-1.3218,-1.3122,-1.318,-1.317,-1.317,-1.318,-1.317,-1.3112,-1.3064,-1.2764,-1.256,-1.2414,-1.2598,-1.2676,-1.2529,-1.2529,-1.2426,-1.2235,-1.1935,-1.1396,-1.0975,-1.1798,-1.1919,-1.1622,0.0,0.0,0.0,0.0,0.0,0.0,0.0,0.331,0.0,-0.216,0.0,-0.6039,-0.6227,-0.6325,-0.6823,0.0,0.0,-0.7829,-0.8854,-0.9279,-0.9493,-0.9419,-1.0201,-1.0676,-1.0717,-1.0335,0.0,0.0,0.0,0.0,0.0,0.0,0.0,0.0,0.0,0.0,0.0,-1.0805,-1.0874,0.0,-1.1426,-1.1653,-1.1747,-1.2152,-1.2307,-1.2256,-1.183,-1.1665,-1.1757,-1.21,-1.1944,-1.1572,-1.1498,-1.1479,-1.1471,-1.1407,-1.1698,-1.1926,-1.1588,-1.1497,-1.1368,-1.0967,-1.0877,-1.074,-1.0283,-1.0398,-1.0494,-0.9979,-0.9755,0.0,0.0,0.0,0.0,0.0,0.0,0.0,0.0,0.0,0.0,0.0,0.0,0.0,0.0,0.0,0.0,0.0,0.0,0.0,0.0,0.0,0.0,0.0,-1.2609,0.0,-1.2452,0.0,-1.253,-1.2452,-1.253,-1.2463,-1.2267,-1.1814,-1.1516,-1.1416,-1.1891,-1.2067,-1.1968,-1.1968,-1.2076,-1.2193,-1.1833,-1.1295,-1.0667,-1.1319,-1.1622,-1.1622,0.0,0.0,0.0,0.0,0.0,0.5693,0.3304,0.1056,-0.0893,-0.2471,-0.4466,0.0,-0.6325,-0.6367,-0.6702,-0.7447,-0.7454,0.0,0.0,0.0,0.0,-0.911,-0.9537,-0.9977,-1.0391,-0.9937,-0.9652,0.0,0.0,0.0,0.0,0.0,0.0,0.0,0.0,0.0,-0.9864,-1.0235,0.0,-1.1468,-1.158,-1.184,-1.2193,-1.2276,-1.2307,-1.2296,-1.2133,-1.2135,-1.2131,-1.183,-1.1642,-1.1518,-1.1509,-1.1457,-1.1426,-1.1396,-1.1698,-1.199,-1.1917,-1.1899,-1.1889,-1.1768,-1.1789,-1.1749,-1.1643,-1.1706,-1.1536,-1.0922,-1.0751,-1.0536,-0.9903,0.0,0.0,0.0,0.0,0.0,0.0,0.0,0.0,0.0,0.0,0.0,0.0,0.0,0.0,0.0,0.0,0.0,0.0,0.0,0.0,0.0,0.0,0.0,0.0,0.0,0.0,-1.1774,-1.2209,-1.2209,-1.1715,-1.1516,-1.1416,-1.1416,-1.1392,-1.136,-1.136,-1.136,-1.1141,-1.0761,-1.0804,-1.0746,-1.0667,-1.1319,-1.1622,-1.1622,0.0,0.0,0.0,0.0,0.0,0.0,0.0,-0.0731,0.0,-0.347,-0.4717,-0.5707,-0.6013,-0.6404,-0.6872,-0.7377,-0.7545,-0.787,-0.8373,-0.8773,-0.8987,-0.893,-0.9331,0.0,-1.0134,0.0,-0.9983,-0.9562,0.0,0.0,0.0,0.0,0.0,0.0,0.0,-0.9946,0.0,0.0,0.0,-1.1986,-1.2182,-1.241,-1.2627,-1.2875,-1.2958,-1.2927,-1.2446,-1.2287,-1.2222,-1.1738,-1.1538,-1.1435,-1.1195,-1.1018,-1.0985,-1.0942,-1.1081,-1.1209,-1.1209,-1.1209,-1.1209,-1.1209,-1.1209,-1.1209,-1.1209,-1.1209,-1.1057,-1.06,-1.0455,-1.034,-0.9806,-0.9548,0.0,0.0,0.0,0.0,0.0,0.0,0.0,0.0,0.0,0.0,0.0,0.0,0.0,0.0,0.0,0.0,0.0,0.0,0.0,0.0,0.0,0.0,0.0,0.0,0.0,-1.1082,-1.1325,-1.1266,-1.099,-1.0618,-1.0466,-1.0474,-1.0881,-1.1014,-1.1083,-1.1219,-1.0764,-1.0015,-1.0635,-1.0741,-1.0667,-1.1319,-1.1622,-1.1622,0.0,1.1797,0.0,0.0,0.4931,0.0,0.0,-0.2227,-0.4447,-0.4447,-0.5096,-0.5615,-0.583,-0.6483,-0.7041,-0.737,-0.7712,-0.8044,-0.8373,-0.87,-0.8865,-0.8778,-0.9187,-0.9485,-0.9792,-1.0437,-1.0418,0.0,0.0,0.0,0.0,0.0,0.0,0.0,0.0,0.0,0.0,0.0,-1.1747,-1.2204,-1.271,-1.2875,-1.2834,-1.33,-1.3356,-1.3088,-1.2294,-1.1939,-1.1798,-1.115,-1.1094,-1.1135,-1.0705,-1.0479,-1.0356,-1.026,-1.0346,-1.0351,-1.0351,-1.0407,-1.0522,-1.0522,-1.0522,-1.0522,-1.0522,-1.047,-1.0368,-1.0051,-0.9947,-0.9836,-0.9614,-0.9424,0.0,0.0,0.0,0.0,0.0,0.0,0.0,0.0,0.0,0.0,0.0,0.0,0.0,0.0,0.0,0.0,0.0,0.0,0.0,0.0,0.0,0.0,-1.0395,0.0,-1.0482,0.0,-1.0482,-1.0431,-1.0241,-0.9769,-0.9614,-0.9629,-1.0371,-1.0771,-1.0864,-1.1137,-1.0659,-0.9907,-1.0748,-1.0916,-1.0763,-1.1409,-1.1622,-1.1622,0.0,0.0,0.0,0.0,0.0,0.0,0.0,-0.3256,-0.4923,-0.4923,-0.5351,-0.583,-0.6282,-0.666,-0.7041,-0.737,-0.7712,-0.8044,-0.8373,-0.8414,-0.8471,-0.8462,-0.8773,-0.9019,-0.9086,-1.0213,-1.0593,0.0,0.0,0.0,0.0,0.0,0.0,0.0,0.0,0.0,0.0,-1.0843,-1.1276,-1.1757,-1.2575,-1.2679,-1.2411,-1.2824,-1.2473,-1.1714,-1.1132,-1.0758,-1.0352,-0.9466,-0.9659,-1.0301,-1.0254,-0.9898,-0.95,-0.9485,-0.9724,-0.9978,-0.9978,-1.0216,-1.0522,-1.0522,-1.0522,-1.0522,-1.0522,-1.0419,-1.0265,-1.0051,-0.9784,-0.9614,-0.9614,-0.9592,-0.9585,0.0,0.0,0.0,0.0,0.0,0.0,0.0,0.0,0.0,0.0,0.0,0.0,0.0,0.0,0.0,0.0,0.0,0.0,0.0,0.0,-0.9666,-0.9718,-1.019,0.0,-0.9718,-1.019,-1.0138,-0.9666,-0.9614,-0.9614,-0.9629,-1.0012,-1.032,-1.0657,-1.0686,-1.0607,-1.0536,-1.0924,-1.1055,-1.107,-1.1428,-1.1622,-1.1622,0.0,0.0,0.0,0.0,0.0,0.0,0.0,-0.3752,-0.5178,-0.5178,-0.5744,-0.6276,-0.6666,-0.7118,-0.7447,-0.7663,-0.8111,-0.8406,-0.8414,-0.8414,-0.8414,-0.8414,-0.8508,-0.8704,-0.8946,-0.9975,-1.0261,0.0,0.0,0.0,0.0,0.0,0.0,0.0,0.0,-1.0543,-1.0764,-1.1176,-1.1614,-1.2058,-1.2379,-1.242,-1.2285,-1.2145,-1.1885,-1.148,-1.0779,-1.0252,-0.9835,-0.9199,-0.9317,-0.9734,-0.9487,-0.9412,-0.9398,-0.9398,-0.9493,-0.9652,-0.9867,-1.0025,-1.02,-1.0415,-1.0522,-1.0522,-1.0522,-1.047,-1.0316,-1.0051,-0.9777,-0.9614,-0.9614,-0.9614,-0.9614,0.0,0.0,0.0,0.0,0.0,0.0,0.0,0.0,0.0,0.0,0.0,0.0,0.0,0.0,0.0,0.0,0.0,0.0,-0.9607,0.0,-0.9614,-0.9614,-0.9821,-0.9821,-0.9614,-0.9821,-0.9821,-0.9614,-0.9614,-0.9826,-1.0207,-1.0338,-1.058,-1.088,-1.088,-1.0763,-1.0616,-1.0946,-1.1077,-1.1114,-1.1505,-1.1622,-1.1622,0.7991,0.0,0.4614,0.0,0.0568,-0.0612,-0.2659,-0.4291,-0.5351,-0.548,-0.6099,-0.6623,-0.6999,-0.7489,-0.7863,-0.8077,-0.8521,-0.8683,-0.8488,-0.8488,-0.8455,-0.8414,-0.8551,0.0,-0.8746,-0.9787,-1.0096,-0.9564,-1.0179,0.0,0.0,0.0,0.0,0.0,-1.0123,-1.0488,-1.062,-1.1196,-1.1521,-1.1757,-1.2151,-1.2141,-1.184,-1.1541,-1.1246,-1.0922,-1.016,-0.9652,-0.9258,-0.8947,-0.8981,-0.9148,-0.8824,-0.8905,-0.9096,-0.9096,-0.9167,-0.9302,-0.9557,-0.9692,-0.9827,-1.0089,-1.0232,-1.0311,-1.0311,-1.0391,-1.0368,-0.9999,-0.9784,-0.9614,-0.9614,-0.9614,-0.9614,0.0,0.0,0.0,0.0,0.0,0.0,0.0,0.0,-0.8885,-0.9347,0.0,0.0,0.0,0.0,0.0,0.0,0.0,0.0,0.0,0.0,0.0,0.0,0.0,-0.9614,-0.9614,-0.9614,-0.9614,-0.9614,-0.9709,-1.006,-1.0594,-1.0689,-1.0916,-1.1277,-1.1277,-1.1085,-1.0894,-1.1128,-1.1277,-1.1306,-1.1534,-1.1622,-1.1622,0.6774,0.5134,0.2941,-0.0532,-0.1158,-0.1954,-0.4216,-0.5005,-0.5475,-0.5947,-0.6398,-0.6878,-0.7328,-0.7704,-0.8077,-0.848,-0.8814,-0.8895,-0.8724,-0.8675,-0.8602,0.0,0.0,-0.8928,-0.843,-0.9796,-1.0215,-0.9718,0.0,0.0,-1.0766,0.0,0.0,-0.9487,-0.9178,-0.9248,-0.9695,-1.0611,-1.0724,-1.0449,-1.1778,-1.1737,-1.0915,-1.0984,-1.0412,-0.9558,-0.9177,-0.8741,-0.8422,-0.8414,-0.8414,-0.8422,-0.8422,-0.8422,-0.843,-0.843,-0.8635,-0.8913,-0.8913,-0.9152,-0.9406,-0.9406,-0.9676,-0.993,-0.993,-1.0108,-1.0213,-0.9851,-0.9681,-0.9614,-0.9614,-0.9614,-0.9614,-0.9614,0.0,0.0,0.0,0.0,0.0,0.0,-0.7182,-0.7229,-0.8639,0.0,0.0,0.0,0.0,0.0,0.0,0.0,0.0,-0.9607,-0.9614,0.0,-0.9614,-0.9614,-0.9614,-0.9614,-0.9614,-0.9614,-0.9629,-0.9943,-1.0272,-1.0602,-1.0931,-1.1253,-1.1622,-1.1622,-1.1615,-1.1615,-1.1615,-1.1622,-1.1622,-1.1622,-1.1622,-1.1622,0.4624,0.2713,0.0797,-0.1157,-0.2001,-0.2929,-0.4487,-0.5226,-0.5793,-0.6452,-0.7055,-0.7609,-0.8263,-0.8208,-0.8308,0.0,-0.9047,-0.9128,0.0,-0.8895,-0.8895,-0.8814,-0.8972,-0.8972,-0.8822,-0.9362,-0.9597,-0.9433,0.0,0.0,0.0,-0.97,-0.9606,-0.9504,-0.9763,-0.9763,-0.9628,-0.9925,-0.9946,-0.9892,-1.0646,-1.0557,-1.0,-1.0054,-0.9707,-0.9128,-0.8732,-0.8496,-0.8414,-0.8414,-0.8414,-0.8414,-0.8414,-0.8414,-0.8414,-0.8414,-0.8494,-0.8595,-0.8842,-0.8977,-0.9112,-0.9334,-0.966,-0.9922,-0.9922,-1.0108,-1.0213,-0.9999,-0.9844,-0.9732,-0.9614,-0.9614,-0.9614,-0.9614,0.0,0.0,0.0,0.0,0.0,0.0,-0.8273,-0.841,0.0,-0.9261,0.0,0.0,0.0,0.0,0.0,0.0,0.0,0.0,-0.9614,0.0,-0.9614,-0.9614,-0.9614,-0.9614,-0.9614,-0.9614,-0.9636,-1.0185,-1.0492,-1.0602,-1.0931,-1.126,-1.1622,-1.1622,-1.1622,-1.1622,-1.1622,-1.1622,-1.1622,-1.1622,-1.1622,-1.1622,0.3672,0.1591,-0.0267,-0.147,-0.2573,-0.3676,-0.4961,-0.5733,-0.6428,-0.7037,-0.7595,-0.8188,-0.8794,-0.8774,0.0,-0.9368,-0.9457,0.0,-0.9328,-0.9168,-0.9096,-0.9016,-0.9056,-0.9096,-0.9016,0.0,0.0,-0.9079,-0.9207,-0.9256,-0.9207,-0.9344,-0.9366,-0.9298,-0.9494,-0.9418,-0.9159,-0.931,-0.939,-0.939,-0.9873,-0.9864,-0.9579,-0.943,-0.9199,-0.8943,-0.8537,-0.8414,-0.8414,-0.8414,-0.8414,-0.8414,-0.8414,-0.8414,-0.8414,-0.8414,-0.8414,-0.8462,-0.8643,-0.8707,-0.8754,-0.8961,-0.9374,-0.9795,-1.0065,-1.021,-1.0265,-1.0051,-0.9895,-0.974,-0.9614,-0.9458,-0.9302,-0.9302,0.0,0.0,0.0,0.0,0.0,0.0,0.0,0.0,0.0,-0.9302,0.0,0.0,0.0,0.0,0.0,0.0,0.0,-0.9614,-0.9614,0.0,-0.9614,-0.9614,-0.9672,-0.9797,-0.9921,-0.9914,-0.9819,-1.047,-1.077,-1.0792,-1.1114,-1.1439,-1.1622,-1.1622,-1.1622,-1.1622,-1.1622,-1.1622,-1.1622,-1.1622,-1.1622,-1.1622,0.3567,0.1326,0.0,0.0,-0.292,0.0,-0.5518,-0.6452,-0.7168,-0.767,-0.8077,-0.8529,-0.9009,-0.9346,-0.9716,-1.0079,0.0,0.0,0.0,-0.9518,-0.9248,-0.9056,-0.9248,0.0,-0.9065,-0.9056,-0.8926,-0.8716,-0.8826,-0.8866,-0.8866,-0.8866,-0.8866,-0.885,-0.8524,-0.8414,-0.8414,-0.8822,-0.8975,-0.8975,-0.939,-0.954,-0.946,-0.9128,-0.8975,-0.8903,-0.8537,-0.8414,-0.8414,-0.8414,-0.8414,-0.8414,-0.8414,-0.8414,-0.8414,-0.8414,-0.8414,-0.8414,-0.8414,-0.8414,-0.8422,-0.8446,-0.8921,-0.9612,-1.0362,-1.0419,-1.0265,-1.0051,-0.9895,-0.974,-0.9614,-0.9138,-0.8778,-0.8778,-0.8243,-0.7664,-0.7187,0.0,0.0,0.0,0.0,0.0,0.0,-0.883,-0.9033,0.0,0.0,0.0,0.0,0.0,0.0,-0.9577,-0.9614,-0.9614,-0.9614,-0.9636,-0.9811,-1.0141,-1.0463,-1.0448,-1.0155,-1.0814,-1.1092,-1.1092,-1.1483,-1.1622,-1.1622,-1.1622,-1.1622,-1.1622,-1.1622,-1.1622,-1.1622,-1.1622,-1.1622,-1.1622,0.0,0.0,-0.2077,-0.2617,-0.3807,-0.4908,-0.561,-0.6452,-0.725,-0.7903,-0.8482,-0.9037,-0.9644,-0.9861,-1.0118,-1.0467,-1.0196,-0.9932,-0.9744,-0.9634,-0.9594,-0.9515,-0.9774,-0.9813,-0.9554,-0.9567,-0.931,-0.8716,-0.8577,-0.85,-0.85,-0.85,-0.85,-0.85,-0.8454,-0.8414,-0.8414,-0.8496,-0.8537,-0.8578,-0.8967,-0.8967,-0.8683,-0.8935,-0.8822,-0.8537,-0.8414,-0.8414,-0.8414,-0.8414,-0.8414,-0.8414,-0.8414,-0.8414,-0.8414,-0.8414,-0.8414,-0.8414,-0.8414,-0.8414,-0.8445,-0.8707,-0.9295,-0.9914,-1.0367,-1.0419,-1.0265,-1.0051,-0.9895,-0.974,-0.9614,-0.9138,-0.8778,-0.8778,-0.7931,-0.7241,-0.7139,0.0,0.0,0.0,-0.745,-0.7978,-0.8718,-0.9197,-0.9406,0.0,0.0,0.0,0.0,0.0,-0.9019,-0.9577,-0.9614,-0.9614,-0.9614,-0.9863,-1.0148,-1.0477,-1.0799,-1.0785,-1.0492,-1.1211,-1.1311,-1.1092,-1.1483,-1.1622,-1.1622,-1.1622,-1.1622,-1.1622,-1.1622,-1.1622,-1.1622,-1.1622,-1.1622,-1.1622,-0.0222,-0.2266,-0.3463,-0.3497,-0.4596,-0.569,-0.6325,-0.7161,-0.79,-0.8527,-0.9136,-0.9609,-0.994,-1.0312,-1.0457,-1.039,-1.0196,-1.0049,-0.9902,-0.9902,-0.9832,-0.9723,-1.0088,-1.0127,-0.9723,-0.9765,-0.943,-0.8716,-0.8488,-0.8414,-0.8414,-0.8414,-0.8414,-0.8414,-0.8414,-0.8414,-0.8414,-0.8414,-0.8414,-0.8414,-0.8659,-0.8578,-0.8414,-0.8659,-0.8578,-0.8414,-0.8414,-0.8414,-0.8414,-0.8414,-0.8414,-0.8414,-0.8414,-0.8414,-0.8414,-0.8414,-0.8414,-0.8414,-0.8414,-0.8414,-0.8534,-0.9001,-0.9533,-1.0017,-1.0391,-1.0419,-1.0265,-1.0051,-0.9895,-0.9688,-0.9302,-0.8771,-0.8296,-0.809,-0.7295,-0.6712,-0.6712,-0.6391,0.0,-0.7031,-0.7557,-0.8137,-0.8725,-0.9302,-0.9458,-0.9145,0.0,0.0,-0.9114,-0.88,-0.9042,-1.0013,-1.006,-1.006,-1.006,-1.0382,-1.0558,-1.0594,-1.107,-1.1128,-1.0828,-1.1333,-1.1527,-1.1365,-1.1549,-1.1622,-1.1622,-1.1622,-1.1622,-1.1622,-1.1622,-1.1622,-1.1622,-1.1622,-1.1622,-1.1622,-0.129,-0.349,-0.4565,-0.4326,-0.524,-0.6289,-0.7161,-0.8005,-0.8683,-0.9177,-0.9765,-1.0196,-1.0235,-1.0677,-1.0791,-1.0273,-1.0157,-1.0079,-1.0079,-1.0079,-1.001,-0.9832,-1.0322,-1.0361,-0.9753,-0.9716,-0.939,-0.8756,-0.857,-0.8455,-0.8455,-0.8496,-0.8455,-0.8455,-0.8455,-0.8414,-0.8414,-0.8414,-0.8414,-0.8414,-0.8414,-0.8414,-0.8414,-0.8414,-0.8414,-0.8414,-0.8414,-0.8414,-0.8414,-0.8414,-0.8414,-0.8414,-0.8414,-0.8414,-0.8414,-0.8414,-0.8414,-0.8414,-0.8414,-0.8454,-0.8603,-0.9239,-0.966,-1.0017,-1.0391,-1.0368,-1.0213,-1.0051,-0.9792,-0.9472,-0.8883,-0.8243,-0.761,-0.7187,-0.6603,-0.6178,-0.6178,0.0,-0.6445,-0.7031,-0.7557,-0.8137,-0.8725,-0.9197,-0.9302,-0.883,-0.8221,0.0,0.0,-0.8463,-0.9206,-1.0552,-1.0581,-1.0609,-1.066,-1.0938,-1.0982,-1.0814,-1.137,-1.1487,-1.1231,-1.1509,-1.1667,-1.1622,-1.1622,-1.1622,-1.1622,-1.1622,-1.1622,-1.1622,-1.1622,-1.1622,-1.1622,-1.1622,-1.1622,-1.1622,-0.0842,-0.3014,-0.4849,-0.5082,-0.5604,-0.6289,-0.7161,-0.8088,-0.8797,-0.9239,-0.9991,-1.0611,-1.0829,-1.0878,-1.0878,-1.0764,-1.0351,-1.0079,-1.0079,-1.0079,-1.0196,-1.0428,-1.0544,-1.0428,-1.0049,-0.9597,-0.9239,-0.8935,-0.8935,-0.8814,-0.8643,-0.8814,-0.8814,-0.8643,-0.8643,-0.8561,-0.8414,-0.8414,-0.8414,-0.8414,-0.8414,-0.8414,-0.8414,-0.8414,-0.8414,-0.8414,-0.8414,-0.8414,-0.8414,-0.8414,-0.8414,-0.8414,-0.8414,-0.8414,-0.8414,-0.8414,-0.8414,-0.8414,-0.8414,-0.8595,-0.8913,-0.9295,-0.966,-1.0017,-1.0391,-1.0265,-1.0051,-0.9999,-0.9465,-0.8935,-0.8823,-0.7931,-0.7187,-0.7139,-0.6603,-0.6178,0.0,0.0,-0.6445,-0.7031,-0.7557,-0.8137,-0.8725,-0.8876,-0.8883,-0.883,-0.8007,-0.7852,-0.8579,-0.8902,-0.9524,-1.0463,-1.0578,-1.0719,-1.0997,-1.1048,-1.1319,-1.1809,-1.1911,-1.1933,-1.1889,-1.1941,-1.1816,-1.1622,-1.1622,-1.1622,-1.1622,-1.1622,-1.1622,-1.1622,-1.1622,-1.1622,-1.1622,-1.1622,-1.1622,-1.1622,-0.275,-0.4308,-0.5468,-0.5782,-0.6209,-0.6923,-0.8047,-0.8504,-0.899,-0.9637,-1.038,-1.0802,-1.0677,-1.0943,-1.0992,-1.0621,-1.0467,-1.0351,-1.0351,-1.0351,-1.0428,-1.0582,-1.0725,-1.0611,-1.0118,-0.9558,-0.9239,-0.9168,-0.9056,-0.8935,-0.8854,-0.8975,-0.8935,-0.8846,-0.8756,-0.8643,-0.857,-0.8455,-0.8414,-0.8414,-0.8414,-0.8414,-0.8414,-0.8414,-0.8414,-0.8414,-0.8414,-0.8414,-0.8414,-0.8414,-0.8414,-0.8414,-0.8414,-0.8414,-0.8414,-0.8414,-0.8414,-0.8414,-0.8414,-0.8635,-0.8937,-0.9088,-0.9533,-0.997,-1.0137,-1.0074,-0.9895,-0.9629,-0.9413,-0.9033,-0.8402,-0.7871,-0.745,-0.7139,-0.6603,0.0,0.0,-0.6178,-0.6287,-0.6603,-0.7396,-0.8031,-0.8296,-0.8613,-0.8738,-0.8517,-0.7818,-0.7538,-0.7896,-0.8747,-0.9572,-1.0185,-1.0954,-1.1443,-1.1589,-1.1765,-1.1999,-1.2299,-1.2299,-1.2138,-1.2036,-1.2219,-1.2028,-1.163,-1.1743,-1.1721,-1.1622,-1.1622,-1.1622,-1.1622,-1.1622,-1.1622,-1.1622,-1.1622,-1.1622,-1.1622,-0.4556,-0.5446,-0.5955,-0.6252,-0.6761,-0.7565,-0.8805,-0.8999,-0.9301,-1.0147,-1.0677,-1.0905,-1.0687,-1.0943,-1.0981,-1.0505,-1.0505,-1.0582,-1.0697,-1.0611,-1.0621,-1.0687,-1.0764,-1.0534,-1.001,-0.9607,-0.9368,-0.9319,-0.9217,-0.9145,-0.9056,-0.9145,-0.9136,-0.9056,-0.8846,-0.8765,-0.8683,-0.8488,-0.8414,-0.8414,-0.8414,-0.8414,-0.8414,-0.8414,-0.8414,-0.8414,-0.8414,-0.8414,-0.8414,-0.8414,-0.8414,-0.8414,-0.8414,-0.8414,-0.8414,-0.8414,-0.8414,-0.8414,-0.8414,-0.8572,-0.8802,-0.8881,-0.9358,-0.9819,-0.9906,-0.9957,-0.9895,-0.9472,-0.9413,-0.9138,-0.8296,-0.7877,-0.7557,-0.7187,0.0,0.0,0.0,-0.6178,-0.6228,-0.6391,-0.7187,-0.7765,-0.7871,-0.8246,-0.8323,-0.8037,-0.7581,-0.7279,-0.7212,-0.8473,-0.9527,-1.0269,-1.148,-1.2145,-1.2145,-1.2394,-1.2555,-1.2636,-1.2636,-1.2504,-1.227,-1.2519,-1.2284,-1.1684,-1.1926,-1.1853,-1.1622,-1.1622,-1.1622,-1.1622,-1.1622,-1.1622,-1.1622,-1.1622,-1.1622,-1.1622,-0.4732,-0.5376,-0.583,-0.6252,-0.7049,-0.7972,-0.8854,-0.9319,-0.9855,-1.0725,-1.0878,-1.1029,-1.1367,-1.1019,-1.0791,-1.0943,-1.0572,-1.0505,-1.0943,-1.0725,-1.0687,-1.0943,-1.0457,-1.001,-0.9713,-0.9683,-0.9545,-0.9319,-0.9545,-0.9506,-0.9279,-0.9545,-0.9506,-0.9279,-0.9056,-0.8886,-0.8683,-0.8488,-0.8414,-0.8414,-0.8414,-0.8414,-0.8414,-0.8414,-0.8414,-0.8414,-0.8414,-0.8414,-0.8414,-0.8414,-0.8414,-0.8414,-0.8414,-0.8414,-0.8414,-0.8414,-0.8414,-0.8414,-0.8414,-0.8438,-0.8492,-0.8818,-0.9175,-0.9517,-0.9851,-0.9957,-0.9999,-0.9947,-0.9361,-0.883,-0.8725,-0.7877,-0.7139,-0.7085,0.0,0.0,-0.6178,-0.6178,-0.6391,-0.6977,-0.7085,-0.7348,-0.7871,-0.7654,-0.752,-0.748,-0.732,-0.7202,-0.7221,-0.8254,-0.9541,-1.1165,-1.2002,-1.2482,-1.2482,-1.2511,-1.2672,-1.2972,-1.2972,-1.2958,-1.2943,-1.2958,-1.2614,-1.1999,-1.1956,-1.1853,-1.1622,-1.1622,-1.1622,-1.1622,-1.1622,-1.1622,-1.1622,-1.1622,-1.1622,-1.1622,-0.528,-0.5787,-0.6289,-0.7049,-0.769,-0.8513,-0.957,-0.9884,-1.0263,-1.1169,-1.1255,-1.1255,-1.1142,-1.0867,-1.0677,-1.0649,-1.0572,-1.0687,-1.0981,-1.0905,-1.0725,-1.0457,-1.0235,-0.9971,-0.9723,-0.9683,-0.9634,-0.9545,-0.9634,-0.9634,-0.9545,-0.9634,-0.9634,-0.9545,-0.9177,-0.8975,-0.8854,-0.8537,-0.8414,-0.8414,-0.8414,-0.8414,-0.8414,-0.8414,-0.8414,-0.8414,-0.8414,-0.8414,-0.8414,-0.8414,-0.8414,-0.8414,-0.8414,-0.8414,-0.8414,-0.8414,-0.8414,-0.8414,-0.8414,-0.8414,-0.8446,-0.854,-0.8993,-0.943,-0.9565,-0.9802,-0.9895,-0.9577,-0.9413,-0.9086,-0.8349,-0.7871,-0.7503,-0.7139,0.0,-0.6178,-0.6178,-0.6178,-0.6282,-0.65,-0.6994,-0.735,-0.7566,-0.7567,-0.7715,-0.7947,-0.7575,-0.7466,-0.7716,-0.9242,-1.0518,-1.1613,-1.2445,-1.2883,-1.2826,-1.2381,-1.2606,-1.3309,-1.2797,-1.2593,-1.2716,-1.2914,-1.2548,-1.175,-1.1948,-1.1853,-1.1622,-1.1622,-1.1622,-1.1622,-1.1622,-1.1622,-1.1622,-1.1622,-1.1622,-1.1622,-0.5701,-0.6204,-0.6755,-0.7551,-0.8193,-0.8958,-1.0021,-1.034,-1.0695,-1.1394,-1.1404,-1.1217,-1.0916,-1.084,-1.0725,-1.0649,-1.0829,-1.0981,-1.1094,-1.0867,-1.0534,-1.0118,-1.001,-0.9902,-0.9723,-0.9683,-0.9683,-0.9683,-0.9683,-0.9683,-0.9683,-0.9683,-0.9683,-0.9683,-0.9266,-0.9096,-0.9056,-0.8651,-0.8488,-0.8488,-0.8414,-0.8414,-0.8414,-0.8414,-0.8414,-0.8414,-0.8414,-0.8414,-0.8414,-0.8414,-0.8414,-0.8414,-0.8414,-0.8414,-0.8414,-0.8414,-0.8414,-0.8414,-0.8414,-0.8414,-0.8414,-0.8414,-0.881,-0.9271,-0.9374,-0.9616,-0.9768,-0.951,-0.9517,-0.9295,-0.8349,-0.8031,-0.7717,-0.7192,-0.6603,-0.6178,-0.6178,-0.6229,-0.6271,-0.6271,-0.6837,-0.7197,-0.7197,-0.7408,-0.7675,-0.7919,-0.7692,-0.765,-0.8056,-0.9845,-1.1031,-1.1558,-1.2344,-1.2722,-1.2714,-1.2198,-1.2372,-1.3032,-1.243,-1.2308,-1.268,-1.2804,-1.2438,-1.1721,-1.1941,-1.1853,-1.1622,-1.1622,-1.1622,-1.1622,-1.1622,-1.1622,-1.1622,-1.1622,-1.1622,-1.1622,-0.5947,-0.655,-0.7147,-0.7641,-0.8431,-0.9279,-1.0108,-1.0591,-1.1067,-1.1442,-1.1142,-1.0916,-1.0926,-1.0916,-1.0992,-1.118,-1.1404,-1.1431,-1.1308,-1.0524,-1.0079,-1.0079,-0.9823,-0.9683,-0.9683,-0.9683,-0.9683,-0.9683,-0.9683,-0.9683,-0.9683,-0.9683,-0.9683,-0.9683,-0.9408,-0.9279,-0.9279,-0.8878,-0.8716,-0.8675,-0.8496,-0.8414,-0.8414,-0.8414,-0.8414,-0.8414,-0.8414,-0.8414,-0.8414,-0.8414,-0.8414,-0.8414,-0.8414,-0.8414,-0.8414,-0.8414,-0.8414,-0.8414,-0.8414,-0.8414,-0.8422,-0.8414,-0.8643,-0.8993,-0.9318,-0.9438,-0.9589,-0.9931,-0.9777,-0.9458,-0.8876,-0.8296,-0.7717,-0.7192,-0.6603,-0.6178,-0.6178,-0.6351,-0.6473,-0.6478,-0.6665,-0.6796,-0.6796,-0.704,-0.7226,-0.7226,-0.7416,-0.7712,-0.8061,-0.9845,-1.09,-1.1099,-1.1477,-1.1768,-1.197,-1.199,-1.199,-1.197,-1.1847,-1.2219,-1.2994,-1.2665,-1.2336,-1.2028,-1.2028,-1.1853,-1.1622,-1.1622,-1.1622,-1.1622,-1.156,-1.156,-1.1622,-1.156,-1.1622,-1.1622,-0.655,-0.714,-0.7716,-0.8496,-0.9062,-0.9815,-1.0922,-1.1244,-1.1479,-1.1884,-1.1811,-1.1627,-1.1367,-1.133,-1.1404,-1.159,-1.1553,-1.1292,-1.084,-1.0341,-1.001,-0.9832,-0.9762,-0.9683,-0.9683,-0.9683,-0.9683,-0.9683,-0.9683,-0.9683,-0.9683,-0.9683,-0.9683,-0.9683,-0.9408,-0.9199,-0.9056,-0.8797,-0.8602,-0.8488,-0.8414,-0.8414,-0.8414,-0.8414,-0.8414,-0.8414,-0.8414,-0.8414,-0.8414,-0.8414,-0.8414,-0.8414,-0.8414,-0.8414,-0.8414,-0.8414,-0.8414,-0.8414,-0.8414,-0.8556,-0.8691,-0.8478,-0.8643,-0.8993,-0.9318,-0.9438,-0.9589,-0.9931,-0.9777,-0.9295,-0.8349,-0.8031,-0.761,-0.6603,-0.6337,-0.6225,-0.6365,-0.6435,-0.6529,-0.6679,-0.6941,-0.7069,-0.7069,-0.7248,-0.7497,-0.7584,-0.7924,-0.8174,-0.8302,-0.9802,-1.0761,-1.1099,-1.1103,-1.0978,-1.0719,-1.0181,-1.0271,-1.0932,-1.0816,-1.1024,-1.1606,-1.1988,-1.2006,-1.1706,-1.1706,-1.1585,-1.1373,-1.1373,-1.1373,-1.1365,-1.0856,-1.1045,-1.156,-1.0989,-1.1178,-1.1622,-0.7308,-0.7731,-0.8226,-0.9102,-0.957,-1.0196,-1.1319,-1.1516,-1.159,-1.1811,-1.1847,-1.17,-1.1292,-1.1553,-1.1774,-1.192,-1.159,-1.1142,-1.0621,-1.0205,-0.998,-1.0059,-0.9941,-0.9793,-0.9683,-0.9793,-0.9793,-0.9683,-0.9683,-0.9683,-0.9683,-0.9683,-0.9683,-0.9683,-0.9545,-0.9337,-0.9088,-0.8886,-0.8683,-0.8529,-0.8414,-0.8414,-0.8414,-0.8414,-0.8414,-0.8414,-0.8414,-0.8414,-0.8414,-0.8414,-0.8414,-0.8414,-0.8414,-0.8414,-0.8414,-0.8414,-0.8414,-0.8414,-0.8414,-0.849,-0.859,-0.8519,-0.8798,-0.9183,-0.9431,-0.9483,-0.9589,-0.9879,-0.9725,-0.9242,-0.8084,-0.7925,-0.7503,-0.6391,-0.6178,-0.622,-0.6342,-0.6426,-0.6524,-0.6651,-0.6984,-0.7221,-0.7221,-0.7402,-0.7579,-0.7645,-0.7966,-0.8155,-0.8155,-0.9647,-1.0456,-1.0427,-1.0384,-1.0137,-0.9596,-0.8641,-0.8739,-0.9677,-0.968,-1.0119,-1.0818,-1.1197,-1.1347,-1.1498,-1.1498,-1.1428,-1.1303,-1.1303,-1.1247,-1.1178,-1.0528,-1.0591,-1.1045,-1.0611,-1.08,-1.1178,-0.8054,-0.8398,-0.8765,-0.946,-0.9953,-1.0532,-1.1319,-1.1479,-1.1516,-1.1516,-1.1516,-1.1404,-1.1067,-1.17,-1.215,-1.215,-1.159,-1.1029,-1.0611,-1.0059,-0.998,-1.0582,-1.0312,-1.0049,-0.9762,-0.9971,-0.998,-0.9683,-0.9683,-0.9683,-0.9683,-0.9683,-0.9683,-0.9683,-0.9683,-0.9506,-0.9239,-0.9056,-0.8871,-0.8692,-0.8503,-0.8486,-0.851,-0.851,-0.851,-0.8502,-0.847,-0.8462,-0.8462,-0.8422,-0.8414,-0.8414,-0.8414,-0.8414,-0.8414,-0.8414,-0.8414,-0.8373,-0.8332,-0.8297,-0.8338,-0.8612,-0.9042,-0.9424,-0.9616,-0.9539,-0.949,-0.9732,-0.9629,-0.9138,-0.8084,-0.7871,-0.745,-0.6391,-0.6178,-0.6182,-0.6201,-0.636,-0.6487,-0.6582,-0.6927,-0.7231,-0.7245,-0.7416,-0.7521,-0.7521,-0.7673,-0.7801,-0.7782,-0.9364,-0.9961,-0.9332,-0.9509,-0.927,-0.8709,-0.7512,-0.7425,-0.8338,-0.8614,-0.9256,-1.0296,-1.0277,-1.0598,-1.124,-1.124,-1.1303,-1.1303,-1.124,-1.1178,-1.0933,-1.0338,-1.0142,-1.0212,-1.0351,-1.0421,-1.0611,-0.8349,-0.899,-0.9509,-0.9579,-1.0244,-1.0791,-1.0992,-1.1292,-1.1516,-1.1516,-1.1774,-1.1932,-1.1847,-1.2294,-1.2556,-1.2556,-1.1737,-1.1067,-1.0687,-1.0273,-1.0205,-1.0582,-1.0725,-1.0572,-1.001,-1.0079,-0.998,-0.9683,-0.9683,-0.9683,-0.9683,-0.9683,-0.9594,-0.9368,-0.9368,-0.9159,-0.8837,-0.8805,-0.8815,-0.8872,-0.8786,-0.8945,-0.9175,-0.9175,-0.9175,-0.9144,-0.8881,-0.8786,-0.8746,-0.851,-0.8414,-0.8414,-0.8414,-0.8414,-0.8414,-0.8414,-0.8414,-0.8291,-0.7821,-0.8323,-0.8875,-0.8531,-0.8839,-0.9315,-0.9486,-0.9096,-0.8941,-0.9673,-0.8988,-0.819,-0.7925,-0.7557,-0.7031,-0.6337,-0.6178,-0.6229,-0.6389,-0.6445,-0.6653,-0.6984,-0.7164,-0.7283,-0.744,-0.7497,-0.7521,-0.7521,-0.7801,-0.7943,-0.7787,-0.8972,-0.9502,-0.9337,-0.8863,-0.8615,-0.8548,-0.7377,-0.6945,-0.73,-0.7914,-0.8288,-0.8565,-0.9627,-1.0212,-1.0528,-1.0989,-1.1122,-1.1122,-1.0989,-1.0611,-1.0028,-0.9314,-0.9116,-0.9308,-0.95,-0.9894,-1.0471,-0.8797,-0.931,-0.9815,-1.0167,-1.0753,-1.118,-1.118,-1.1516,-1.17,-1.1516,-1.1847,-1.2113,-1.2113,-1.2449,-1.2556,-1.221,-1.1505,-1.1019,-1.0867,-1.0534,-1.0544,-1.1012,-1.0878,-1.0649,-1.0351,-1.0196,-0.998,-0.9683,-0.9683,-0.9683,-0.9683,-0.9683,-0.9634,-0.9496,-0.9368,-0.9223,-0.9073,-0.8981,-0.9025,-0.9136,-0.9136,-0.9247,-0.9398,-0.9398,-0.9295,-0.9136,-0.8969,-0.8794,-0.8619,-0.8478,-0.8414,-0.8373,-0.8209,-0.8291,-0.8332,-0.7995,-0.8167,-0.8291,-0.7746,-0.8055,-0.8458,-0.8245,-0.8286,-0.8512,-0.9112,-0.901,-0.8854,-0.9228,-0.8778,-0.8243,-0.7978,-0.745,-0.6928,-0.6287,-0.6178,-0.6215,-0.6318,-0.6412,-0.6615,-0.6832,-0.7036,-0.7302,-0.7502,-0.7521,-0.7521,-0.7521,-0.7726,-0.7782,-0.7782,-0.8607,-0.8969,-0.8602,-0.8498,-0.8166,-0.7788,-0.7047,-0.6688,-0.67,-0.7232,-0.7581,-0.7817,-0.8863,-0.9633,-1.0085,-1.0674,-1.0933,-1.0933,-1.087,-1.0351,-0.9582,-0.893,-0.8544,-0.8425,-0.8668,-0.9432,-1.0458,-0.935,-0.9697,-1.005,-1.0764,-1.1292,-1.1553,-1.1442,-1.1811,-1.1968,-1.1553,-1.1847,-1.215,-1.2186,-1.2484,-1.2401,-1.1653,-1.1282,-1.1094,-1.1094,-1.084,-1.0926,-1.1485,-1.1012,-1.0697,-1.0582,-1.0312,-1.001,-0.9683,-0.9683,-0.9683,-0.9683,-0.9683,-0.9683,-0.9634,-0.9368,-0.9345,-0.9452,-0.9236,-0.929,-0.9477,-0.9422,-0.943,-0.9477,-0.9414,-0.9223,-0.8977,-0.8929,-0.8632,-0.8332,-0.8332,-0.8291,-0.8167,-0.7919,-0.8002,-0.8126,-0.7628,-0.7787,-0.8077,-0.7621,-0.7544,-0.7619,-0.7735,-0.7536,-0.7542,-0.8489,-0.8659,-0.8666,-0.8666,-0.8514,-0.8243,-0.7824,-0.7295,-0.6766,-0.6282,-0.6178,-0.6178,-0.6178,-0.6346,-0.6487,-0.6524,-0.6955,-0.734,-0.7507,-0.7521,-0.7521,-0.7521,-0.7559,-0.764,-0.7716,-0.8331,-0.8384,-0.7698,-0.8103,-0.7878,-0.6974,-0.6765,-0.6603,-0.642,-0.6738,-0.6992,-0.7326,-0.8161,-0.893,-0.964,-1.0288,-1.0674,-1.08,-1.0611,-1.0098,-0.9262,-0.8737,-0.8091,-0.754,-0.8019,-0.9131,-1.0334,-1.0167,-1.0591,-1.0829,-1.0878,-1.1516,-1.1774,-1.1105,-1.1627,-1.1968,-1.1553,-1.1847,-1.2222,-1.2591,-1.2674,-1.2365,-1.159,-1.1505,-1.1505,-1.1442,-1.1132,-1.1105,-1.1485,-1.141,-1.1126,-1.0621,-1.0544,-1.0244,-0.9683,-0.9683,-0.9683,-0.9683,-0.9683,-0.9585,-0.9368,-0.9136,-0.9097,-0.9228,-0.9028,-0.9271,-0.9827,-0.9517,-0.9581,-0.9819,-0.9509,-0.9366,-0.9295,-0.9009,-0.8505,-0.7953,-0.7953,-0.7787,-0.7538,-0.7503,-0.7496,-0.7579,-0.7787,-0.753,-0.7147,-0.6894,-0.6967,-0.7017,-0.6788,-0.6795,-0.6984,-0.7292,-0.7348,-0.7509,-0.7925,-0.7241,-0.6712,-0.7139,-0.6712,-0.6282,-0.6232,-0.6178,-0.6178,-0.6178,-0.6346,-0.6543,-0.6726,-0.7168,-0.7493,-0.7521,-0.7521,-0.7521,-0.7521,-0.7631,-0.7669,-0.7574,-0.7976,-0.7911,-0.7306,-0.7418,-0.7263,-0.6712,-0.6704,-0.6603,-0.642,-0.6607,-0.6662,-0.6548,-0.7326,-0.8096,-0.8865,-0.9454,-1.0098,-1.0744,-0.997,-0.9262,-0.8554,-0.7907,-0.7195,-0.67,-0.7692,-0.8764,-0.9869,-1.0723,-1.0885,-1.1067,-1.1516,-1.1847,-1.1957,-1.1627,-1.2066,-1.2294,-1.1884,-1.2186,-1.2484,-1.2674,-1.2484,-1.2258,-1.2029,-1.1726,-1.159,-1.1664,-1.1415,-1.1276,-1.1228,-1.1088,-1.0774,-1.0312,-1.0166,-0.998,-0.9683,-0.9683,-0.9683,-0.9683,-0.9683,-0.9545,-0.9279,-0.9096,-0.9174,-0.9444,-0.9265,-0.9588,-1.02,-0.9835,-0.9787,-0.9882,-0.9533,-0.9279,-0.9072,-0.8731,-0.8299,-0.7919,-0.7919,-0.7663,-0.737,-0.7167,-0.7251,-0.7377,-0.7125,-0.7034,-0.6937,-0.6598,-0.653,-0.647,-0.64,-0.6347,-0.6374,-0.6553,-0.6603,-0.6766,-0.7348,-0.7031,-0.6766,-0.7031,-0.6603,-0.6178,-0.6178,-0.6178,-0.6178,-0.6178,-0.6449,-0.6768,-0.7154,-0.7347,-0.7521,-0.7521,-0.7521,-0.7521,-0.7521,-0.7659,-0.774,-0.7645,-0.7919,-0.7901,-0.7394,-0.7394,-0.7203,-0.6688,-0.6692,-0.6603,-0.642,-0.6501,-0.6497,-0.6416,-0.7134,-0.7717,-0.8032,-0.8678,-0.9134,-0.9518,-0.9134,-0.8554,-0.7912,-0.7587,-0.714,-0.6638,-0.6944,-0.7793,-0.8827]}]]